[[{"header":{"parameterUnit":"m.s-1","parameterCategory":1,"la1":30.6,"la2":29.2853,"lo1":-89.7004,"lo2":-87.6739,"dy":0.0162,"dx":0.0183,"nx":112,"ny":82,"refTime":"2023-09-27T18:00:00:Z","depth":0,"parameterNumber":2,"parameterNumberName":"U-component_of_WINDS"},"data":[0.0,0.0,0.0,0.0,0.0,0.0,0.0,0.0,0.0,0.0,0.0,0.0,0.0,0.0,0.0,0.0,0.0,0.0,0.0,0.0,0.0,0.0,0.0,0.0,0.0,0.0,0.0,0.0,0.0,0.0,0.0,0.0,0.0,0.0,0.0,0.0,0.0,0.0,0.0,0.0,0.0,0.0,0.0,0.0,0.0,0.0,0.0,0.0,0.0,0.0,0.0,0.0,0.0,0.0,0.0,0.0,0.0,0.0,0.0,0.0,0.0,0.0,0.0,0.0,0.0,0.0,0.0,0.0,0.0,0.0,0.0,0.0,0.0,0.0,0.0,0.0,0.0,0.0,0.0,0.0,0.0,0.0,0.0,0.0,0.0,0.0,0.0,0.0,0.0,0.0,1.0245,1.44,1.5338,1.5782,1.6077,1.5261,1.4312,1.3305,0.0,0.0,0.0,0.0,0.0,0.0,0.0,0.0,0.0,0.0,0.0,0.0,0.0,0.0,0.0,0.0,0.0,0.0,0.0,0.0,0.0,0.0,0.0,0.0,0.0,0.0,0.0,0.0,0.0,0.0,0.0,0.0,0.0,0.0,0.0,0.0,0.0,0.0,0.0,0.0,0.0,0.0,0.0,0.0,0.0,0.0,0.0,0.0,0.0,0.0,0.0,0.0,0.0,0.0,0.0,0.0,0.0,0.0,0.0,0.0,0.0,0.0,0.0,0.0,0.0,0.0,0.0,0.0,0.0,0.0,0.0,0.0,0.0,0.0,0.0,0.0,0.0,0.0,0.0,0.0,0.0,0.0,0.0,0.0,0.0,0.0,0.0,0.0,0.0,0.0,0.0,0.0,0.0,0.0,0.0,0.0,0.0,0.0,0.0,0.0,0.0,0.0,0.0,0.0,1.3306,1.5246,1.5758,1.6334,1.7323,1.7249,1.6866,1.6116,0.0,0.0,0.0,0.0,0.0,0.0,0.0,0.0,0.0,0.0,0.0,0.0,0.0,0.0,0.0,0.0,0.0,0.0,0.0,0.0,0.0,0.0,0.0,0.0,0.0,0.0,0.0,0.0,0.0,0.0,0.0,0.0,0.0,0.0,0.0,0.0,0.0,0.0,0.0,0.0,0.0,0.0,0.0,0.0,0.0,0.0,0.0,0.0,0.0,0.0,0.0,0.0,0.0,0.0,0.0,0.0,0.0,0.0,0.0,0.0,0.0,0.0,0.0,0.0,0.0,0.0,0.0,0.0,0.0,0.0,0.0,0.0,0.0,0.0,0.0,0.0,0.0,0.0,0.0,0.0,0.0,0.0,0.0,0.0,0.0,0.0,0.0,0.0,0.0,0.0,0.0,0.0,0.0,0.0,0.0,0.0,0.0,0.0,0.0,0.0,0.0,0.0,0.0,1.395,1.6243,1.6298,1.6867,1.7254,1.7273,1.6735,1.5913,1.4773,1.268,0.0,0.0,0.0,0.0,0.0,0.0,0.0,0.0,0.0,0.0,0.0,0.0,0.0,0.0,0.0,0.0,0.0,0.0,0.0,0.0,0.0,0.0,0.0,0.0,0.0,0.0,0.0,0.0,0.0,0.0,0.0,0.0,0.0,0.0,0.0,0.0,0.0,0.0,0.0,0.0,0.0,0.0,0.0,0.0,0.0,0.0,0.0,0.0,0.0,0.0,0.0,0.0,0.0,0.0,0.0,0.0,0.0,0.0,0.0,0.0,0.0,0.0,0.0,0.0,0.0,0.0,0.0,0.0,0.0,0.0,0.0,0.0,0.0,0.0,0.0,0.0,0.0,0.0,0.0,0.0,0.0,0.0,0.0,0.0,0.0,0.0,0.0,0.0,0.0,0.0,0.0,0.0,0.0,0.0,0.0,0.0,0.0,0.0,0.0,0.0,0.0,0.0,1.4822,1.6881,1.6184,1.6816,1.7119,1.6667,1.5865,1.4896,1.3705,1.3153,0.0,0.0,0.0,0.0,0.0,0.0,0.0,0.0,0.0,0.0,0.0,0.0,0.0,0.0,0.0,0.0,0.0,0.0,0.0,0.0,0.0,0.0,0.0,0.0,0.0,0.0,0.0,0.0,0.0,0.0,0.0,0.0,0.0,0.0,0.0,0.0,0.0,0.0,0.0,0.0,0.0,0.0,0.0,0.0,0.0,0.0,0.0,0.0,0.0,0.0,0.0,0.0,0.0,0.0,0.0,0.0,0.0,0.0,0.0,0.0,0.0,0.0,0.0,0.0,0.0,0.0,0.0,0.0,0.0,0.0,0.0,0.0,0.0,0.0,0.0,0.0,0.0,0.0,0.0,0.0,0.0,0.0,0.0,0.0,0.0,0.0,0.0,0.0,0.0,0.0,0.0,0.0,0.0,0.0,0.0,0.0,0.0,0.0,0.0,0.0,0.0,0.0,1.2908,1.3155,1.377,1.4172,1.4761,1.5707,1.5728,1.5635,1.5528,1.5472,0.0,0.0,0.0,0.0,0.0,0.0,0.0,0.0,0.0,0.0,0.0,0.0,0.0,0.0,0.0,0.0,0.0,0.0,0.0,0.0,0.0,0.0,0.0,0.0,0.0,0.0,0.0,0.0,0.0,0.0,0.0,0.0,0.0,0.0,0.0,0.0,0.0,0.0,0.0,0.0,0.0,0.0,0.0,0.0,0.0,0.0,0.0,0.0,0.0,0.0,0.0,0.0,0.0,0.0,0.0,0.0,0.0,0.0,0.0,0.0,0.0,0.0,0.0,0.0,0.0,0.0,0.0,0.0,0.0,0.0,0.0,0.0,0.0,0.0,0.0,0.0,0.0,0.0,0.0,0.0,0.0,0.0,0.0,0.0,0.0,0.0,0.0,0.0,0.0,0.0,0.0,0.0,0.0,0.0,0.0,0.0,0.0,0.0,0.0,0.0,0.0,0.0,1.4671,1.5295,1.5173,1.6066,1.656,1.6287,1.6072,1.5674,1.5055,0.0,0.0,0.0,0.0,0.0,0.0,0.0,0.0,0.0,0.0,0.0,0.0,0.0,0.0,0.0,0.0,0.0,0.0,0.0,0.0,0.0,0.0,0.0,0.0,0.0,0.0,0.0,0.0,0.0,0.0,0.0,0.0,0.0,0.0,0.0,0.0,0.0,0.0,0.0,0.0,0.0,0.0,0.0,0.0,0.0,0.0,0.0,0.0,0.0,0.0,0.0,0.0,0.0,0.0,0.0,0.0,0.0,0.0,0.0,0.0,0.0,0.0,0.0,0.0,0.0,0.0,0.0,0.0,0.0,0.0,0.0,0.0,0.0,0.0,0.0,0.0,0.0,0.0,0.0,0.0,0.0,0.0,0.0,0.0,0.0,0.0,0.0,0.0,0.0,0.0,0.0,0.0,0.0,0.0,0.0,0.0,0.0,0.0,0.0,0.0,0.0,0.0,1.4276,1.5521,1.6248,1.5799,1.6613,1.688,1.6146,1.5878,1.5362,1.4467,0.0,0.0,0.0,0.0,0.0,0.0,0.0,0.0,0.0,0.0,0.0,0.0,0.0,0.0,0.0,0.0,0.0,0.0,0.0,0.0,0.0,0.0,0.0,0.0,0.0,0.0,0.0,0.0,0.0,0.0,0.0,0.0,0.0,0.0,0.0,0.0,0.0,0.0,0.0,0.0,0.0,0.0,0.0,0.0,0.0,0.0,0.0,0.0,0.0,0.0,0.0,0.0,0.0,0.0,0.0,0.0,0.0,0.0,0.0,0.0,0.0,0.0,0.0,0.0,0.0,0.0,0.0,0.0,0.0,0.0,0.0,0.0,0.0,0.0,0.0,0.0,0.0,0.0,0.0,0.0,0.0,0.0,0.0,0.0,0.0,0.0,0.0,0.0,0.0,0.0,0.0,0.0,0.0,0.0,0.0,0.0,0.0,0.0,0.0,0.0,0.0,0.0,1.4617,1.4846,1.4986,1.4986,1.5022,1.5022,1.5022,1.5022,1.4721,0.0,0.0,0.0,0.0,0.0,0.0,0.0,0.0,0.0,0.0,0.0,0.0,0.0,0.0,0.0,0.0,0.0,0.0,0.0,0.0,0.0,0.0,0.0,0.0,0.0,0.0,0.0,0.0,0.0,0.0,0.0,0.0,0.0,0.0,0.0,0.0,0.0,0.0,0.0,0.0,0.0,0.0,0.0,0.0,0.0,0.0,0.0,0.0,0.0,0.0,0.0,0.0,0.0,0.0,0.0,0.0,0.0,0.0,0.0,0.0,0.0,0.0,0.0,0.0,0.0,0.0,0.0,0.0,0.0,0.0,0.0,0.0,0.0,0.0,0.0,0.0,0.0,0.0,0.0,0.0,0.0,0.0,0.0,0.0,0.0,0.0,0.0,0.0,0.0,0.0,0.0,0.0,0.0,0.0,0.0,0.0,0.0,0.0,0.0,0.0,0.0,0.0,0.0,1.5365,1.5353,1.5271,1.5271,1.5444,1.5555,1.5555,1.5391,1.5097,1.4661,0.0,0.0,0.0,0.0,0.0,0.0,0.0,0.0,0.0,0.0,0.0,0.0,0.0,0.0,0.0,0.0,0.0,0.0,0.0,0.0,0.0,0.0,0.0,0.0,0.0,0.0,0.0,0.0,0.0,0.0,0.0,0.0,0.0,0.0,0.0,0.0,0.0,0.0,0.0,0.0,0.0,0.0,0.0,0.0,0.0,0.0,0.0,0.0,0.0,0.0,0.0,0.0,0.0,0.0,0.0,0.0,0.0,0.0,0.0,0.0,0.0,0.0,0.0,0.0,0.0,0.0,0.0,0.0,0.0,0.0,0.0,0.0,0.0,0.0,0.0,0.0,0.0,0.0,0.0,0.0,0.0,0.0,0.0,0.0,0.0,0.0,0.0,0.0,0.0,0.0,0.0,0.0,0.0,0.0,0.0,0.0,0.0,0.0,0.0,0.0,0.0,0.0,1.5571,1.5687,1.5792,1.5912,1.6048,1.6155,1.6155,1.6019,1.5648,1.4979,0.0,0.0,0.0,0.0,0.0,0.0,0.0,0.0,0.0,0.0,0.0,0.0,0.0,0.0,0.0,0.0,0.0,0.0,0.0,0.0,0.0,0.0,0.0,0.0,0.0,0.0,0.0,0.0,0.0,0.0,0.0,0.0,0.0,0.0,0.0,0.0,0.0,0.0,0.0,0.0,0.0,0.0,0.0,0.0,0.0,0.0,0.0,0.0,0.0,0.0,0.0,0.0,0.0,0.0,0.0,0.0,0.0,0.0,0.0,0.0,0.0,0.0,0.0,0.0,0.0,0.0,0.0,0.0,0.0,0.0,0.0,0.0,0.0,0.0,0.0,0.0,0.0,0.0,0.0,0.0,0.0,0.0,0.0,0.0,0.0,0.0,0.0,0.0,0.0,0.0,0.0,0.0,0.0,0.0,0.0,0.0,0.0,0.0,0.0,0.0,0.0,0.0,1.5465,1.5957,1.6444,1.6673,1.67,1.67,1.67,1.67,1.6233,1.5133,0.0,0.0,0.0,0.0,0.0,0.0,0.0,0.0,0.0,0.0,0.0,0.0,0.0,0.0,0.0,0.0,0.0,0.0,0.0,0.0,0.0,0.0,0.0,0.0,0.0,0.0,0.0,0.0,0.0,0.0,0.0,0.0,0.0,0.0,0.0,0.0,0.0,0.0,0.0,0.0,0.0,0.0,0.0,0.0,0.0,0.0,0.0,0.0,0.0,0.0,0.0,0.0,0.0,0.0,0.0,0.0,0.0,0.0,0.0,0.0,1.5591,0.0,0.0,0.0,0.0,0.0,0.0,0.0,0.0,0.0,0.0,0.0,0.0,0.0,0.0,0.0,0.0,0.0,0.0,0.0,0.0,0.0,0.0,0.0,0.0,0.0,0.0,0.0,0.0,0.0,0.0,0.0,0.0,0.0,0.0,0.0,0.0,0.0,0.0,0.0,0.0,0.0,1.6096,1.6423,1.6633,1.67,1.67,1.67,1.67,1.67,1.6382,1.5661,1.64,0.0,0.0,0.0,0.0,0.0,0.0,0.0,0.0,0.0,0.0,0.0,0.0,0.0,0.0,0.0,0.0,0.0,0.0,0.0,0.0,0.0,0.0,0.0,0.0,0.0,0.0,0.0,0.0,0.0,0.0,0.0,0.0,0.0,0.0,0.0,0.0,0.0,0.0,0.0,0.0,0.0,0.0,0.0,0.0,0.0,0.0,0.0,0.0,0.0,0.0,0.0,0.0,0.0,0.0,0.0,0.0,0.0,0.0,0.0,0.0,1.6274,0.0,0.0,0.0,0.0,0.0,0.0,0.0,0.0,0.0,0.0,0.0,0.0,0.0,0.0,0.0,0.0,0.0,0.0,0.0,0.0,0.0,0.0,0.0,0.0,0.0,0.0,0.0,0.0,0.0,0.0,0.0,0.0,0.0,0.0,0.0,0.0,0.0,0.0,0.0,0.0,1.5917,1.6518,1.6993,1.7114,1.7128,1.7128,1.7128,1.7128,1.6941,1.6486,1.6687,0.0,0.0,0.0,0.0,0.0,0.0,0.0,0.0,0.0,0.0,0.0,0.0,0.0,0.0,0.0,0.0,0.0,0.0,0.0,0.0,0.0,0.0,0.0,0.0,0.0,0.0,0.0,0.0,0.0,0.0,0.0,0.0,0.0,0.0,0.0,0.0,0.0,0.0,0.0,0.0,0.0,0.0,0.0,0.0,0.0,0.0,0.0,0.0,0.0,0.0,0.0,0.0,0.0,2.0,2.0508,2.125,2.125,2.1035,2.0625,1.9688,1.9415,1.9551,1.8592,0.0,0.0,0.0,0.0,0.0,0.0,0.0,0.0,0.0,0.0,0.0,0.0,0.0,0.0,0.0,0.0,0.0,0.0,0.0,0.0,0.0,0.0,0.0,0.0,1.5498,1.465,1.5186,0.0,0.0,0.0,0.0,0.0,0.0,0.0,0.0,0.0,0.0,0.0,1.5412,1.6458,1.7341,1.7582,1.7608,1.7608,1.7608,1.7608,1.7501,1.7286,1.6792,1.6326,0.0,0.0,0.0,0.0,0.0,0.0,0.0,0.0,0.0,0.0,0.0,0.0,0.0,0.0,0.0,0.0,0.0,0.0,0.0,0.0,0.0,0.0,0.0,0.0,0.0,0.0,0.0,0.0,0.0,0.0,0.0,0.0,1.3674,1.4632,0.0,0.0,0.0,0.0,0.0,0.0,0.0,0.0,0.0,0.0,0.0,0.0,0.0,1.9159,1.992,2.0899,2.1621,2.209,2.2852,2.3437,2.3906,2.3906,2.3867,2.3728,2.2518,0.0,2.0976,2.1211,0.0,0.0,0.0,0.0,0.0,0.0,0.0,0.0,0.0,0.0,0.0,0.0,0.0,0.0,0.0,0.0,0.0,0.0,0.0,0.0,0.0,0.0,1.617,1.6586,1.578,1.5214,0.0,1.5809,1.5544,1.666,1.6455,0.0,0.0,0.0,0.0,0.0,0.0,0.0,1.5089,1.6511,1.7568,1.7608,1.7608,1.7608,1.7608,1.7608,1.7595,1.7555,1.7474,1.7073,1.627,1.6725,0.0,0.0,0.0,0.0,0.0,0.0,0.0,0.0,0.0,0.0,0.0,0.0,0.0,0.0,0.0,0.0,0.0,0.0,0.0,0.0,0.0,0.0,0.0,0.0,0.0,0.0,0.0,0.0,0.0,1.4176,1.4976,1.5169,1.5769,1.5747,0.0,0.0,0.0,0.0,0.0,0.0,0.0,0.0,0.0,1.9999,2.0742,2.1289,2.166,2.2754,2.3652,2.4313,2.4684,2.521,2.5854,2.5854,2.5854,2.5815,2.5269,2.4801,2.4352,2.2852,2.2383,2.256,0.0,0.0,0.0,0.0,2.0293,2.0664,1.9961,1.9818,1.9866,1.9398,0.0,0.0,0.0,0.0,0.0,0.0,0.0,0.0,0.0,0.0,1.7107,1.7201,1.6832,1.6645,1.7289,1.6489,1.5778,0.0,1.6496,1.635,1.5678,0.0,0.0,0.0,0.0,1.6177,1.6241,1.7154,1.7903,1.8076,1.8117,1.8117,1.8117,1.7943,1.7809,1.7809,1.7675,1.7434,1.7046,1.7287,1.6966,0.0,0.0,0.0,0.0,0.0,0.0,0.0,0.0,0.0,0.0,0.0,0.0,0.0,0.0,0.0,0.0,0.0,0.0,0.0,0.0,0.0,0.0,0.0,0.0,0.0,0.0,0.0,0.0,1.5745,1.6346,1.6381,1.7366,1.7679,0.0,0.0,0.0,0.0,0.0,0.0,2.0098,2.084,2.1446,2.1896,2.2832,2.3415,2.363,2.4586,2.5386,2.603,2.603,2.6381,2.6986,2.6986,2.6986,2.6986,2.6986,2.6986,2.6836,2.459,2.3789,2.401,2.3753,2.3225,2.25,2.2168,2.2246,2.2379,2.1292,2.1059,2.1078,2.0093,1.9366,1.8847,1.8624,0.0,0.0,0.0,0.0,1.808,1.7664,1.7739,1.7908,1.7834,1.7836,1.7876,1.8089,1.7142,1.6275,0.0,1.6619,1.6469,1.5367,0.0,0.0,0.0,1.6179,1.6954,1.7046,1.7689,1.8223,1.8464,1.849,1.849,1.849,1.8263,1.8129,1.8129,1.7943,1.7836,1.7836,1.7836,1.7569,1.7035,0.0,0.0,0.0,0.0,0.0,0.0,0.0,0.0,0.0,0.0,0.0,0.0,0.0,0.0,0.0,0.0,0.0,0.0,0.0,0.0,0.0,0.0,0.0,0.0,0.0,0.0,0.0,0.0,0.0,1.8865,2.0586,0.0,0.0,0.0,0.0,2.0468,2.084,2.1464,2.2284,2.2795,2.3811,2.5382,2.5523,2.5932,2.6777,2.683,2.6889,2.6928,2.6928,2.6947,2.6986,2.6986,2.6986,2.6986,2.6986,2.6986,2.6986,2.683,2.6562,2.6157,2.5336,2.4711,2.4141,2.293,2.3242,2.4035,2.2323,2.1715,2.1426,2.0066,1.9039,1.8189,1.736,1.8195,0.0,0.0,1.8302,1.8843,1.7565,1.7849,1.8466,1.8465,1.8437,1.845,1.8464,1.7983,1.7582,0.0,1.7058,1.6491,1.6978,0.0,1.7178,1.5928,1.678,1.7341,1.6794,1.7742,1.8477,1.849,1.849,1.849,1.849,1.8477,1.8464,1.8464,1.845,1.8437,1.8437,1.8437,1.8303,1.7929,1.7422,0.0,0.0,0.0,0.0,0.0,0.0,0.0,0.0,0.0,0.0,0.0,0.0,0.0,0.0,0.0,0.0,0.0,0.0,0.0,0.0,0.0,0.0,0.0,0.0,0.0,0.0,0.0,0.0,2.0762,2.1738,0.0,2.1855,2.2384,2.2599,2.2246,2.3376,2.4212,2.4547,2.5254,2.5918,2.6518,2.6836,2.7129,2.7448,2.7695,2.7969,2.8215,2.8215,2.8379,2.8652,2.8652,2.8652,2.8652,2.8652,2.8652,2.8652,2.8652,2.793,2.6758,2.6445,2.623,2.601,2.5562,2.508,2.4559,2.3938,2.2502,2.0708,1.9347,1.8682,1.8367,1.8062,1.8364,1.8755,1.829,1.8449,1.8686,1.8373,1.8531,1.8811,1.904,1.908,1.9134,1.9292,1.904,1.8853,1.9118,1.8063,1.7207,1.7421,1.7862,1.7889,1.7074,1.7649,1.8156,1.8103,1.8476,1.8838,1.9067,1.908,1.908,1.908,1.8878,1.8771,1.8771,1.8597,1.849,1.849,1.849,1.8437,1.8303,1.8116,1.7395,0.0,0.0,0.0,0.0,0.0,0.0,0.0,0.0,0.0,0.0,0.0,0.0,0.0,0.0,0.0,0.0,0.0,0.0,0.0,0.0,0.0,0.0,0.0,0.0,0.0,1.9578,2.101,2.2192,2.3066,2.3571,2.3571,2.4121,2.4453,2.443,2.5484,2.6206,2.6387,2.6934,2.7363,2.763,2.793,2.8191,2.8327,2.8621,2.8867,2.9141,2.9141,2.9297,2.9598,2.9598,2.9364,2.8945,2.8827,2.8518,2.8111,2.7996,2.7262,2.6256,2.6676,2.6755,2.6544,2.5974,2.5164,2.4268,2.3795,2.2107,1.9975,1.908,1.8784,1.8784,1.8784,1.8879,1.8931,1.8931,1.8998,1.9118,1.929,1.933,1.9383,1.9613,1.9653,1.972,1.9907,1.9559,1.9359,1.9853,1.9078,1.8237,1.7943,1.8303,1.8397,1.7689,1.7929,1.825,1.845,1.8703,1.8998,1.9199,1.9479,1.9653,1.9653,1.9212,1.9023,1.9316,1.8905,1.8771,1.9065,1.8798,1.8544,1.8343,1.7756,1.7007,1.6102,0.0,0.0,0.0,0.0,0.0,0.0,0.0,0.0,0.0,0.0,0.0,0.0,0.0,0.0,0.0,0.0,0.0,0.0,0.0,0.0,0.0,0.0,0.0,1.9802,2.143,2.2734,2.3225,2.4723,2.5757,2.5776,2.6518,2.7031,2.7025,2.7045,2.7266,2.7702,2.7721,2.8093,2.884,2.8879,2.9121,2.9579,2.9618,2.9637,2.9657,2.9657,2.9629,2.9592,2.9592,2.8883,2.766,2.7242,2.6407,2.5235,2.4904,2.4773,2.4869,2.602,2.6202,2.5671,2.405,2.3407,2.3183,2.1813,2.0486,1.9428,1.9428,1.9428,1.9428,1.9428,1.9615,1.9813,1.9813,1.9983,2.021,2.021,2.0224,2.0224,2.0224,2.0224,2.0237,2.0237,1.9583,1.9236,2.009,2.0067,1.9586,1.8704,1.8784,1.8636,1.7822,1.7689,0.0,1.7689,1.8424,1.893,1.893,1.9677,2.0184,2.0197,1.941,1.9276,2.0144,1.941,1.9316,2.017,1.9383,1.8663,1.8075,1.6368,1.5925,1.678,0.0,0.0,0.0,0.0,0.0,0.0,0.0,0.0,0.0,0.0,0.0,0.0,0.0,0.0,0.0,0.0,0.0,0.0,0.0,0.0,0.0,2.0977,2.235,2.2284,2.2943,2.3945,2.5332,2.6191,2.6797,2.7135,2.737,2.7643,2.791,2.8223,2.8411,2.8574,2.8281,2.8249,2.8457,2.8769,2.8957,2.9101,3.0059,3.0684,3.0976,3.0976,3.0464,2.9543,2.9543,2.8666,2.7099,2.701,2.6761,2.6432,2.6333,2.631,2.6226,2.5474,2.5129,2.4971,2.4511,2.366,2.2447,2.033,1.9773,2.0,2.0,2.0,2.0,2.0,2.0024,2.0077,2.0077,2.0144,2.025,2.0494,2.0548,2.0615,2.0815,2.0837,2.0922,2.1167,2.1034,2.0993,2.1416,2.1443,2.1042,1.9917,1.9783,1.9757,1.9517,1.9506,0.0,1.9506,1.969,1.9837,1.9837,1.9706,1.9773,2.017,1.9626,1.9533,2.0157,1.9983,1.9957,2.0197,1.997,1.977,1.961,1.8503,1.8076,0.0,0.0,0.0,0.0,0.0,0.0,0.0,0.0,0.0,0.0,0.0,0.0,0.0,0.0,0.0,0.0,0.0,0.0,0.0,0.0,0.0,0.0,2.2676,2.4277,2.4984,2.5278,2.5806,2.6822,2.7461,2.791,2.8164,2.8386,2.8582,2.8836,2.9062,2.9277,2.9453,2.9219,2.9082,2.9082,2.9687,2.9894,2.9746,3.0859,3.1543,3.1777,3.1016,3.0259,2.9475,2.8758,2.7546,2.6059,2.5913,2.5533,2.5047,2.491,2.4868,0.0,0.0,0.0,0.0,0.0,2.3039,2.2083,2.0679,2.0535,2.0931,2.0931,2.0931,2.0931,2.0931,2.0708,2.0414,2.0414,2.0147,2.0,2.0535,2.0712,2.0846,2.1349,2.1483,2.1523,2.1729,2.1475,2.1381,2.1917,2.1716,0.0,2.1015,2.0655,2.0294,1.992,1.9867,1.9867,1.9867,2.0187,2.0414,2.0414,2.0441,2.0632,2.0935,2.0321,0.0,0.0,0.0,2.0077,1.9266,1.9109,0.0,0.0,0.0,1.7142,1.6721,0.0,0.0,0.0,1.6115,1.621,0.0,0.0,0.0,0.0,0.0,0.0,0.0,0.0,0.0,0.0,0.0,0.0,0.0,0.0,0.0,0.0,2.4235,2.5547,2.7545,2.7917,2.7936,2.7839,2.8516,2.9004,2.9035,2.9414,2.9696,2.9735,2.9794,2.9989,3.0332,3.0293,0.0,0.0,0.0,3.1151,3.0616,3.1449,3.1803,3.1658,3.0062,2.9204,2.9006,2.746,2.5989,2.465,2.4357,2.3583,2.2513,2.2238,2.2084,2.2236,2.3616,2.4125,2.3948,2.2413,2.193,2.201,2.1903,0.0,0.0,2.1991,2.1991,2.1991,2.1991,2.1475,2.086,2.086,2.0298,1.987,2.0659,2.086,2.1047,2.1836,2.1991,2.2024,2.2031,2.1448,2.1141,2.1924,2.1489,2.1208,2.1984,2.1408,2.0592,1.9803,1.9696,1.9696,1.9696,2.0378,2.086,2.086,0.0,0.0,2.1977,2.1012,2.0798,2.1628,2.0764,1.9475,1.7791,1.7457,1.6,1.3257,1.4603,1.489,1.4005,1.4005,1.4661,1.5939,1.5365,1.5694,0.0,0.0,0.0,0.0,0.0,0.0,0.0,0.0,0.0,0.0,0.0,0.0,0.0,0.0,0.0,2.5469,2.6758,2.7812,2.8574,2.9277,2.9453,2.8769,2.9121,2.957,2.9922,3.0019,3.0234,3.0605,3.0957,3.1172,3.122,3.0937,3.0762,3.0762,3.0918,3.0292,2.8724,2.9587,2.948,2.8386,0.0,0.0,2.6271,2.5922,2.4867,2.3289,2.3214,2.3052,2.2815,2.2754,2.2733,2.2713,2.2529,2.2471,2.2342,2.1316,2.1408,2.1884,2.1208,2.1422,2.1991,2.1991,2.1991,2.1991,2.1991,2.1871,0.0,2.177,2.1649,2.1555,2.1683,2.177,2.1777,2.1951,2.1991,2.2044,2.2285,2.2205,2.2205,2.2653,2.2586,2.2532,2.2693,2.2184,2.167,2.151,2.1515,2.1515,2.1515,2.163,2.177,2.177,2.1456,2.147,2.1951,2.0013,1.9044,1.9685,1.8161,1.7088,1.6722,1.6637,1.6303,1.5705,1.6025,1.6065,1.5899,1.5899,1.6032,1.6298,1.5891,1.6014,0.0,0.0,0.0,0.0,0.0,0.0,0.0,0.0,0.0,0.0,0.0,2.1523,2.2596,0.0,2.4945,2.6465,2.7422,2.8367,2.9414,3.0137,3.0293,2.9629,2.9961,3.0341,3.0527,3.0723,3.0957,3.1191,3.1601,3.1836,3.1836,3.167,3.102,2.9938,3.0332,2.9574,2.7566,2.8398,2.8526,2.7834,2.695,2.6152,2.5484,2.4588,2.372,2.2893,2.2893,2.2893,2.2893,2.2893,2.2893,2.2867,2.2572,2.2452,2.2398,2.197,2.2077,2.2398,2.1957,2.2091,2.2452,2.2452,2.2452,2.2452,2.2452,2.2158,2.1796,2.1796,2.1456,2.1216,2.1689,2.1796,2.1917,2.2358,2.2452,2.2492,2.2605,2.2645,2.2686,2.2867,2.2893,2.2893,2.2893,2.2653,2.2452,2.2452,2.2452,2.2452,2.2452,2.2452,2.2082,2.1146,2.0772,2.0342,1.9652,1.8451,1.7878,1.8174,1.6432,1.5395,1.5395,1.5395,1.4944,1.4022,1.4909,1.4944,1.3987,1.3987,1.3987,1.3979,1.3818,1.4233,0.0,0.0,0.0,0.0,0.0,0.0,0.0,2.1431,2.121,2.1835,2.2793,2.3633,2.404,2.5059,2.6236,2.7441,2.793,2.8718,3.0234,3.0781,3.0898,3.0605,3.0918,3.1133,3.1133,3.1445,3.1641,3.1641,3.2051,3.2163,3.1838,3.1884,3.0964,2.884,2.9442,2.8774,2.6665,2.7327,2.7503,2.7138,2.5685,2.4979,2.4959,2.3529,2.2893,2.2893,2.2893,2.2893,2.2893,2.2893,2.2893,2.2893,2.2893,2.2893,2.2893,2.2893,2.2893,2.2893,2.2893,2.2893,2.2893,2.2893,2.2893,2.2893,2.2893,2.2398,2.1836,2.1836,2.1296,2.0909,2.1649,2.1836,2.2024,2.2733,2.2893,2.2893,2.2893,2.2893,2.2791,2.2448,2.2366,2.2229,2.1872,2.1803,2.1919,2.2297,2.2366,2.2229,2.1837,2.1803,2.1217,1.9704,1.953,1.8764,1.6826,1.665,1.6509,1.6131,1.4681,1.3872,1.3872,1.3872,1.3131,1.1619,1.3095,1.3095,1.1584,1.1584,1.1584,1.1584,1.1647,1.2251,1.9018,1.8732,1.9119,1.9859,2.0722,2.1559,0.0,2.3795,2.4976,2.473,2.5962,2.7252,2.7637,2.8144,2.8789,2.9687,2.9883,3.0254,3.123,3.1406,3.1582,3.1944,3.2022,3.2061,3.2061,3.2101,3.212,3.212,3.248,3.2076,3.0518,3.0751,3.0144,2.8341,2.836,2.7521,2.5665,2.574,2.5012,2.3495,2.329,2.3201,2.3201,2.2996,2.2893,2.2893,2.2893,2.2893,2.2893,2.2893,2.2893,2.2893,2.2893,2.2893,2.2893,2.2893,2.2893,2.2893,2.2893,2.2893,2.2893,2.2893,2.2893,2.2893,2.2893,2.2827,2.2746,2.2746,2.2679,2.2626,2.2719,2.2746,2.2773,2.288,2.2893,2.2893,2.2893,2.2893,2.24,2.0721,2.0409,1.9843,1.8124,1.7844,1.8404,2.0155,2.0409,1.9773,1.8054,1.7844,1.7774,1.7564,1.7529,1.6756,1.4849,1.4716,1.4014,1.2323,1.2043,1.19,1.19,1.19,1.1792,1.1584,1.1792,1.1792,1.1584,1.1584,1.1584,1.1584,1.1712,1.1794,2.0391,2.0418,2.0832,2.1901,2.3065,2.4083,2.4636,2.564,2.6504,2.6588,2.737,2.8164,2.8574,2.8809,2.9199,3.0059,3.0215,3.0498,3.1377,3.1953,3.2324,3.255,3.209,3.1582,3.1103,3.1934,3.1811,3.0002,3.0972,3.0874,2.9153,2.9193,2.846,2.6673,2.6639,2.5786,2.3992,2.3992,2.3631,2.2893,2.2893,2.2893,2.2893,2.2893,2.2893,2.2893,2.2893,2.2893,2.2893,2.2893,2.2893,2.2893,2.2893,2.2893,2.2893,2.2893,2.2893,2.2893,2.2893,2.2893,2.2893,2.2893,2.2893,2.2893,2.2893,2.2893,2.2893,2.2893,2.2893,2.2893,2.2893,2.2893,2.2893,2.2893,2.2893,2.2893,2.2893,2.2057,2.1032,2.0236,1.9182,1.8159,1.7353,1.7213,1.7107,1.6826,1.7704,1.8124,1.7283,1.7213,1.6791,1.5698,1.4583,1.363,1.2853,1.2781,1.2431,1.1655,1.1584,1.1653,1.1705,1.1705,1.1782,1.1877,1.1877,1.1877,1.1877,1.1877,1.1877,1.1877,1.1938,1.1932,2.1308,2.1629,2.209,2.3753,2.4941,2.5893,2.6582,2.707,2.75,2.7956,2.8437,2.8906,2.9191,2.9347,2.9668,3.0293,3.0508,3.0811,3.1601,3.2324,3.2715,3.2461,3.1992,3.0966,2.9104,3.0628,3.0957,2.9051,2.9647,2.9311,2.7536,2.747,2.6639,2.4858,2.4791,2.4196,2.2893,2.2893,2.2893,2.2893,2.2893,2.2893,2.2893,2.2893,2.2893,2.2893,2.2893,2.2893,2.2893,2.2893,2.2893,2.2893,2.2893,2.2893,2.2893,2.2893,2.2893,2.2893,2.2893,2.2893,2.2893,2.2893,2.2893,2.2893,2.2893,2.2893,2.2893,2.2893,2.2893,2.2893,2.2893,2.2893,2.2893,2.2893,2.2503,2.2125,2.2125,2.0678,1.9248,1.8711,1.7496,1.6399,1.5873,1.5802,1.5337,1.3982,1.4907,1.5783,1.5719,1.5765,1.5265,1.391,1.2561,1.1742,1.1742,1.1742,1.1742,1.1742,1.1742,1.1789,1.1891,1.1898,1.1945,1.2098,1.2098,1.2098,1.2098,1.2098,1.2098,1.2098,1.2145,1.2166,2.1291,2.1563,2.1835,2.4418,2.5391,2.605,2.737,2.7976,2.8379,2.8762,2.9551,3.0137,3.0156,3.0527,3.084,3.0859,3.1211,3.1641,3.212,3.255,3.248,3.163,3.1914,3.0488,2.6171,2.7727,2.9478,3.0659,2.9179,2.7503,2.5685,2.5584,2.4791,2.303,2.2996,2.2962,2.2893,2.2893,2.2893,2.2893,2.2893,2.2893,2.2893,2.2893,2.2893,2.2893,2.2893,2.2893,2.2893,2.2893,2.2893,2.2893,2.2893,2.2893,2.2893,2.2893,2.2893,2.2893,2.2893,2.2893,2.2893,2.2893,2.2893,2.2893,2.2893,2.2893,2.2893,2.2893,2.2893,2.2893,2.2893,2.2893,2.2893,2.2893,2.1493,2.0167,2.0167,1.8799,1.7024,1.5209,1.4919,1.4383,1.2561,1.2233,1.2233,1.2196,1.2233,1.2178,1.199,1.2137,1.2233,1.2196,1.2121,1.2084,1.2084,1.2084,1.2084,1.2084,1.2084,1.2091,1.2091,1.2091,1.2091,1.2098,1.2098,1.2098,1.2098,1.2098,1.2098,1.2104,1.2216,1.2284,2.084,2.2148,2.3669,2.5132,2.6484,2.7539,2.8015,2.866,2.9285,2.9687,2.9316,2.9023,2.9297,2.8789,2.8594,2.9453,2.9473,3.0039,3.1944,3.0528,3.0127,3.2474,2.9566,2.7807,2.8944,2.9207,2.8162,2.5362,2.5923,2.5651,2.3856,2.3754,2.3495,2.2928,2.2893,2.2893,2.2893,2.2893,2.2893,2.2893,2.2893,2.2893,2.2893,2.2893,2.2893,2.2893,2.2893,2.2893,2.2893,2.2893,2.2893,2.292,2.3086,2.3166,2.3193,2.3429,2.3496,2.3442,2.3041,2.2893,2.2893,2.2893,2.2893,2.2934,2.3113,2.3166,2.3207,2.3442,2.3496,2.3496,2.3496,2.2483,2.1432,2.1432,1.9951,1.852,1.852,1.7056,1.5584,1.4962,1.385,1.2829,1.221,1.2098,1.2132,1.2234,1.2166,1.2077,1.203,1.207,1.2098,1.2098,1.2098,1.2098,1.2098,1.2098,1.2098,1.2098,1.2098,1.2145,1.2247,1.221,1.2257,1.2352,1.2352,1.2352,1.2352,1.2352,1.2406,1.2508,1.2556,1.2637,2.172,2.3379,2.5152,2.6323,2.7598,2.8594,2.8906,2.9394,2.995,3.0351,2.9785,2.9121,2.8769,2.8118,2.7884,2.8594,2.8848,2.951,3.1001,2.9742,2.9216,3.0659,2.7756,2.6169,2.7614,2.7655,2.6316,2.3201,2.3682,2.3634,2.2492,2.2425,2.2572,2.288,2.2893,2.2893,2.2893,2.2893,2.2893,2.2893,2.2893,2.2893,2.2893,2.2893,2.2719,2.2452,2.288,2.288,2.2612,2.3041,2.3215,2.3241,2.3407,2.3487,2.3514,2.3736,2.3803,2.375,2.3362,2.3215,2.3215,2.3215,2.3215,2.3255,2.342,2.3487,2.3527,2.375,2.3803,2.3625,2.2885,2.1713,2.0502,1.9804,1.8124,1.6699,1.6699,1.5263,1.3984,1.3984,1.3034,1.2254,1.2254,1.2254,1.225,1.2352,1.2284,1.2254,1.2254,1.2254,1.2254,1.2254,1.2254,1.2254,1.2254,1.2254,1.2254,1.2254,1.2254,1.2284,1.244,1.2447,1.2515,1.2664,1.2664,1.2664,1.2664,1.2664,1.2718,1.2813,1.2813,1.2868,2.375,2.5113,2.6245,2.791,2.8652,2.9172,3.0019,3.0195,3.0293,3.0644,3.0664,3.0059,2.8367,2.832,2.8476,2.8242,2.9124,2.9766,2.9482,2.9946,2.9333,2.6566,2.6465,2.5548,2.2751,2.348,2.4119,2.4082,2.2562,2.1681,2.1681,2.1681,2.2037,2.2867,2.2893,2.2893,2.2893,2.2893,2.2893,2.2893,2.2893,2.2907,2.292,2.292,2.2479,2.177,2.2859,2.2873,2.2164,2.3335,2.3803,2.3803,2.383,2.383,2.383,2.3843,2.3843,2.3843,2.3843,2.383,2.3803,2.3803,2.3803,2.3803,2.383,2.3759,2.3687,2.3665,2.3594,2.308,2.109,2.05,1.9957,1.8055,1.6149,1.4794,1.4794,1.3492,1.2298,1.2298,1.2413,1.2501,1.2501,1.2508,1.2515,1.2515,1.2522,1.2522,1.2501,1.2508,1.2515,1.2515,1.2522,1.2522,1.2522,1.2522,1.2522,1.2522,1.2522,1.2589,1.2693,1.2706,1.2813,1.2996,1.3003,1.3003,1.3003,1.3003,1.3003,1.3009,1.3009,1.3016,2.4137,2.5971,2.7812,2.8574,2.9316,2.9922,3.0137,3.0195,2.9863,2.8758,2.7487,2.6157,2.475,2.4066,2.4375,2.6523,2.5867,2.5871,2.8191,2.5956,2.4719,2.643,2.4476,2.3418,2.4562,2.3804,2.2959,2.23,2.245,2.2559,2.2559,2.2559,2.2666,2.2893,2.2893,2.2893,2.2893,2.2893,2.2893,2.2893,2.2893,2.2979,2.3207,2.3207,2.3207,2.3255,2.3562,2.3562,2.3375,2.3683,2.3803,2.383,2.4008,2.4088,2.4115,2.4342,2.4422,2.4422,2.4422,2.4128,2.3803,2.3803,2.3803,2.3843,2.4022,2.3049,2.191,2.2104,2.1068,1.9793,1.926,1.7988,1.671,1.619,1.4532,1.3106,1.3106,1.2759,1.2447,1.2447,1.2474,1.2501,1.2501,1.2596,1.2632,1.2632,1.2773,1.2759,1.2528,1.2603,1.2632,1.2632,1.2773,1.2887,1.2887,1.2887,1.2887,1.2887,1.2887,1.2901,1.2901,1.2901,1.2962,1.3003,1.3003,1.3003,1.3003,1.3003,1.3057,1.3159,1.3159,1.322,2.5801,2.7324,2.8711,2.9336,2.9844,3.0,2.9285,2.9109,2.8562,2.6666,2.5469,2.4359,2.2893,2.2697,2.3177,2.4511,2.4397,2.4544,2.5775,2.4084,2.3142,2.4388,2.2808,2.2342,2.4164,2.3461,2.2693,2.2198,2.2265,2.2318,2.2318,2.2318,2.2505,2.288,2.2893,2.2893,2.2893,2.2893,2.296,2.3073,2.3073,2.322,2.3527,2.3527,2.3394,2.3207,0.0,2.3777,2.3442,2.3941,2.4155,2.4168,2.4329,2.4396,2.4372,2.4532,2.4599,2.4488,2.3574,2.3099,2.2846,2.2846,2.2846,2.2689,2.1982,2.0934,2.0102,2.0235,1.9478,1.8383,1.7474,1.6371,1.5272,1.4406,1.3337,1.2501,1.2501,1.2501,1.2522,1.2589,1.2603,1.2623,1.2691,1.2773,1.2834,1.2834,1.2948,1.2941,1.2725,1.2779,1.2834,1.2834,1.2948,1.3003,1.3003,1.3003,1.3003,1.3003,1.3003,1.303,1.3091,1.3098,1.3125,1.3152,1.3193,1.3193,1.3193,1.3193,1.3193,1.3275,1.3275,1.3315,2.7695,2.8594,2.9199,3.0,3.0195,2.9805,2.8367,2.7761,2.692,2.4766,2.4079,2.341,2.1821,2.2664,2.3381,2.2604,2.384,2.4367,2.2972,2.3125,2.2887,2.1573,2.1515,2.193,2.2813,2.2786,2.2773,2.2893,2.2184,2.1756,2.1756,2.1756,2.2104,2.2867,2.2893,2.2893,2.2893,2.2934,2.306,2.3292,2.3332,2.3541,2.387,2.387,2.342,2.2732,2.3808,2.3821,2.3215,2.4172,2.4599,2.4599,2.4599,2.4599,2.4599,2.4599,2.4451,2.3944,2.2211,2.1452,2.1178,2.1178,2.1178,2.0879,1.9139,1.8421,1.8194,1.8194,1.8005,1.7398,1.5578,1.5081,1.4667,1.2919,1.2501,1.2508,1.2528,1.2549,1.2603,1.2739,1.272,1.28,1.2975,1.3016,1.303,1.303,1.305,1.3057,1.3057,1.3043,1.303,1.303,1.305,1.3057,1.3057,1.3057,1.3057,1.3057,1.3057,1.3111,1.3241,1.3241,1.3268,1.3397,1.3403,1.3403,1.3403,1.3403,1.341,1.3431,1.3431,1.3444,2.7702,2.8621,2.957,3.0078,3.0195,3.0117,2.9824,2.8125,2.6118,2.4277,2.2502,2.0889,1.9725,2.1273,2.2523,2.1941,2.2556,2.2628,2.1144,2.1115,2.1039,2.0512,2.1141,2.193,2.2813,2.2238,2.2117,2.284,2.276,2.2666,2.2666,2.2666,2.2733,2.2893,2.2893,2.2893,2.2893,2.3113,2.3238,2.3292,2.3581,2.3848,2.4128,2.4128,2.4168,2.4226,2.4439,0.0,2.4306,2.4519,2.4599,2.4599,2.4599,2.4599,2.4599,2.4599,2.3537,2.2049,2.1714,2.0504,1.9139,1.9139,1.9139,1.9063,1.8723,1.7398,1.6028,1.6028,1.4859,1.3491,1.3112,1.3035,1.2919,1.2579,1.2501,1.2535,1.2625,1.2793,1.2928,1.2955,1.2962,1.2969,1.2996,1.3098,1.318,1.318,1.3247,1.3322,1.3322,1.3214,1.318,1.318,1.3247,1.3322,1.3322,1.3322,1.3322,1.3322,1.3322,1.3336,1.3363,1.3363,1.3376,1.3403,1.3403,1.3403,1.3403,1.3403,1.3464,1.3587,1.3587,1.3612,2.7897,2.8797,2.9696,3.0098,3.0195,2.9609,2.7383,2.5918,2.4238,2.1367,1.9961,1.893,1.7946,1.9039,2.0039,1.9866,2.0483,2.0895,2.0644,2.0662,2.0766,2.0895,2.1328,2.1743,2.2171,2.1836,2.1756,2.2184,2.2211,2.2412,2.2867,2.2893,2.2893,2.2893,2.2893,2.2893,2.2893,2.3166,2.3407,2.3554,2.3861,2.4155,2.4422,2.4422,2.4466,2.4599,2.4599,2.4346,2.3959,2.4412,2.4332,2.3959,2.4426,2.3957,2.3042,2.3042,2.1751,1.9892,1.8799,1.7777,1.6828,1.5769,1.6142,1.679,1.5731,1.4744,1.3945,1.3945,1.3221,1.2501,1.2501,1.2562,1.2584,1.2584,1.2684,1.2759,1.2834,1.2948,1.3023,1.3098,1.3111,1.3139,1.3214,1.3247,1.3295,1.3295,1.3356,1.3403,1.3403,1.3336,1.3295,1.3295,1.3356,1.3403,1.3403,1.3403,1.3403,1.3403,1.3403,1.3403,1.3403,1.3403,1.3437,1.3519,1.3519,1.3553,1.3627,1.3627,1.3626,1.3693,1.3693,1.3734,2.8125,2.8926,2.9559,2.9961,3.0,2.8945,2.5195,2.3984,2.2611,1.9003,1.7948,1.7433,1.6526,1.725,1.7989,1.7935,1.8647,1.9524,2.0318,2.0431,2.0712,2.1489,2.1582,2.1662,2.185,2.1689,2.1695,2.185,2.1863,2.2171,2.2853,2.2893,2.2893,2.2893,2.2893,2.2934,2.3,2.3273,2.3567,2.391,2.4155,2.4422,2.4599,2.4599,2.4599,2.4599,2.4599,2.4106,2.3359,2.4239,2.4079,2.3385,2.4252,2.3376,2.1601,2.1601,2.0042,1.7701,1.6066,1.5234,1.4598,1.3039,1.3597,1.4552,1.2997,1.2522,1.2549,1.2549,1.2576,1.2603,1.2603,1.2691,1.2779,1.2779,1.2895,1.305,1.305,1.3071,1.3125,1.32,1.322,1.3261,1.3376,1.3403,1.3403,1.3403,1.3403,1.3403,1.3403,1.3403,1.3403,1.3403,1.3403,1.3403,1.3403,1.3403,1.3417,1.3451,1.3451,1.3464,1.3492,1.3498,1.3553,1.3632,1.3632,1.3687,1.3795,1.3795,1.3815,1.3849,1.3849,1.3862,2.8293,2.8898,2.9082,2.954,2.9336,2.8535,2.6582,2.4629,2.238,1.9658,1.7825,1.649,1.5734,1.7118,1.811,1.7396,1.8114,1.8928,1.9444,1.9522,2.003,2.1422,2.1582,2.1903,2.2693,2.205,2.1917,2.2719,2.2773,2.2813,2.2893,2.2893,2.2893,2.2893,2.2893,2.3027,2.3252,2.3581,2.3875,2.4168,2.4426,2.4572,2.4599,2.4599,2.4599,2.4599,2.4599,2.4106,0.0,2.4239,2.4079,2.3385,2.4252,2.3376,2.1601,2.1601,1.9139,1.5769,1.5578,1.4291,1.2754,1.2703,1.2727,1.2733,1.2579,1.2596,1.2672,1.2672,1.2813,1.2962,1.2962,1.2969,1.2982,1.2982,1.3091,1.3193,1.3193,1.3261,1.3363,1.3376,1.3376,1.3383,1.3397,1.3403,1.3403,1.3403,1.3403,1.3403,1.3403,1.3403,1.3403,1.3403,1.3403,1.3403,1.3403,1.3403,1.3458,1.3558,1.3565,1.3626,1.3754,1.3754,1.3761,1.3781,1.3781,1.3788,1.3795,1.3795,1.3869,1.4048,1.4048,1.4122,2.6367,2.7734,2.8937,2.9141,2.9043,2.7934,2.4174,2.265,2.092,1.7059,1.5826,1.5199,1.4331,1.4938,1.565,1.584,1.6202,1.7218,1.9354,1.9773,2.0428,2.1897,2.2265,2.2305,2.2117,2.1783,2.1729,2.2077,2.2104,2.2345,2.2867,2.2893,2.2893,2.2893,2.2893,2.3041,2.3292,2.3621,2.3915,2.4209,2.4466,2.4599,2.4599,2.4599,2.4599,2.4525,2.3302,2.2083,0.0,2.0989,2.0264,1.9277,2.0502,1.9741,1.7919,1.7919,1.6142,1.3683,1.3683,1.3208,1.2651,1.2672,1.2752,1.2819,1.2819,1.282,1.2868,1.2868,1.2955,1.3003,1.3003,1.3064,1.3152,1.3207,1.3268,1.3308,1.3308,1.3356,1.3403,1.3403,1.3403,1.3403,1.3403,1.3403,1.3403,1.3403,1.3403,1.3403,1.3403,1.3403,1.3403,1.3403,1.3403,1.3437,1.3532,1.3539,1.3558,1.3707,1.3714,1.3741,1.3795,1.3795,1.3842,1.398,1.398,1.4027,1.4116,1.4116,1.415,1.4211,1.4211,1.4245,2.4926,2.668,2.8333,2.8333,2.7784,2.6136,2.2031,2.0521,1.8854,1.4729,1.4109,1.4008,1.3067,1.3118,1.3653,1.4801,1.5053,1.6096,1.8891,1.9583,2.033,2.1737,2.2164,2.2278,2.1997,2.197,2.197,2.197,2.197,2.2238,2.2867,2.2893,2.2893,2.2893,2.2893,2.3041,2.3292,2.3621,2.3915,2.4209,2.4466,2.4412,2.4128,2.4439,2.4069,2.3137,2.2066,2.0529,0.0,1.866,1.785,1.6807,1.8104,1.7322,1.5501,1.5501,1.4214,1.2508,1.2556,1.2598,1.2706,1.2834,1.2935,1.3071,1.3118,1.3098,1.3064,1.3064,1.3098,1.3132,1.3132,1.3207,1.3268,1.3376,1.3403,1.3403,1.3403,1.3403,1.3403,1.3403,1.3403,1.3403,1.3403,1.3403,1.3403,1.3403,1.3403,1.3403,1.3403,1.3403,1.3417,1.3464,1.3464,1.3512,1.3578,1.3626,1.3714,1.3899,1.3905,1.3933,1.393,1.393,1.4027,1.418,1.4136,1.419,1.4299,1.4299,1.4299,1.4299,1.4299,1.4299,2.4515,2.6035,2.7006,2.7006,2.5113,2.2778,2.1022,1.8704,1.6181,1.3478,1.3138,1.3032,1.2095,1.2122,1.2912,1.4713,1.5227,1.6019,1.7756,1.8543,1.9372,2.0561,2.0949,2.1577,2.2773,2.288,2.288,2.288,2.288,2.288,2.2893,2.2893,2.2893,2.2893,2.2893,2.3041,2.3292,2.3621,2.3915,2.4209,2.4466,2.4022,2.296,2.4102,2.2851,1.9924,2.1082,1.997,0.0,1.8262,1.8067,1.7381,1.8272,1.7322,1.5501,1.5501,1.4214,1.2522,1.2638,1.2686,1.274,1.3071,1.3207,1.3241,1.3349,1.3288,1.3214,1.3214,1.3281,1.3397,1.3397,1.3397,1.3397,1.3403,1.3403,1.3403,1.3403,1.3403,1.3403,1.3403,1.3403,1.3403,1.3403,1.3403,1.3403,1.3403,1.3403,1.3403,1.3403,1.3403,1.3458,1.3565,1.3585,1.3585,1.3585,1.3714,1.3862,1.4061,1.4112,1.418,1.4292,1.4292,1.4299,1.4299,1.4299,1.4299,1.4299,1.4299,1.4299,1.4299,1.4299,1.4299,2.0957,2.2306,2.3516,2.3516,2.2456,2.0744,1.8176,1.6424,1.4494,1.1598,1.1372,1.1633,1.1344,1.1837,1.2879,1.4713,1.5066,1.6029,1.8584,1.9452,2.0254,2.1462,2.2037,2.2492,2.2853,2.2358,2.2251,2.2853,2.2345,2.2265,2.2867,2.2893,2.2893,2.2893,2.2893,2.3041,2.3292,2.3621,2.3915,2.4209,2.4466,2.4008,2.2899,2.2637,2.1546,1.9692,1.8114,1.6666,1.5382,1.4697,1.4031,1.3457,1.4156,1.4022,1.3452,1.3452,1.3035,1.2522,1.2638,1.28,1.2922,1.3152,1.3241,1.3336,1.339,1.337,1.3329,1.3329,1.3363,1.3403,1.3403,1.3403,1.3403,1.3403,1.3403,1.3403,1.3403,1.3403,1.3403,1.3403,1.3403,1.3403,1.3403,1.3403,1.3403,1.3403,1.3403,1.3403,1.3403,1.3492,1.3531,1.3585,1.381,1.3933,1.3933,1.3973,1.4061,1.4217,1.4231,1.4251,1.4299,1.4299,1.4299,1.4299,1.4299,1.4299,1.4299,1.4299,1.4299,1.4299,1.4299,1.4299,1.8198,1.9753,2.0974,2.0341,1.9356,1.7933,1.5692,1.3916,1.2217,1.0338,1.0878,1.1507,1.0945,1.2029,1.3246,1.4043,1.4986,1.6244,1.7983,1.8998,1.9933,2.0913,2.1743,2.2412,2.2853,2.2398,2.2305,2.2853,2.2385,2.2318,2.2867,2.2893,2.2893,2.2893,2.2893,2.2987,2.3153,2.3447,2.3754,2.4048,2.4329,2.3507,2.1738,2.1643,2.0115,1.7474,1.6107,1.4864,0.0,1.2872,1.2284,1.1986,1.2359,1.2501,1.2501,1.2501,1.2535,1.261,1.2766,1.2915,1.3105,1.3214,1.3322,1.3403,1.3403,1.3403,1.3403,1.3403,1.3403,1.3403,1.3403,1.3403,1.3403,1.3403,1.3403,1.3403,1.3403,1.3403,1.3403,1.3403,1.3403,1.3403,1.3403,1.3403,1.3403,1.3403,1.3403,1.3424,1.3478,1.3566,1.3632,1.3783,1.396,1.4139,1.415,1.42,1.4197,1.4292,1.4299,1.4299,1.4299,1.4299,1.4299,1.4299,1.4299,1.4299,1.4299,1.4299,1.4299,1.4299,1.4299,1.4299,0.0,1.7973,1.9027,1.7348,1.586,1.453,1.3539,1.1428,0.0,0.9834,1.1404,1.2373,1.1028,1.2684,1.3969,1.3092,1.5079,1.666,1.6458,1.7715,1.8866,1.9401,2.0494,2.1643,2.2706,2.2853,2.2893,2.2893,2.2893,2.2893,2.2893,2.2893,2.2893,2.2893,2.2893,2.2893,2.2893,2.3166,2.3434,2.3683,2.3877,2.2487,1.9704,2.072,1.8455,0.0,1.4844,1.4214,1.2501,1.2501,1.2501,1.2501,1.2501,1.2501,1.2501,1.2501,1.2596,1.2713,1.2948,1.3098,1.3241,1.3349,1.3403,1.3403,1.3403,1.3403,1.3403,1.3403,1.3403,1.3403,1.3403,1.3403,1.3403,1.3403,1.3403,1.3403,1.3403,1.3403,1.3403,1.3403,1.3403,1.3403,1.3403,1.3403,1.3403,1.3403,1.341,1.3464,1.3572,1.3605,1.3763,1.4084,1.4125,1.4143,1.4285,1.4299,1.4299,1.4299,1.4299,1.4299,1.4299,1.4299,1.4299,1.4299,1.4299,1.4299,1.4299,1.4299,1.4299,1.4299,1.4299,1.4306,1.2845,0.0,1.4476,1.3565,1.261,1.1822,0.0,1.0379,0.9712,1.1092,1.1935,1.2438,1.2559,1.4344,1.5494,1.4633,1.596,1.7207,1.7555,1.9078,2.0134,2.004,2.1456,2.2331,2.193,2.2505,2.2893,2.2893,2.2893,2.2893,2.2893,2.2893,2.2893,2.2893,2.2893,2.2893,2.2893,2.3166,2.302,2.2418,2.2055,2.0721,1.8464,1.7418,1.5803,1.3777,1.3363,1.2958,1.2501,1.2501,1.2501,1.2501,1.2501,1.2501,1.2501,1.2501,1.2596,1.2713,1.2948,1.3098,1.3241,1.3349,1.3403,1.3403,1.3403,1.3403,1.3403,1.3403,1.3403,1.3403,1.3403,1.3403,1.3403,1.3403,1.3403,1.3403,1.3403,1.3403,1.3403,1.3403,1.3403,1.3403,1.3403,1.3403,1.3403,1.3403,1.3498,1.3545,1.3585,1.3824,1.3994,1.4105,1.4177,1.4265,1.4299,1.4299,1.4299,1.4299,1.4299,1.4299,1.4299,1.4299,1.4299,1.4299,1.4299,1.4299,1.4299,1.4299,1.4299,1.4299,1.4299,1.436,1.1387,1.2069,1.2793,1.1838,1.1239,1.0912,1.094,0.995,0.9525,1.1303,1.1922,1.231,1.2912,1.4263,1.5186,1.4839,1.5789,1.6981,1.8223,1.9386,2.0043,1.9853,2.0712,2.1315,2.1381,2.2305,2.2893,2.2893,2.2893,2.2893,2.2893,2.2893,2.2893,2.2893,2.2893,2.2893,2.2893,2.2177,2.1509,2.0894,2.005,1.8521,1.6385,1.5783,1.4649,1.3163,1.2403,1.225,1.2481,1.221,1.2257,1.2501,1.2501,1.2501,1.2501,1.2501,1.2644,1.2847,1.2975,1.3139,1.3288,1.3376,1.3403,1.3403,1.3403,1.3403,1.3403,1.3403,1.3403,1.3403,1.3403,1.3403,1.3403,1.3403,1.3403,1.3403,1.3403,1.3403,1.3403,1.3403,1.3403,1.3403,1.3403,1.3403,1.3403,1.3403,1.3532,1.3612,1.3673,1.3926,1.4139,1.417,1.4251,1.4299,1.4299,1.4299,1.4299,1.4299,1.4299,1.4299,1.4299,1.4299,1.4299,1.4299,1.4299,1.4299,1.4299,1.4299,1.4299,1.4299,1.4367,1.4434,1.0818,1.1617,1.2311,1.1253,1.0811,1.0697,1.0959,0.9886,0.9418,1.1406,1.2064,1.2516,1.3219,1.4263,1.495,1.4674,1.5515,1.6862,1.8731,1.9359,1.9629,1.9535,1.9762,2.0271,2.1096,2.2224,2.2893,2.2893,2.2893,2.2893,2.2893,2.2893,2.2893,2.2893,2.2619,2.2469,2.2469,2.0894,1.9731,1.9031,1.7934,1.6343,1.4292,1.4819,1.4099,1.2474,0.0,0.0,1.2461,1.1959,1.2047,1.2501,1.2501,1.2501,1.2501,1.2501,1.2698,1.3009,1.305,1.3193,1.3403,1.3403,1.3403,1.3403,1.3403,1.3403,1.3403,1.3403,1.3403,1.3403,1.3403,1.3403,1.3403,1.3403,1.3403,1.3403,1.3403,1.3403,1.3403,1.3403,1.3403,1.3403,1.3403,1.3403,1.341,1.3431,1.3524,1.3673,1.3815,1.4014,1.4156,1.4285,1.4299,1.4299,1.4299,1.4299,1.4299,1.4299,1.4299,1.4299,1.4299,1.4299,1.4299,1.4299,1.4299,1.4299,1.4299,1.4299,1.4312,1.4333,1.4455,1.4536,1.0311,1.0702,1.1032,1.101,1.0216,0.9722,1.076,1.0032,1.0003,1.3053,1.3908,1.4442,1.5548,1.7675,1.8383,1.5698,1.6847,1.837,1.9214,2.0187,2.0655,2.013,2.1416,2.2144,2.1569,2.2358,2.2893,2.2893,2.2893,2.2893,2.2893,2.2893,2.2893,2.2893,2.1355,2.0513,2.0513,2.0236,1.8868,1.6455,1.5702,1.4803,1.3706,1.3199,1.2804,1.2494,0.0,1.242,1.2494,1.24,1.242,1.2501,1.2501,1.2501,1.2501,1.2501,1.2698,1.3037,1.3247,1.3363,1.3403,1.3403,1.3403,1.3403,1.3403,1.3403,1.3403,1.3403,1.3403,1.3403,1.3403,1.3403,1.3403,1.3403,1.3403,1.3403,1.3403,1.3403,1.3403,1.3403,1.3403,1.3403,1.3403,1.3403,1.3444,1.3531,1.3673,1.3822,1.4014,1.417,1.4272,1.4299,1.4299,1.4299,1.4299,1.4299,1.4299,1.4299,1.4299,1.4299,1.4299,1.4299,1.4299,1.4299,1.4299,1.4299,1.4299,1.4299,1.436,1.4482,1.4502,1.4652,0.9976,1.0258,1.0755,1.1906,1.0926,1.0363,1.2993,1.1566,1.0792,1.4696,1.4082,1.3547,1.5869,1.6913,1.7315,1.7101,1.9065,2.0548,2.0334,2.0775,2.1015,2.0704,2.1416,2.175,2.1381,2.2291,2.2893,2.2893,2.2893,2.2482,2.1424,2.2332,2.1953,1.9877,1.9982,1.9101,1.7037,1.7027,1.6225,1.4598,1.3785,1.2997,1.2326,1.2459,1.2501,1.2481,0.0,1.221,1.2474,1.2155,1.2216,1.2501,1.2501,1.2501,1.2522,1.2691,1.288,1.3043,1.3302,1.3403,1.3403,1.3403,1.3403,1.3403,1.3403,1.3403,1.3403,1.3403,1.3403,1.3403,1.3403,1.3403,1.3403,1.3403,1.3403,1.3403,1.3403,1.3403,1.3403,1.3403,1.3403,1.3403,1.3403,1.3403,1.3451,1.3565,1.3707,1.3856,1.4055,1.4204,1.4299,1.4299,1.4299,1.4299,1.4299,1.4299,1.4299,1.4299,1.4299,1.4299,1.4299,1.4299,1.4299,1.4299,1.4299,1.4299,1.4299,1.438,1.4448,1.4516,1.4685,1.4835,0.959,0.984,1.0494,1.2425,1.1436,1.1019,1.4914,1.29,1.1476,1.5899,1.4482,1.334,1.6364,1.6257,1.6431,1.8637,2.0695,2.1897,2.1563,2.1523,2.1523,2.1523,2.1523,2.1523,2.1523,2.2372,2.2893,2.2893,2.2482,2.1631,2.0167,2.1032,2.0224,1.7283,1.8229,1.7353,1.4432,1.397,1.3526,1.3059,1.241,1.186,1.1431,1.2155,1.2501,1.2474,1.2026,1.2081,1.2467,1.2013,1.2094,1.2501,1.2501,1.2501,1.2542,1.2887,1.3003,1.3043,1.3302,1.3403,1.3403,1.3403,1.3403,1.3403,1.3403,1.3403,1.3403,1.3403,1.3403,1.3403,1.3403,1.3403,1.3403,1.3403,1.3403,1.3403,1.3403,1.3403,1.3403,1.3403,1.3403,1.3403,1.3403,1.3431,1.3505,1.3612,1.3761,1.3953,1.4102,1.4231,1.4299,1.4299,1.4299,1.4299,1.4299,1.4299,1.4299,1.4299,1.4299,1.4299,1.4299,1.4299,1.4299,1.4299,1.4299,1.4299,1.4299,1.4441,1.4529,1.457,1.4841,1.5037,0.9018,0.926,0.9716,1.1538,1.0851,1.0782,1.4874,1.308,1.1819,1.6254,1.6259,1.6142,1.8303,1.8196,1.8397,2.0258,2.0712,2.1288,2.2586,2.2773,2.2773,2.2773,2.2773,2.2773,2.2773,2.284,2.2893,2.2893,2.1286,2.0236,2.0097,1.8519,1.7493,1.7213,1.5663,1.4681,1.4397,1.2674,1.1772,1.1737,1.1971,1.2077,1.2043,1.2345,1.2501,1.2501,1.2454,1.2461,1.2501,1.2454,1.2461,1.2501,1.2501,1.2501,1.2542,1.2887,1.3003,1.3043,1.3302,1.3403,1.3403,1.3403,1.3403,1.3403,1.3403,1.3403,1.3403,1.3403,1.3403,1.3403,1.3403,1.3403,1.3403,1.3403,1.3403,1.3403,1.3403,1.3403,1.3403,1.3403,1.3403,1.3403,1.3403,1.3519,1.3619,1.3761,1.3953,1.4109,1.4265,1.4292,1.4299,1.4299,1.4299,1.4299,1.4299,1.4299,1.4299,1.4299,1.4299,1.4299,1.4299,1.4299,1.4299,1.4299,1.4299,1.4299,1.4299,1.4441,1.4539,1.4681,1.4896,1.5085,0.8818,0.9071,0.9817,1.2326,1.1614,1.132,1.5431,1.4327,1.366,1.7956,1.7221,1.6155,1.7328,1.8704,1.9893,2.0592,2.1475,2.2265,2.2813,2.2893,2.2893,2.2893,2.2893,2.2893,2.2893,2.2893,2.24,2.1252,2.0513,1.9066,1.6685,1.6967,1.6131,1.3808,1.4156,1.3836,1.2674,1.1936,1.1624,1.1719,1.1965,1.2145,1.221,1.2413,1.2501,1.2501,1.2501,1.2501,1.2501,1.2501,1.2501,1.2501,1.2501,1.2501,1.2542,1.2887,1.3003,1.3043,1.3302,1.3403,1.3403,1.3403,1.3403,1.3403,1.3403,1.3403,1.3403,1.3403,1.3403,1.3403,1.3403,1.3403,1.3403,1.3403,1.3403,1.3403,1.3403,1.3403,1.3403,1.3403,1.3403,1.3403,1.3403,1.3526,1.3632,1.3774,1.3973,1.4173,1.4278,1.4299,1.4299,1.4299,1.4299,1.4299,1.4299,1.4299,1.4299,1.4299,1.4299,1.4299,1.4299,1.4299,1.4299,1.4299,1.4299,1.4346,1.4434,1.4584,1.4687,1.4889,1.5031,1.5133,0.8724,0.8991,0.983,1.242,1.1877,1.1832,1.6019,1.5301,1.4848,1.8731,1.8517,1.7702,1.7916,1.9452,2.0739,2.0802,2.1657,2.2465,2.284,2.2893,2.2688,2.2091,2.2022,2.2022,2.2022,2.2022,2.1493,2.0201,1.953,1.7774,1.4574,1.507,1.4263,1.1691,1.2853,1.2888,1.1619,1.1584,1.1714,1.1904,1.2013,1.2179,1.2298,1.2433,1.2501,1.2501,1.2501,1.2501,1.2501,1.2501,1.2501,1.2501,1.2501,1.2501,1.2542,1.2887,1.3003,1.3043,1.3302,1.3403,1.3403,1.3403,1.3403,1.3403,1.3403,1.3403,1.3403,1.3403,1.3403,1.3403,1.3403,1.3403,1.3403,1.3403,1.3403,1.3403,1.3403,1.3403,1.3403,1.3403,1.3403,1.3403,1.3403,1.3566,1.3687,1.3781,1.4014,1.4183,1.4285,1.4299,1.4299,1.4299,1.4299,1.4299,1.4299,1.4299,1.4299,1.4299,1.4299,1.4299,1.4299,1.4299,1.4299,1.4299,1.4299,1.4373,1.4509,1.462,1.4821,1.5023,1.512,1.5181,0.8751,0.9004,0.9644,1.1453,1.1467,1.2189,1.6553,1.5789,1.503,1.8236,2.0334,2.1395,2.0806,2.0712,2.0788,2.1069,2.1122,2.1537,2.2733,2.2893,2.2194,2.0305,2.0086,2.0063,2.0063,2.0063,2.0051,2.0051,1.8264,1.6333,1.4468,1.2602,1.1584,1.1584,1.1584,1.1584,1.1584,1.1584,1.1769,1.2098,1.2098,1.2179,1.2298,1.244,1.2501,1.2501,1.2501,1.2501,1.2501,1.2501,1.2501,1.2501,1.2501,1.2501,1.2542,1.2887,1.3003,1.3043,1.3295,1.3397,1.3403,1.3403,1.3403,1.3403,1.3403,1.3403,1.3403,1.3403,1.3403,1.3403,1.3403,1.3403,1.3403,1.3403,1.3403,1.3403,1.3403,1.3403,1.3403,1.3403,1.3403,1.3403,1.3403,1.3605,1.3795,1.3795,1.4102,1.4299,1.4299,1.4299,1.4299,1.4299,1.4299,1.4299,1.4299,1.4299,1.4299,1.4299,1.4299,1.4299,1.4299,1.4299,1.4299,1.4299,1.4299,1.4373,1.4516,1.462,1.4821,1.5023,1.512,1.5181,1.0047,1.01,1.0219,1.1784,1.2698,1.3648,1.5374,1.5855,1.6673,1.9276,2.0588,2.0935,1.9963,2.1141,2.201,2.1229,2.1804,2.2492,2.2853,2.1769,2.0721,2.0167,1.8903,1.8054,1.8054,1.8054,1.7493,1.6192,1.5557,1.4397,1.2538,1.19,1.1584,1.1584,1.1584,1.1584,1.1584,1.1678,1.1864,1.2098,1.2207,1.2298,1.244,1.2481,1.2501,1.2501,1.2501,1.2501,1.2501,1.2501,1.2501,1.2501,1.2501,1.2501,1.2528,1.2725,1.2868,1.303,1.3214,1.3308,1.3403,1.3403,1.3403,1.3403,1.3403,1.3403,1.3403,1.3403,1.3403,1.3403,1.3403,1.3403,1.3403,1.3403,1.3403,1.3403,1.3403,1.3403,1.3403,1.3403,1.3403,1.3403,1.3403,1.3605,1.3795,1.3795,1.4102,1.4299,1.4299,1.4299,1.4299,1.4299,1.4299,1.4299,1.4299,1.4299,1.4299,1.4299,1.4299,1.4299,1.4299,1.4299,1.4299,1.4299,1.4401,1.4523,1.4626,1.4828,1.4977,1.512,1.516,1.5181,1.0889,1.0995,1.1369,1.3675,1.4242,1.4603,1.5899,1.6702,1.7916,2.0384,2.1296,2.1456,2.09,2.1943,2.2415,2.0943,2.1302,2.1527,2.0756,1.9669,1.8648,1.7914,1.6791,1.6087,1.6087,1.6087,1.5628,1.4503,1.4397,1.3587,1.1691,1.1584,1.1584,1.1584,1.1584,1.1584,1.1584,1.1726,1.1911,1.2098,1.2254,1.2366,1.2501,1.2501,1.2501,1.2501,1.2501,1.2501,1.2501,1.2501,1.2501,1.2501,1.2501,1.2501,1.2522,1.2632,1.2827,1.3023,1.3166,1.3275,1.3403,1.3403,1.3403,1.3403,1.3403,1.3403,1.3403,1.3403,1.3403,1.3403,1.3403,1.3403,1.3403,1.3403,1.3403,1.3403,1.3403,1.3403,1.3403,1.3403,1.3403,1.3417,1.3485,1.3646,1.3822,1.3926,1.4143,1.4299,1.4299,1.4299,1.4299,1.4299,1.4299,1.4299,1.4299,1.4299,1.4299,1.4299,1.4299,1.4299,1.4299,1.4299,1.4299,1.4299,1.4441,1.4584,1.4694,1.4896,1.5091,1.5181,1.5181,1.5181,1.1499,1.1784,1.277,1.6067,1.5735,1.5234,1.7769,1.8249,1.8943,2.151,2.2191,2.2445,2.2827,2.2756,2.2091,2.0375,1.9947,1.9217,1.7458,1.7037,1.6298,1.461,1.4255,1.4148,1.4148,1.4148,1.4148,1.4148,1.4148,1.3416,1.1691,1.1584,1.1584,1.1584,1.1584,1.1626,1.1604,1.1746,1.1932,1.2125,1.2237,1.2379,1.2501,1.2501,1.2501,1.2501,1.2501,1.2501,1.2501,1.2501,1.2501,1.2501,1.2501,1.2501,1.2522,1.2657,1.2813,1.3016,1.3152,1.3261,1.3403,1.3403,1.3403,1.3403,1.3403,1.3403,1.3403,1.3403,1.3403,1.3403,1.3403,1.3403,1.3403,1.3403,1.3403,1.3403,1.3403,1.3403,1.3403,1.3403,1.3403,1.3451,1.3558,1.3707,1.3856,1.4112,1.4211,1.4299,1.4299,1.4299,1.4299,1.4299,1.4299,1.4299,1.4299,1.4299,1.4299,1.4299,1.4299,1.4299,1.4299,1.4299,1.4299,1.4299,1.4455,1.4604,1.4694,1.4909,1.5059,1.5181,1.5181,1.5181,1.2734,1.2866,1.2891,1.4082,1.4781,1.6192,1.9977,2.0267,2.0224,2.1977,2.2004,2.1997,2.276,2.17,2.0583,2.0167,1.8833,1.7669,1.7248,1.591,1.4858,1.4468,1.3095,1.218,1.218,1.218,1.218,1.218,1.218,1.2043,1.1619,1.1584,1.1584,1.1584,1.1584,1.1638,1.1746,1.1938,1.2125,1.2244,1.2386,1.2474,1.2501,1.2501,1.2501,1.2501,1.2501,1.2501,1.2501,1.2501,1.2501,1.2501,1.2501,1.2501,1.2508,1.2535,1.2725,1.3003,1.3037,1.322,1.3403,1.3403,1.3403,1.3403,1.3403,1.3403,1.3403,1.3403,1.3403,1.3403,1.3403,1.3403,1.3403,1.3403,1.3403,1.3403,1.3403,1.3403,1.3403,1.3403,1.3403,1.3451,1.3558,1.3707,1.3889,1.4211,1.4278,1.4299,1.4299,1.4299,1.4299,1.4299,1.4299,1.4299,1.4299,1.4299,1.4299,1.4299,1.4299,1.4299,1.4299,1.4299,1.4299,1.4299,1.4557,1.466,1.4694,1.5004,1.5153,1.5181,1.5181,1.5181,1.2233,1.2973,1.3635,1.4484,1.5791,1.7129,1.8115,1.8406,1.8747,1.9697,2.1154,2.2077,2.1658,2.0756,1.9495,1.7669,1.6509,1.5557,1.4654,1.3666,1.3059,1.3059,1.218,1.1584,1.1584,1.1584,1.1584,1.1584,1.1584,1.1584,1.1584,1.1584,1.1584,1.1584,1.1584,1.1651,1.1793,1.1986,1.2179,1.2291,1.2433,1.2501,1.2501,1.2501,1.2501,1.2501,1.2501,1.2501,1.2501,1.2501,1.2501,1.2501,1.2501,1.2501,1.2501,1.2501,1.2698,1.3003,1.3003,1.3193,1.3403,1.3403,1.3403,1.3403,1.3403,1.3403,1.3403,1.3403,1.3403,1.3403,1.3403,1.3403,1.3403,1.3403,1.3403,1.3403,1.3403,1.3403,1.3403,1.3403,1.3403,1.3471,1.3653,1.3869,1.4116,1.4278,1.4299,1.4299,1.4299,1.4299,1.4299,1.4299,1.4299,1.4299,1.4299,1.4299,1.4299,1.4299,1.4299,1.4299,1.4299,1.4299,1.4333,1.4401,1.4579,1.4735,1.4848,1.5072,1.5181,1.5181,1.5181,1.5181,1.1232,1.2919,1.4712,1.565,1.6984,1.7536,1.5563,1.5804,1.6597,1.7092,1.9739,2.1459,1.9877,1.9321,1.8089,1.492,1.4112,1.3381,1.1828,1.1584,1.1584,1.1584,1.1584,1.1584,1.1584,1.1584,1.1584,1.1584,1.1584,1.1584,1.1584,1.1584,1.1584,1.1584,1.1584,1.1665,1.1834,1.2036,1.2186,1.2332,1.2447,1.2501,1.2501,1.2501,1.2501,1.2501,1.2501,1.2501,1.2501,1.2501,1.2501,1.2501,1.2501,1.2501,1.2501,1.2501,1.2678,1.2969,1.2989,1.318,1.3363,1.339,1.3403,1.3403,1.3403,1.3403,1.3403,1.3403,1.3403,1.3403,1.3403,1.3403,1.3403,1.3403,1.3403,1.3403,1.3403,1.3403,1.3403,1.3403,1.3444,1.3553,1.3754,1.4095,1.4299,1.4299,1.4299,1.4299,1.4299,1.4299,1.4299,1.4299,1.4299,1.4299,1.4299,1.4299,1.4299,1.4299,1.4299,1.4299,1.4299,1.4299,1.438,1.455,1.4626,1.4814,1.5017,1.5113,1.5181,1.5181,1.5181,1.5181,1.1179,1.3654,1.5973,1.5928,1.6077,1.6268,1.6342,1.6097,1.6071,1.6995,1.7599,1.7879,1.7634,1.6263,1.4991,1.4468,1.3024,1.19,1.1655,1.1584,1.1584,1.1584,1.1584,1.1584,1.1584,1.1584,1.1584,1.1584,1.1584,1.1584,1.1584,1.1584,1.1584,1.1584,1.1584,1.1755,1.2064,1.2091,1.2241,1.2474,1.2494,1.2501,1.2501,1.2501,1.2501,1.2501,1.2501,1.2501,1.2501,1.2501,1.2501,1.2501,1.2501,1.2501,1.2501,1.2501,1.261,1.2779,1.2955,1.3105,1.3268,1.3356,1.3403,1.3403,1.3403,1.3403,1.3403,1.3403,1.3403,1.3403,1.3403,1.3403,1.3403,1.3403,1.3403,1.3403,1.3403,1.3403,1.3403,1.3403,1.3607,1.3754,1.3788,1.4095,1.4299,1.4299,1.4299,1.4299,1.4299,1.4299,1.4299,1.4299,1.4299,1.4299,1.4299,1.4299,1.4299,1.4299,1.4299,1.4299,1.4299,1.4299,1.4428,1.466,1.4681,1.4814,1.5017,1.5113,1.5181,1.5181,1.5181,1.5181,1.1913,1.3207,1.4088,1.5148,1.4284,1.3262,1.3508,1.3111,1.2935,1.3862,1.4049,1.4369,1.546,1.4964,1.4041,1.2996,1.2151,1.1584,1.1584,1.1584,1.1584,1.1584,1.1584,1.1584,1.1584,1.1584,1.1584,1.1584,1.1584,1.1584,1.1584,1.1584,1.1584,1.1584,1.1584,1.1762,1.2098,1.2098,1.2247,1.2501,1.2501,1.2501,1.2501,1.2501,1.2501,1.2501,1.2501,1.2501,1.2501,1.2501,1.2501,1.2501,1.2501,1.2501,1.2501,1.2501,1.2596,1.2713,1.2948,1.3098,1.3241,1.3349,1.3403,1.3403,1.3403,1.3403,1.3403,1.3403,1.3403,1.3403,1.3403,1.3403,1.3403,1.3403,1.3403,1.3403,1.3403,1.3403,1.3403,1.3403,1.3641,1.3795,1.3795,1.4095,1.4299,1.4299,1.4299,1.4299,1.4299,1.4299,1.4299,1.4299,1.4299,1.4299,1.4299,1.4299,1.4299,1.4299,1.4299,1.4299,1.4299,1.4299,1.4441,1.4687,1.4694,1.4855,1.5086,1.5153,1.5181,1.5181,1.5181,1.5181,1.193,1.2206,1.19,1.3722,1.251,1.0824,1.0647,1.0349,1.0297,1.1158,1.1484,1.2043,1.3416,1.3694,1.3238,1.1828,1.1584,1.1584,1.1584,1.1584,1.1584,1.1584,1.1584,1.1584,1.1584,1.1584,1.1584,1.1584,1.1584,1.1584,1.1584,1.1584,1.1584,1.1584,1.1584,1.1762,1.2098,1.2173,1.2284,1.2501,1.2501,1.2501,1.2501,1.2501,1.2501,1.2501,1.2501,1.2501,1.2501,1.2501,1.2501,1.2501,1.2501,1.2501,1.2501,1.2501,1.2576,1.2691,1.2847,1.3037,1.3186,1.3295,1.337,1.3403,1.3403,1.3403,1.3403,1.3403,1.3403,1.3403,1.3403,1.3403,1.3403,1.3403,1.3403,1.3403,1.3403,1.3403,1.3403,1.3403,1.3641,1.3795,1.3795,1.4095,1.4299,1.4299,1.4299,1.4299,1.4299,1.4299,1.4299,1.4299,1.4299,1.4299,1.4299,1.4299,1.4299,1.4299,1.4299,1.4299,1.4299,1.4299,1.4441,1.4687,1.4694,1.4836,1.5181,1.5181,1.5181,1.5181,1.5181,1.5181,1.0399,1.0716,1.0539,1.1613,1.1058,1.0024,0.9214,0.9245,0.9669,1.0392,1.1118,1.1619,1.1727,1.1763,1.1727,1.1619,1.1584,1.1584,1.1584,1.1584,1.1584,1.1584,1.1584,1.1584,1.1584,1.1584,1.1584,1.1584,1.1584,1.1584,1.1584,1.1584,1.1584,1.1584,1.1584,1.1762,1.2098,1.2338,1.2488,1.2501,1.2501,1.2501,1.2501,1.2501,1.2501,1.2501,1.2501,1.2501,1.2501,1.2501,1.2501,1.2501,1.2501,1.2501,1.2501,1.2501,1.2508,1.2535,1.2652,1.284,1.3037,1.318,1.3281,1.3403,1.3403,1.3403,1.3403,1.3403,1.3403,1.3403,1.3403,1.3403,1.3403,1.3403,1.3403,1.3403,1.3403,1.3403,1.3403,1.3403,1.3641,1.3795,1.3795,1.4095,1.4299,1.4299,1.4299,1.4299,1.4299,1.4299,1.4299,1.4299,1.4299,1.4299,1.4299,1.4299,1.4299,1.4299,1.4299,1.4299,1.4299,1.4299,1.4441,1.4687,1.4694,1.4836,1.5181,1.5181,1.5181,1.5181,1.5181,1.5181,0.9032,0.85,0.8015,1.0089,0.8983,0.7626,0.8562,0.8919,0.9224,0.9808,1.0751,1.1382,1.1097,1.1327,1.1584,1.1584,1.1584,1.1584,1.1584,1.1584,1.1584,1.1584,1.1584,1.1584,1.1584,1.1584,1.1584,1.1584,1.1225,1.1178,1.1563,1.1218,1.1185,1.1606,1.1584,1.1762,1.2098,1.2352,1.2501,1.2501,1.2501,1.2501,1.2501,1.2501,1.2501,1.2501,1.2501,1.2501,1.2501,1.2501,1.2501,1.2501,1.2501,1.2501,1.2501,1.2501,1.2501,1.2522,1.2638,1.2834,1.3023,1.3166,1.3275,1.3403,1.3403,1.3403,1.3403,1.3403,1.3403,1.3403,1.3403,1.3403,1.3403,1.3403,1.3403,1.3403,1.3403,1.3403,1.3403,1.3403,1.3641,1.3795,1.3795,1.4095,1.4299,1.4299,1.4299,1.4299,1.4299,1.4299,1.4299,1.4299,1.4299,1.4299,1.4299,1.4299,1.4299,1.4299,1.4299,1.4299,1.4299,1.4299,1.4441,1.4687,1.4694,1.4836,1.5181,1.5181,1.5181,1.5181,1.5181,1.5181,0.7616,0.6658,0.5969,0.8311,0.7332,0.6166,0.757,0.8405,0.9007,0.9381,1.0487,1.1314,1.1036,1.1313,1.1584,1.1584,1.1584,1.1584,1.1584,1.1584,1.1584,1.1584,1.1584,1.1584,1.1584,1.1584,1.1584,1.1584,1.1212,1.1199,1.1563,1.1205,1.1206,1.1606,1.1714,1.1864,1.2098,1.2352,1.2501,1.2501,1.2501,1.2501,1.2501,1.2501,1.2501,1.2501,1.2501,1.2501,1.2501,1.2501,1.2501,1.2501,1.2501,1.2501,1.2501,1.2501,1.2501,1.2515,1.2617,1.2786,1.3016,1.3111,1.3234,1.3403,1.3403,1.3403,1.3403,1.3403,1.3403,1.3403,1.3403,1.3403,1.3403,1.3403,1.3403,1.3403,1.3403,1.3403,1.3403,1.3403,1.3641,1.3795,1.3795,1.4095,1.4299,1.4299,1.4299,1.4299,1.4299,1.4299,1.4299,1.4299,1.4299,1.4299,1.4299,1.4299,1.4299,1.4299,1.4299,1.4299,1.4299,1.4346,1.4489,1.4687,1.4794,1.4936,1.5181,1.5181,1.5181,1.5181,1.5181,1.5181,0.0,0.0,0.0,0.6227,0.62,0.5861,0.6211,0.7617,0.8906,0.9117,1.0342,1.1396,1.1558,1.1563,1.1613,1.1584,1.1584,1.1584,1.1584,1.1584,1.1584,1.1584,1.1584,1.1584,1.1584,1.1584,1.1584,1.1584,1.157,1.1563,1.1619,1.1584,1.1584,1.1584,1.1948,1.2098,1.2098,1.2352,1.2501,1.2501,1.2501,1.2501,1.2501,1.2501,1.2501,1.2501,1.2501,1.2501,1.2501,1.2501,1.2501,1.2501,1.2501,1.2501,1.2501,1.2501,1.2501,1.2501,1.2501,1.2705,1.3003,1.3003,1.3159,1.3403,1.3403,1.3403,1.3403,1.3403,1.3403,1.3403,1.3403,1.3403,1.3403,1.3403,1.3403,1.3403,1.3403,1.3403,1.3403,1.3403,1.3592,1.3795,1.3795,1.4089,1.4292,1.4299,1.4299,1.4299,1.4299,1.4299,1.4299,1.4299,1.4299,1.4299,1.4299,1.4299,1.4299,1.4299,1.4299,1.4299,1.4299,1.4434,1.4539,1.4687,1.4896,1.5085,1.5181,1.5181,1.5181,1.5181,1.5181,1.5181,0.4657,0.0,0.0,0.0,0.0,0.0,0.5833,0.6796,0.7749,0.8223,0.9367,1.0365,1.0738,1.1158,1.1491,1.1563,1.1584,1.1584,1.1584,1.1584,1.1584,1.1584,1.1584,1.1584,1.1584,1.1584,1.1584,0.0,1.1212,1.1124,1.1599,1.1584,1.1584,1.1584,1.1948,1.2098,1.2098,1.2352,1.2501,1.2501,1.2501,1.2501,1.2501,1.2501,1.2501,1.2501,1.2501,1.2501,1.2501,1.2501,1.2501,1.2501,1.2501,1.2501,1.2501,1.2501,1.2501,1.2501,1.2501,1.2705,1.3003,1.3003,1.3159,1.3403,1.3403,1.3403,1.3403,1.3403,1.3403,1.3403,1.3403,1.3403,1.3403,1.3403,1.3403,1.3403,1.3403,1.3403,1.3403,1.3403,1.3553,1.368,1.3781,1.4,1.417,1.4285,1.4299,1.4299,1.4299,1.4299,1.4299,1.4299,1.4299,1.4299,1.4299,1.4299,1.4299,1.4299,1.4299,1.4299,1.4299,1.4434,1.4539,1.4687,1.4896,1.5085,1.5181,1.5181,1.5181,1.5181,1.5181,1.5181,0.4187,0.4092,0.418,0.4592,0.0,0.0,0.5623,0.6702,0.7722,0.8196,0.9339,1.0285,1.0392,1.0738,1.1043,1.1138,1.1206,1.13,1.155,1.1584,1.1584,1.1584,1.1584,1.1584,1.1584,1.1584,1.1584,1.1584,1.1259,1.1212,1.1563,1.1584,1.1584,1.1584,1.1843,1.2036,1.2098,1.2298,1.244,1.2501,1.2501,1.2501,1.2501,1.2501,1.2501,1.2501,1.2501,1.2501,1.2501,1.2501,1.2501,1.2501,1.2501,1.2501,1.2501,1.2501,1.2501,1.2501,1.2501,1.2657,1.2874,1.2982,1.3159,1.3315,1.3383,1.3403,1.3403,1.3403,1.3403,1.3403,1.3403,1.3403,1.3403,1.3403,1.3403,1.3403,1.3403,1.3403,1.3403,1.3403,1.3526,1.3632,1.3774,1.3966,1.4166,1.4278,1.4299,1.4299,1.4299,1.4299,1.4299,1.4299,1.4299,1.4299,1.4299,1.4299,1.4299,1.4299,1.4299,1.4299,1.4299,1.4434,1.4539,1.4687,1.4896,1.5085,1.5181,1.5181,1.5181,1.5181,1.5181,1.5181,0.4317,0.4194,0.4274,0.4592,0.4875,0.0,0.5474,0.6838,0.8124,0.8459,0.9582,1.0427,1.0161,1.0209,1.0297,1.0317,1.046,1.0792,1.1394,1.1579,1.1592,1.1525,1.1543,1.1584,1.1584,1.1584,1.1584,1.1584,1.1584,1.1584,1.1584,1.1584,1.1584,1.1584,1.1719,1.1904,1.2098,1.221,1.2359,1.2501,1.2501,1.2501,1.2501,1.2501,1.2501,1.2501,1.2501,1.2501,1.2501,1.2501,1.2501,1.2501,1.2501,1.2501,1.2501,1.2501,1.2501,1.2501,1.2501,1.2603,1.2713,1.2908,1.3098,1.3241,1.3356,1.3403,1.3403,1.3403,1.3403,1.3403,1.3403,1.3403,1.3403,1.3403,1.3403,1.3403,1.3403,1.3403,1.3403,1.3403,1.3512,1.3612,1.3768,1.3953,1.4102,1.4272,1.4299,1.4299,1.4299,1.4299,1.4299,1.4299,1.4299,1.4299,1.4299,1.4299,1.4299,1.4299,1.4299,1.4299,1.4299,1.4434,1.4539,1.4687,1.4909,1.5059,1.5181,1.5181,1.5181,1.5181,1.5181,1.5181,0.4226,0.4194,0.4247,0.4477,0.4735,0.0,0.5166,0.5772,0.6505,0.7263,0.778,0.8262,0.8899,0.9035,0.9096,0.919,0.9469,0.9937,1.0778,1.1279,1.1401,1.0921,1.1286,1.1584,1.1584,1.1584,1.1584,1.1584,1.1584,1.1584,1.1584,1.1584,1.1584,1.1584,1.1719,1.1904,1.2098,1.221,1.2359,1.2501,1.2501,1.2501,1.2501,1.2501,1.2501,1.2501,1.2501,1.2501,1.2501,1.2501,1.2501,1.2501,1.2501,1.2501,1.2501,1.2501,1.2501,1.2501,1.2501,1.2603,1.2713,1.2908,1.3098,1.3241,1.3356,1.3403,1.3403,1.3403,1.3403,1.3403,1.3403,1.3403,1.3403,1.3403,1.3403,1.3403,1.3403,1.3403,1.3403,1.3403,1.3424,1.3532,1.3754,1.3822,1.398,1.4258,1.4299,1.4299,1.4299,1.4299,1.4299,1.4299,1.4299,1.4299,1.4299,1.4299,1.4299,1.4299,1.4299,1.4299,1.4299,1.4434,1.4539,1.4687,1.5004,1.5153,1.5181,1.5181,1.5181,1.5181,1.5181,1.5181,0.4362,0.4355,0.4389,0.4552,0.4708,0.0,0.0,0.565,0.6308,0.6891,0.7455,0.7913,0.8113,0.8214,0.8263,0.8338,0.8541,0.8838,0.9291,1.038,1.1137,1.113,1.1436,1.1584,1.1584,1.1584,1.1584,1.1584,1.1584,1.1584,1.1584,1.1584,1.1584,1.1584,1.1651,1.1837,1.2098,1.2173,1.2284,1.2501,1.2501,1.2501,1.2501,1.2501,1.2501,1.2501,1.2501,1.2501,1.2501,1.2501,1.2501,1.2501,1.2501,1.2501,1.2501,1.2501,1.2501,1.2501,1.2501,1.2556,1.2657,1.2928,1.305,1.3152,1.3336,1.3403,1.3403,1.3403,1.3403,1.3403,1.3403,1.3403,1.3403,1.3403,1.3403,1.3403,1.3403,1.3403,1.3403,1.3403,1.3403,1.3492,1.3747,1.3795,1.3903,1.4251,1.4299,1.4299,1.4299,1.4299,1.4299,1.4299,1.4299,1.4299,1.4299,1.4299,1.4299,1.4299,1.4299,1.4299,1.4299,1.4367,1.4509,1.4687,1.5031,1.5181,1.5181,1.5181,1.5181,1.5181,1.5181,1.5181,0.4662,0.46,0.46,0.4681,0.4714,0.4796,0.0,0.0,0.0,0.6627,0.7312,0.7763,0.74,0.7434,0.7482,0.7394,0.7587,0.777,0.7797,0.9169,1.0373,1.0948,1.113,1.1239,1.1239,1.134,1.1455,1.1577,1.1584,1.1584,1.1584,1.1584,1.1584,1.1584,1.1584,1.1748,1.205,1.2084,1.2234,1.2461,1.2488,1.2501,1.2501,1.2501,1.2501,1.2501,1.2501,1.2501,1.2501,1.2501,1.2501,1.2501,1.2501,1.2501,1.2501,1.2501,1.2501,1.2501,1.2501,1.2501,1.2556,1.2901,1.3037,1.3132,1.3329,1.3403,1.3403,1.3403,1.3403,1.3403,1.3403,1.3403,1.3403,1.3403,1.3403,1.3403,1.3403,1.3403,1.3403,1.3403,1.3403,1.3492,1.3747,1.3795,1.3903,1.4251,1.4299,1.4299,1.4299,1.4299,1.4299,1.4299,1.4299,1.4299,1.4299,1.4299,1.4299,1.4299,1.4299,1.4299,1.4299,1.4326,1.4468,1.4687,1.5004,1.5153,1.5181,1.5181,1.5181,1.5181,1.5181,1.5181,0.5078,0.495,0.4821,0.4721,0.4796,0.4889,0.4923,0.0,0.5603,0.5867,0.0,0.6289,0.6416,0.0,0.0,0.5926,0.641,0.6898,0.7012,0.7776,0.8439,0.8798,0.9544,0.9994,0.9994,1.0475,1.1009,1.1543,1.1584,1.1584,1.1584,1.1584,1.1584,1.1584,1.1584,1.1694,1.182,1.1993,1.2186,1.2318,1.244,1.2501,1.2501,1.2501,1.2501,1.2501,1.2501,1.2501,1.2501,1.2501,1.2501,1.2501,1.2501,1.2501,1.2501,1.2501,1.2501,1.2501,1.2501,1.2501,1.2556,1.2901,1.318,1.3356,1.339,1.3403,1.3403,1.3403,1.3403,1.3403,1.3403,1.3403,1.3403,1.3403,1.3403,1.3403,1.3403,1.3403,1.3403,1.3403,1.3403,1.3492,1.3747,1.3795,1.3903,1.4251,1.4299,1.4299,1.4299,1.4299,1.4299,1.4299,1.4299,1.4299,1.4299,1.4299,1.4299,1.4299,1.4299,1.4299,1.4299,1.4421,1.457,1.4687,1.4909,1.5059,1.5181,1.5181,1.5181,1.5181,1.5181,1.5181,0.5833,0.5867,0.5827,0.0,0.0,0.0,0.5935,0.0,0.5573,0.0,0.0,0.0,0.0,0.0,0.0,0.0,0.626,0.6491,0.6552,0.6959,0.7607,0.8601,0.9232,0.9768,1.0258,1.0224,1.0414,1.1016,1.1063,1.1063,1.1063,1.1394,1.1584,1.1584,1.1584,1.1651,1.1793,1.1986,1.2179,1.2291,1.2433,1.2501,1.2501,1.2501,1.2501,1.2501,1.2501,1.2501,1.2501,1.2501,1.2501,1.2501,1.2501,1.2501,1.2501,1.2501,1.2501,1.2501,1.2501,1.2501,1.2556,1.2901,1.3159,1.3403,1.3403,1.3403,1.3403,1.3403,1.3403,1.3403,1.3403,1.3403,1.3403,1.3403,1.3403,1.3403,1.3403,1.3403,1.3403,1.3403,1.3471,1.36,1.3761,1.3795,1.3903,1.4251,1.4299,1.4299,1.4299,1.4299,1.4299,1.4299,1.4299,1.4299,1.4299,1.4299,1.4299,1.4299,1.4299,1.4299,1.4299,1.4523,1.4626,1.4694,1.497,1.512,1.5181,1.5181,1.5181,1.5181,1.5181,1.5181,0.6927,0.0,0.0,0.0,0.0,0.0,0.0,0.0,0.0,0.0,0.5849,0.0,0.0,0.0,0.0,0.0,0.0,0.6259,0.6136,0.6389,0.7014,0.8162,0.8804,0.9374,0.9992,0.9879,0.9954,1.0385,1.0609,1.0684,1.0684,1.1259,1.1584,1.1584,1.1584,1.1631,1.1739,1.1965,1.2159,1.2268,1.2413,1.2501,1.2501,1.2501,1.2501,1.2501,1.2501,1.2501,1.2501,1.2501,1.2501,1.2501,1.2501,1.2501,1.2501,1.2501,1.2501,1.2501,1.2501,1.2556,1.2664,1.2928,1.3159,1.3403,1.3403,1.3403,1.3403,1.3403,1.3403,1.3403,1.3403,1.3403,1.3403,1.3403,1.3403,1.3403,1.3403,1.3403,1.3403,1.3403,1.3526,1.3632,1.3774,1.3835,1.3994,1.4258,1.4299,1.4299,1.4299,1.4299,1.4299,1.4299,1.4299,1.4299,1.4299,1.4299,1.4299,1.4299,1.4299,1.4299,1.4299,1.4509,1.4613,1.4694,1.495,1.5099,1.5181,1.5181,1.5181,1.5181,1.5181,1.5181,0.0,0.0,0.0,0.6919,0.0,0.0,0.0,0.0,0.5671,0.0,0.0,0.0,0.0,0.0,0.0,0.0,0.0,0.0,0.0,0.6015,0.6416,0.6729,0.7801,0.8492,0.8389,0.9239,0.9744,0.9652,1.031,1.0684,1.0684,1.1259,1.1584,1.1584,1.1584,1.1584,1.1626,1.1918,1.2098,1.2111,1.2366,1.2501,1.2501,1.2501,1.2501,1.2501,1.2501,1.2501,1.2501,1.2501,1.2501,1.2501,1.2501,1.2501,1.2501,1.2501,1.2501,1.2501,1.2501,1.2698,1.2989,1.2996,1.3159,1.3403,1.3403,1.3403,1.3403,1.3403,1.3403,1.3403,1.3403,1.3403,1.3403,1.3403,1.3403,1.3403,1.3403,1.3403,1.3403,1.3403,1.3526,1.3632,1.3774,1.3966,1.4159,1.4278,1.4299,1.4299,1.4299,1.4299,1.4299,1.4299,1.4299,1.4299,1.4299,1.4299,1.4299,1.4299,1.4299,1.4299,1.4299,1.4306,1.4448,1.4687,1.4701,1.4896,1.5181,1.5181,1.5181,1.5181,1.5181,1.5181,0.0,0.0,0.9244,0.8838,0.0,0.0,0.0,0.0,0.0,0.0,0.0,0.0,0.0,0.0,0.0,0.0,0.0,0.0,0.0,0.6204,0.6334,0.6416,0.6961,0.7597,0.8362,0.8308,0.8472,0.9088,0.9278,0.9406,0.9508,1.0454,1.0988,1.0988,1.1374,1.1584,1.1584,1.1911,1.2098,1.2104,1.2359,1.2501,1.2501,1.2501,1.2501,1.2501,1.2501,1.2501,1.2501,1.2501,1.2501,1.2501,1.2501,1.2501,1.2501,1.2501,1.2501,1.2501,1.2501,1.2705,1.3003,1.3003,1.3159,1.3403,1.3403,1.3403,1.3403,1.3403,1.3403,1.3403,1.3403,1.3403,1.3403,1.3403,1.3403,1.3403,1.3403,1.3403,1.3403,1.3403,1.36,1.3741,1.3788,1.4055,1.4238,1.4292,1.4299,1.4299,1.4299,1.4299,1.4299,1.4299,1.4299,1.4299,1.4299,1.4299,1.4299,1.4299,1.4299,1.4299,1.4299,1.4387,1.4489,1.4584,1.4787,1.4943,1.5091,1.514,1.5181,1.5181,1.5181,1.5181,1.0431,1.0487,0.0,0.9961,0.9514,0.0,0.873,0.0,0.7219,0.0,0.0,0.0,0.0,0.0,0.0,0.0,0.0,0.0,0.0,0.63,0.63,0.63,0.6729,0.7217,0.7743,0.7791,0.7961,0.835,0.8608,0.8804,0.8906,1.0042,1.0684,1.0684,1.1307,1.1584,1.1584,1.1857,1.2043,1.2104,1.2311,1.2454,1.2501,1.2501,1.2501,1.2501,1.2501,1.2501,1.2501,1.2501,1.2501,1.2501,1.2501,1.2501,1.2501,1.2501,1.2501,1.2501,1.2501,1.2705,1.3003,1.3003,1.3159,1.3403,1.3403,1.3403,1.3403,1.3403,1.3403,1.3403,1.3403,1.3403,1.3403,1.3403,1.3403,1.3403,1.3403,1.3403,1.3403,1.3403,1.3641,1.3795,1.3795,1.4095,1.4299,1.4299,1.4299,1.4299,1.4299,1.4299,1.4299,1.4299,1.4299,1.4299,1.4299,1.4299,1.4299,1.4299,1.4299,1.4299,1.4299,1.4387,1.4482,1.459,1.4733,1.4889,1.5091,1.5086,1.5133,1.5181,1.5181,1.5181]},{"header":{"parameterUnit":"m.s-1","parameterCategory":1,"la1":30.6,"la2":29.2853,"lo1":-89.7004,"lo2":-87.6739,"dy":0.0162,"dx":0.0183,"nx":112,"ny":82,"refTime":"2023-09-27T18:00:00:Z","depth":0,"parameterNumber":3,"parameterNumberName":"V-component_of_WINDS"},"data":[0.0,0.0,0.0,0.0,0.0,0.0,0.0,0.0,0.0,0.0,0.0,0.0,0.0,0.0,0.0,0.0,0.0,0.0,0.0,0.0,0.0,0.0,0.0,0.0,0.0,0.0,0.0,0.0,0.0,0.0,0.0,0.0,0.0,0.0,0.0,0.0,0.0,0.0,0.0,0.0,0.0,0.0,0.0,0.0,0.0,0.0,0.0,0.0,0.0,0.0,0.0,0.0,0.0,0.0,0.0,0.0,0.0,0.0,0.0,0.0,0.0,0.0,0.0,0.0,0.0,0.0,0.0,0.0,0.0,0.0,0.0,0.0,0.0,0.0,0.0,0.0,0.0,0.0,0.0,0.0,0.0,0.0,0.0,0.0,0.0,0.0,0.0,0.0,0.0,0.0,2.16,2.8568,3.2067,3.3845,3.3706,3.4126,3.2624,2.8492,0.0,0.0,0.0,0.0,0.0,0.0,0.0,0.0,0.0,0.0,0.0,0.0,0.0,0.0,0.0,0.0,0.0,0.0,0.0,0.0,0.0,0.0,0.0,0.0,0.0,0.0,0.0,0.0,0.0,0.0,0.0,0.0,0.0,0.0,0.0,0.0,0.0,0.0,0.0,0.0,0.0,0.0,0.0,0.0,0.0,0.0,0.0,0.0,0.0,0.0,0.0,0.0,0.0,0.0,0.0,0.0,0.0,0.0,0.0,0.0,0.0,0.0,0.0,0.0,0.0,0.0,0.0,0.0,0.0,0.0,0.0,0.0,0.0,0.0,0.0,0.0,0.0,0.0,0.0,0.0,0.0,0.0,0.0,0.0,0.0,0.0,0.0,0.0,0.0,0.0,0.0,0.0,0.0,0.0,0.0,0.0,0.0,0.0,0.0,0.0,0.0,0.0,0.0,0.0,2.7018,3.2327,3.3986,3.4535,3.4137,3.4175,3.2704,2.9074,0.0,0.0,0.0,0.0,0.0,0.0,0.0,0.0,0.0,0.0,0.0,0.0,0.0,0.0,0.0,0.0,0.0,0.0,0.0,0.0,0.0,0.0,0.0,0.0,0.0,0.0,0.0,0.0,0.0,0.0,0.0,0.0,0.0,0.0,0.0,0.0,0.0,0.0,0.0,0.0,0.0,0.0,0.0,0.0,0.0,0.0,0.0,0.0,0.0,0.0,0.0,0.0,0.0,0.0,0.0,0.0,0.0,0.0,0.0,0.0,0.0,0.0,0.0,0.0,0.0,0.0,0.0,0.0,0.0,0.0,0.0,0.0,0.0,0.0,0.0,0.0,0.0,0.0,0.0,0.0,0.0,0.0,0.0,0.0,0.0,0.0,0.0,0.0,0.0,0.0,0.0,0.0,0.0,0.0,0.0,0.0,0.0,0.0,0.0,0.0,0.0,0.0,0.0,2.6515,3.0914,3.4509,3.5017,3.5132,3.5123,3.5383,3.374,2.943,2.8861,0.0,0.0,0.0,0.0,0.0,0.0,0.0,0.0,0.0,0.0,0.0,0.0,0.0,0.0,0.0,0.0,0.0,0.0,0.0,0.0,0.0,0.0,0.0,0.0,0.0,0.0,0.0,0.0,0.0,0.0,0.0,0.0,0.0,0.0,0.0,0.0,0.0,0.0,0.0,0.0,0.0,0.0,0.0,0.0,0.0,0.0,0.0,0.0,0.0,0.0,0.0,0.0,0.0,0.0,0.0,0.0,0.0,0.0,0.0,0.0,0.0,0.0,0.0,0.0,0.0,0.0,0.0,0.0,0.0,0.0,0.0,0.0,0.0,0.0,0.0,0.0,0.0,0.0,0.0,0.0,0.0,0.0,0.0,0.0,0.0,0.0,0.0,0.0,0.0,0.0,0.0,0.0,0.0,0.0,0.0,0.0,0.0,0.0,0.0,0.0,0.0,0.0,2.9973,3.331,3.5981,3.6164,3.6195,3.6362,3.6762,3.4882,2.9942,2.9848,0.0,0.0,0.0,0.0,0.0,0.0,0.0,0.0,0.0,0.0,0.0,0.0,0.0,0.0,0.0,0.0,0.0,0.0,0.0,0.0,0.0,0.0,0.0,0.0,0.0,0.0,0.0,0.0,0.0,0.0,0.0,0.0,0.0,0.0,0.0,0.0,0.0,0.0,0.0,0.0,0.0,0.0,0.0,0.0,0.0,0.0,0.0,0.0,0.0,0.0,0.0,0.0,0.0,0.0,0.0,0.0,0.0,0.0,0.0,0.0,0.0,0.0,0.0,0.0,0.0,0.0,0.0,0.0,0.0,0.0,0.0,0.0,0.0,0.0,0.0,0.0,0.0,0.0,0.0,0.0,0.0,0.0,0.0,0.0,0.0,0.0,0.0,0.0,0.0,0.0,0.0,0.0,0.0,0.0,0.0,0.0,0.0,0.0,0.0,0.0,0.0,0.0,3.0972,3.3611,3.7014,3.8031,3.8267,3.7804,3.7796,3.5797,3.1018,3.0696,0.0,0.0,0.0,0.0,0.0,0.0,0.0,0.0,0.0,0.0,0.0,0.0,0.0,0.0,0.0,0.0,0.0,0.0,0.0,0.0,0.0,0.0,0.0,0.0,0.0,0.0,0.0,0.0,0.0,0.0,0.0,0.0,0.0,0.0,0.0,0.0,0.0,0.0,0.0,0.0,0.0,0.0,0.0,0.0,0.0,0.0,0.0,0.0,0.0,0.0,0.0,0.0,0.0,0.0,0.0,0.0,0.0,0.0,0.0,0.0,0.0,0.0,0.0,0.0,0.0,0.0,0.0,0.0,0.0,0.0,0.0,0.0,0.0,0.0,0.0,0.0,0.0,0.0,0.0,0.0,0.0,0.0,0.0,0.0,0.0,0.0,0.0,0.0,0.0,0.0,0.0,0.0,0.0,0.0,0.0,0.0,0.0,0.0,0.0,0.0,0.0,0.0,3.349,3.6198,3.8274,3.8966,3.9311,3.9382,3.8921,3.6759,3.2331,0.0,0.0,0.0,0.0,0.0,0.0,0.0,0.0,0.0,0.0,0.0,0.0,0.0,0.0,0.0,0.0,0.0,0.0,0.0,0.0,0.0,0.0,0.0,0.0,0.0,0.0,0.0,0.0,0.0,0.0,0.0,0.0,0.0,0.0,0.0,0.0,0.0,0.0,0.0,0.0,0.0,0.0,0.0,0.0,0.0,0.0,0.0,0.0,0.0,0.0,0.0,0.0,0.0,0.0,0.0,0.0,0.0,0.0,0.0,0.0,0.0,0.0,0.0,0.0,0.0,0.0,0.0,0.0,0.0,0.0,0.0,0.0,0.0,0.0,0.0,0.0,0.0,0.0,0.0,0.0,0.0,0.0,0.0,0.0,0.0,0.0,0.0,0.0,0.0,0.0,0.0,0.0,0.0,0.0,0.0,0.0,0.0,0.0,0.0,0.0,0.0,0.0,3.1785,3.5804,3.8806,3.9664,3.9923,4.0193,4.0535,4.0053,3.7904,3.3621,0.0,0.0,0.0,0.0,0.0,0.0,0.0,0.0,0.0,0.0,0.0,0.0,0.0,0.0,0.0,0.0,0.0,0.0,0.0,0.0,0.0,0.0,0.0,0.0,0.0,0.0,0.0,0.0,0.0,0.0,0.0,0.0,0.0,0.0,0.0,0.0,0.0,0.0,0.0,0.0,0.0,0.0,0.0,0.0,0.0,0.0,0.0,0.0,0.0,0.0,0.0,0.0,0.0,0.0,0.0,0.0,0.0,0.0,0.0,0.0,0.0,0.0,0.0,0.0,0.0,0.0,0.0,0.0,0.0,0.0,0.0,0.0,0.0,0.0,0.0,0.0,0.0,0.0,0.0,0.0,0.0,0.0,0.0,0.0,0.0,0.0,0.0,0.0,0.0,0.0,0.0,0.0,0.0,0.0,0.0,0.0,0.0,0.0,0.0,0.0,0.0,0.0,3.283,3.7689,4.1103,4.1103,4.1132,4.1132,4.1132,4.1132,3.9244,0.0,0.0,0.0,0.0,0.0,0.0,0.0,0.0,0.0,0.0,0.0,0.0,0.0,0.0,0.0,0.0,0.0,0.0,0.0,0.0,0.0,0.0,0.0,0.0,0.0,0.0,0.0,0.0,0.0,0.0,0.0,0.0,0.0,0.0,0.0,0.0,0.0,0.0,0.0,0.0,0.0,0.0,0.0,0.0,0.0,0.0,0.0,0.0,0.0,0.0,0.0,0.0,0.0,0.0,0.0,0.0,0.0,0.0,0.0,0.0,0.0,0.0,0.0,0.0,0.0,0.0,0.0,0.0,0.0,0.0,0.0,0.0,0.0,0.0,0.0,0.0,0.0,0.0,0.0,0.0,0.0,0.0,0.0,0.0,0.0,0.0,0.0,0.0,0.0,0.0,0.0,0.0,0.0,0.0,0.0,0.0,0.0,0.0,0.0,0.0,0.0,0.0,0.0,3.4208,3.8791,4.1956,4.1956,4.2433,4.2808,4.2808,4.2286,4.0312,3.6459,0.0,0.0,0.0,0.0,0.0,0.0,0.0,0.0,0.0,0.0,0.0,0.0,0.0,0.0,0.0,0.0,0.0,0.0,0.0,0.0,0.0,0.0,0.0,0.0,0.0,0.0,0.0,0.0,0.0,0.0,0.0,0.0,0.0,0.0,0.0,0.0,0.0,0.0,0.0,0.0,0.0,0.0,0.0,0.0,0.0,0.0,0.0,0.0,0.0,0.0,0.0,0.0,0.0,0.0,0.0,0.0,0.0,0.0,0.0,0.0,0.0,0.0,0.0,0.0,0.0,0.0,0.0,0.0,0.0,0.0,0.0,0.0,0.0,0.0,0.0,0.0,0.0,0.0,0.0,0.0,0.0,0.0,0.0,0.0,0.0,0.0,0.0,0.0,0.0,0.0,0.0,0.0,0.0,0.0,0.0,0.0,0.0,0.0,0.0,0.0,0.0,0.0,3.608,4.0338,4.3387,4.3718,4.4167,4.4461,4.4461,4.4011,4.2275,3.8769,0.0,0.0,0.0,0.0,0.0,0.0,0.0,0.0,0.0,0.0,0.0,0.0,0.0,0.0,0.0,0.0,0.0,0.0,0.0,0.0,0.0,0.0,0.0,0.0,0.0,0.0,0.0,0.0,0.0,0.0,0.0,0.0,0.0,0.0,0.0,0.0,0.0,0.0,0.0,0.0,0.0,0.0,0.0,0.0,0.0,0.0,0.0,0.0,0.0,0.0,0.0,0.0,0.0,0.0,0.0,0.0,0.0,0.0,0.0,0.0,0.0,0.0,0.0,0.0,0.0,0.0,0.0,0.0,0.0,0.0,0.0,0.0,0.0,0.0,0.0,0.0,0.0,0.0,0.0,0.0,0.0,0.0,0.0,0.0,0.0,0.0,0.0,0.0,0.0,0.0,0.0,0.0,0.0,0.0,0.0,0.0,0.0,0.0,0.0,0.0,0.0,0.0,3.8157,4.2118,4.5104,4.581,4.5883,4.5883,4.5883,4.5883,4.4599,4.1507,0.0,0.0,0.0,0.0,0.0,0.0,0.0,0.0,0.0,0.0,0.0,0.0,0.0,0.0,0.0,0.0,0.0,0.0,0.0,0.0,0.0,0.0,0.0,0.0,0.0,0.0,0.0,0.0,0.0,0.0,0.0,0.0,0.0,0.0,0.0,0.0,0.0,0.0,0.0,0.0,0.0,0.0,0.0,0.0,0.0,0.0,0.0,0.0,0.0,0.0,0.0,0.0,0.0,0.0,0.0,0.0,0.0,0.0,0.0,0.0,2.7038,0.0,0.0,0.0,0.0,0.0,0.0,0.0,0.0,0.0,0.0,0.0,0.0,0.0,0.0,0.0,0.0,0.0,0.0,0.0,0.0,0.0,0.0,0.0,0.0,0.0,0.0,0.0,0.0,0.0,0.0,0.0,0.0,0.0,0.0,0.0,0.0,0.0,0.0,0.0,0.0,0.0,3.9714,4.3277,4.57,4.5883,4.5883,4.5883,4.5883,4.5883,4.5085,4.3102,4.224,0.0,0.0,0.0,0.0,0.0,0.0,0.0,0.0,0.0,0.0,0.0,0.0,0.0,0.0,0.0,0.0,0.0,0.0,0.0,0.0,0.0,0.0,0.0,0.0,0.0,0.0,0.0,0.0,0.0,0.0,0.0,0.0,0.0,0.0,0.0,0.0,0.0,0.0,0.0,0.0,0.0,0.0,0.0,0.0,0.0,0.0,0.0,0.0,0.0,0.0,0.0,0.0,0.0,0.0,0.0,0.0,0.0,0.0,0.0,0.0,2.8222,0.0,0.0,0.0,0.0,0.0,0.0,0.0,0.0,0.0,0.0,0.0,0.0,0.0,0.0,0.0,0.0,0.0,0.0,0.0,0.0,0.0,0.0,0.0,0.0,0.0,0.0,0.0,0.0,0.0,0.0,0.0,0.0,0.0,0.0,0.0,0.0,0.0,0.0,0.0,0.0,4.1129,4.4327,4.6608,4.7021,4.7058,4.7058,4.7058,4.7058,4.6544,4.5296,4.4264,0.0,0.0,0.0,0.0,0.0,0.0,0.0,0.0,0.0,0.0,0.0,0.0,0.0,0.0,0.0,0.0,0.0,0.0,0.0,0.0,0.0,0.0,0.0,0.0,0.0,0.0,0.0,0.0,0.0,0.0,0.0,0.0,0.0,0.0,0.0,0.0,0.0,0.0,0.0,0.0,0.0,0.0,0.0,0.0,0.0,0.0,0.0,0.0,0.0,0.0,0.0,0.0,0.0,3.4641,3.5475,3.6761,3.6761,3.6434,3.5769,3.4144,3.367,3.3863,3.2161,0.0,0.0,0.0,0.0,0.0,0.0,0.0,0.0,0.0,0.0,0.0,0.0,0.0,0.0,0.0,0.0,0.0,0.0,0.0,0.0,0.0,0.0,0.0,0.0,3.7764,3.6548,3.6159,0.0,0.0,0.0,0.0,0.0,0.0,0.0,0.0,0.0,0.0,0.0,4.1987,4.514,4.7562,4.8223,4.8296,4.8296,4.8296,4.8296,4.8003,4.7333,4.6058,4.4856,0.0,0.0,0.0,0.0,0.0,0.0,0.0,0.0,0.0,0.0,0.0,0.0,0.0,0.0,0.0,0.0,0.0,0.0,0.0,0.0,0.0,0.0,0.0,0.0,0.0,0.0,0.0,0.0,0.0,0.0,0.0,0.0,2.032,2.333,0.0,0.0,0.0,0.0,0.0,0.0,0.0,0.0,0.0,0.0,0.0,0.0,0.0,3.3142,3.4416,3.6152,3.7449,3.8261,3.958,4.0595,4.1407,4.1407,4.1339,4.1149,3.9051,0.0,3.6378,3.6738,0.0,0.0,0.0,0.0,0.0,0.0,0.0,0.0,0.0,0.0,0.0,0.0,0.0,0.0,0.0,0.0,0.0,0.0,0.0,0.0,0.0,0.0,4.3248,4.451,4.2559,4.1103,0.0,3.8523,3.4256,3.7309,3.6159,0.0,0.0,0.0,0.0,0.0,0.0,0.0,4.1315,4.5287,4.8186,4.8296,4.8296,4.8296,4.8296,4.8296,4.826,4.815,4.7929,4.6828,4.4626,4.5874,0.0,0.0,0.0,0.0,0.0,0.0,0.0,0.0,0.0,0.0,0.0,0.0,0.0,0.0,0.0,0.0,0.0,0.0,0.0,0.0,0.0,0.0,0.0,0.0,0.0,0.0,0.0,0.0,0.0,2.1017,2.2924,2.5246,2.6571,2.6766,0.0,0.0,0.0,0.0,0.0,0.0,0.0,0.0,0.0,3.4596,3.5881,3.6874,3.7516,3.9411,4.0967,4.2164,4.2807,4.3721,4.4838,4.4838,4.4838,4.477,4.3822,4.301,4.2232,3.958,3.8768,3.9026,0.0,0.0,0.0,0.0,3.5103,3.5746,3.4573,3.6311,3.8936,3.8122,0.0,0.0,0.0,0.0,0.0,0.0,0.0,0.0,0.0,0.0,4.4856,4.6782,4.6168,4.5654,4.7581,4.3378,3.9673,0.0,3.9887,3.8636,3.8745,0.0,0.0,0.0,0.0,4.437,4.4471,4.7131,4.9187,4.9664,4.9691,4.9691,4.9691,4.9297,4.9013,4.9013,4.8563,4.7819,4.6755,4.7416,4.6535,0.0,0.0,0.0,0.0,0.0,0.0,0.0,0.0,0.0,0.0,0.0,0.0,0.0,0.0,0.0,0.0,0.0,0.0,0.0,0.0,0.0,0.0,0.0,0.0,0.0,0.0,0.0,0.0,2.4567,2.6128,2.816,3.0117,3.0659,0.0,0.0,0.0,0.0,0.0,0.0,3.481,3.605,3.7099,3.7877,3.9546,4.0608,4.098,4.2638,4.4025,4.5142,4.5142,4.5751,4.68,4.68,4.68,4.68,4.68,4.68,4.6481,4.2591,4.1204,4.1482,4.1089,4.0176,3.8971,3.8396,3.8531,3.886,3.7682,3.9503,4.2218,4.131,4.1828,4.2706,4.2078,0.0,0.0,0.0,0.0,4.2272,4.4346,4.5324,4.6348,4.8422,4.892,4.9114,4.9784,4.7177,4.4791,0.0,4.3579,4.2214,4.1796,0.0,0.0,0.0,4.4452,4.6581,4.6755,4.86,5.0151,5.0729,5.0802,5.0802,5.0802,5.0261,4.9894,4.9894,4.9297,4.892,4.892,4.892,4.8269,4.6884,0.0,0.0,0.0,0.0,0.0,0.0,0.0,0.0,0.0,0.0,0.0,0.0,0.0,0.0,0.0,0.0,0.0,0.0,0.0,0.0,0.0,0.0,0.0,0.0,0.0,0.0,0.0,0.0,0.0,3.2635,3.5656,0.0,0.0,0.0,0.0,3.5363,3.6096,3.7224,3.8645,3.9432,4.1191,4.4073,4.4262,4.4973,4.638,4.653,4.6631,4.6699,4.6699,4.6733,4.68,4.68,4.68,4.68,4.68,4.68,4.68,4.653,4.6007,4.5249,4.3829,4.2746,4.1813,3.9715,4.0257,4.2053,4.1928,4.3733,4.6212,4.6776,4.6106,4.4598,4.2235,4.2223,0.0,0.0,4.4805,4.7156,4.698,4.8708,5.0478,5.0645,5.0655,5.0692,5.0729,4.9324,4.8306,0.0,4.6709,4.5003,4.6489,0.0,4.6956,4.3836,4.6104,4.7645,4.614,4.8746,5.0765,5.0802,5.0802,5.0802,5.0802,5.0765,5.0729,5.0729,5.0692,5.0655,5.0655,5.0655,5.0288,4.9427,4.7865,0.0,0.0,0.0,0.0,0.0,0.0,0.0,0.0,0.0,0.0,0.0,0.0,0.0,0.0,0.0,0.0,0.0,0.0,0.0,0.0,0.0,0.0,0.0,0.0,0.0,0.0,0.0,0.0,3.5825,3.7652,0.0,3.7855,3.8722,3.9094,3.8531,4.054,4.2042,4.257,4.3741,4.4891,4.5988,4.6481,4.6989,4.7481,4.797,4.8443,4.8932,4.8932,4.9154,4.9627,4.9627,4.9627,4.9627,4.9627,4.9627,4.9627,4.9627,4.8376,4.6346,4.5805,4.5432,4.5108,4.433,4.4783,4.5826,4.5801,4.7044,4.8711,4.9351,4.923,4.864,4.7753,4.7763,4.8073,4.7959,4.8776,4.973,5.0138,5.0912,5.1683,5.2223,5.2333,5.248,5.3004,5.2223,5.1709,5.2527,4.9627,4.7195,4.7783,4.8994,4.915,4.6911,4.8489,4.9884,4.9821,5.0849,5.1756,5.2297,5.2333,5.2333,5.2333,5.1867,5.1573,5.1573,5.1096,5.0802,5.0802,5.0802,5.0655,5.0372,4.9774,4.7792,0.0,0.0,0.0,0.0,0.0,0.0,0.0,0.0,0.0,0.0,0.0,0.0,0.0,0.0,0.0,0.0,0.0,0.0,0.0,0.0,0.0,0.0,0.0,0.0,0.0,3.2623,3.5271,3.8292,3.9952,4.0878,4.0878,4.1779,4.2354,4.2367,4.4195,4.5447,4.5703,4.665,4.7394,4.7917,4.8376,4.8766,4.9003,4.951,4.9999,5.0473,5.0473,5.0744,5.1201,5.1201,5.0795,5.0135,5.1147,5.1185,5.0518,5.1562,5.0804,4.8994,4.8499,4.8143,4.7948,4.8214,4.8598,4.9008,4.9196,5.002,5.1035,5.1459,5.161,5.161,5.161,5.1783,5.2013,5.2013,5.2197,5.2527,5.3088,5.3198,5.3345,5.3885,5.3995,5.4179,5.4693,5.3739,5.3188,5.4546,5.2417,5.0105,4.9297,5.0288,5.0545,4.86,4.926,5.0141,5.0692,5.1473,5.2197,5.2747,5.3518,5.3995,5.3995,5.2784,5.2354,5.3162,5.194,5.1573,5.238,5.1646,5.0949,5.0398,4.8783,4.6728,4.4314,0.0,0.0,0.0,0.0,0.0,0.0,0.0,0.0,0.0,0.0,0.0,0.0,0.0,0.0,0.0,0.0,0.0,0.0,0.0,0.0,0.0,0.0,0.0,3.1845,3.5976,3.9377,4.0176,4.2875,4.4668,4.4702,4.5988,4.6819,4.6868,4.6902,4.7225,4.7921,4.7954,4.8597,5.0015,5.0083,5.0439,5.1167,5.1235,5.1269,5.1302,5.1302,5.1319,5.1385,5.1385,5.0216,4.8395,5.1302,5.1341,4.9527,5.2433,5.3659,5.3485,5.1975,5.0875,5.0314,5.1065,5.1363,5.1465,5.2018,5.268,5.3287,5.3287,5.3287,5.3287,5.3287,5.3801,5.4436,5.4436,5.4997,5.5622,5.5622,5.5658,5.5658,5.5658,5.5658,5.5695,5.5695,5.3896,5.2941,5.5291,5.5133,5.3812,5.1389,5.161,5.1289,4.8884,4.8517,0.0,4.8517,5.0618,5.2097,5.2097,5.4153,5.5548,5.5585,5.3419,5.3052,5.5438,5.3419,5.3162,5.5511,5.3345,5.1363,4.9831,4.5048,4.3754,4.6104,0.0,0.0,0.0,0.0,0.0,0.0,0.0,0.0,0.0,0.0,0.0,0.0,0.0,0.0,0.0,0.0,0.0,0.0,0.0,0.0,0.0,3.6061,3.8516,3.7831,3.9391,4.1474,4.3876,4.5365,4.6413,4.694,4.7346,4.7819,4.8342,4.8883,4.9271,4.9492,4.8984,4.8868,4.9289,4.983,5.0218,5.0405,5.2063,5.3145,5.3653,5.3653,5.4259,5.5343,5.5343,5.5362,5.5408,5.6232,5.6264,5.5729,5.6552,5.6908,5.6645,5.3935,5.2758,5.2574,5.279,5.322,5.3531,5.2448,5.3327,5.495,5.495,5.495,5.495,5.495,5.5108,5.5254,5.5254,5.5438,5.5732,5.6308,5.6455,5.6638,5.7189,5.7347,5.7483,5.8058,5.7691,5.7581,5.8841,5.8914,5.7813,5.4814,5.4447,5.4373,5.3712,5.3592,0.0,5.3592,5.419,5.4594,5.4594,5.4142,5.4326,5.5511,5.3922,5.3665,5.5475,5.4997,5.4924,5.5585,5.4961,5.441,5.3969,5.0922,4.9664,0.0,0.0,0.0,0.0,0.0,0.0,0.0,0.0,0.0,0.0,0.0,0.0,0.0,0.0,0.0,0.0,0.0,0.0,0.0,0.0,0.0,0.0,3.9276,4.2049,4.322,4.3727,4.464,4.6399,4.7564,4.8342,4.8781,4.9104,4.9442,4.9882,5.0338,5.071,5.1014,5.0608,5.0371,5.0371,5.142,5.1842,5.1522,5.345,5.4634,5.504,5.5383,5.6022,5.6923,5.7288,5.7188,5.6851,5.8117,5.8115,5.7347,5.8597,5.9123,0.0,0.0,0.0,0.0,0.0,5.6667,5.6879,5.5866,5.6418,5.7604,5.7604,5.7604,5.7604,5.7604,5.6895,5.6088,5.6088,5.5354,5.495,5.6418,5.6811,5.7178,5.8657,5.9024,5.9134,5.96,5.8902,5.8646,6.0114,5.9563,0.0,5.774,5.6748,5.5757,5.473,5.4583,5.4583,5.4583,5.5464,5.6088,5.6088,5.6161,5.659,5.7519,5.5831,0.0,0.0,0.0,5.6209,5.6451,5.6092,0.0,0.0,0.0,5.189,5.3134,0.0,0.0,0.0,4.8692,4.7753,0.0,0.0,0.0,0.0,0.0,0.0,0.0,0.0,0.0,0.0,0.0,0.0,0.0,0.0,0.0,0.0,4.2029,4.4248,4.765,4.8293,4.8326,4.8157,4.939,5.0236,5.0353,5.0947,5.137,5.1438,5.1539,5.1877,5.2536,5.2469,0.0,0.0,0.0,5.4228,5.3635,5.5093,5.5926,5.6098,5.6836,5.7238,5.747,5.8224,5.7527,5.5857,5.8533,5.8554,5.6878,5.9578,6.0676,6.0579,5.9761,5.9431,5.946,5.9847,6.015,6.037,6.0077,0.0,0.0,6.0419,6.0419,6.0419,6.0419,5.8902,5.7214,5.7214,5.5673,5.4499,5.6664,5.7214,5.7728,5.9893,6.0419,6.0407,6.0529,5.8829,5.7985,6.0236,5.8939,5.8168,6.0297,5.8719,5.648,5.4315,5.4021,5.4021,5.4021,5.5893,5.7214,5.7214,0.0,0.0,6.0382,5.8323,5.8026,6.0343,5.8535,5.7577,5.8078,5.7323,5.5798,5.3419,5.2215,5.2905,5.5526,5.5526,5.7335,6.0676,5.3583,5.1939,0.0,0.0,0.0,0.0,0.0,0.0,0.0,0.0,0.0,0.0,0.0,0.0,0.0,0.0,0.0,4.4113,4.6346,4.8173,4.9492,5.071,5.1014,4.983,5.0439,5.1217,5.1826,5.1995,5.2367,5.301,5.3619,5.3991,5.4143,5.3585,5.3281,5.3281,5.3551,5.3953,5.4451,5.5939,5.7316,5.8604,0.0,0.0,6.0691,6.0883,6.1068,6.127,6.1883,6.186,6.1531,6.2095,6.2352,6.2193,6.0762,6.0201,5.9957,5.817,5.8719,6.0126,5.8168,5.8756,6.0419,6.0419,6.0419,6.0419,6.0419,6.0089,0.0,5.971,5.938,5.9123,5.9575,5.971,5.9832,6.0309,6.0419,6.0566,6.1227,6.1006,6.1006,6.2132,6.1949,6.1802,6.2242,6.0848,5.9538,5.9098,5.9013,5.9013,5.9013,5.9428,5.971,5.971,5.8951,5.8988,6.0309,5.9168,5.9159,6.0922,6.0945,6.0971,6.1072,6.0893,6.0579,6.005,5.9804,5.9955,6.0524,6.0524,6.0894,6.1631,5.9436,5.9119,0.0,0.0,0.0,0.0,0.0,0.0,0.0,0.0,0.0,0.0,0.0,3.7325,3.9186,0.0,4.3152,4.5838,4.7496,4.907,5.0947,5.2198,5.2469,5.1319,5.1894,5.2486,5.2875,5.3213,5.3619,5.4025,5.4735,5.5141,5.5141,5.4786,5.4618,5.464,5.536,5.5989,5.644,5.7903,5.9057,5.9861,6.0264,6.087,6.1618,6.2023,6.2402,6.2793,6.2793,6.2793,6.2793,6.2793,6.2793,6.2719,6.1912,6.1582,6.1435,6.026,6.0554,6.1435,6.0224,6.0591,6.1582,6.1582,6.1582,6.1582,6.1582,6.0774,5.9783,5.9783,5.8951,5.829,5.949,5.9783,6.0114,6.1325,6.1582,6.1692,6.2108,6.2218,6.2328,6.2719,6.2793,6.2793,6.2793,6.2132,6.1582,6.1582,6.1582,6.1582,6.1582,6.1582,6.1715,6.196,6.1303,6.1241,6.2327,6.1918,6.1965,6.2733,6.3252,6.3512,6.3512,6.3512,6.362,6.3909,6.3628,6.362,6.3917,6.3917,6.3917,6.3879,6.3474,6.2902,0.0,0.0,0.0,0.0,0.0,0.0,0.0,3.6112,3.6784,3.7867,3.9478,4.0933,4.169,4.3403,4.5384,4.753,4.8376,4.9679,5.2367,5.3315,5.3518,5.301,5.3551,5.3923,5.3923,5.4465,5.4803,5.4803,5.5513,5.599,5.613,5.6284,5.6439,5.6678,5.7862,5.8589,5.885,6.0051,6.07,6.0864,6.1534,6.1824,6.1874,6.2515,6.2793,6.2793,6.2793,6.2793,6.2793,6.2793,6.2793,6.2793,6.2793,6.2793,6.2793,6.2793,6.2793,6.2793,6.2793,6.2793,6.2793,6.2793,6.2793,6.2793,6.2793,6.1435,5.9893,5.9893,5.851,5.7446,5.938,5.9893,6.0407,6.2352,6.2793,6.2793,6.2793,6.2793,6.283,6.2953,6.2941,6.299,6.3073,6.3097,6.3098,6.2965,6.2941,6.299,6.3085,6.3097,6.3296,6.3702,6.3755,6.3985,6.4481,6.4527,6.4563,6.4699,6.5043,6.5261,6.5261,6.5261,6.5454,6.5897,6.5461,6.5461,6.5904,6.5904,6.5904,6.5904,6.6051,6.5107,2.7834,2.7415,2.8614,3.3092,3.4488,3.5397,0.0,4.111,4.3315,4.278,4.4911,4.7143,4.7868,4.8748,4.9864,5.142,5.1758,5.2401,5.4093,5.4397,5.4702,5.5259,5.5395,5.5462,5.5462,5.553,5.5564,5.5564,5.6258,5.6983,5.77,5.8372,5.9082,5.9838,6.0046,6.0478,6.1204,6.1384,6.1811,6.2528,6.2605,6.2679,6.2679,6.2755,6.2793,6.2793,6.2793,6.2793,6.2793,6.2793,6.2793,6.2793,6.2793,6.2793,6.2793,6.2793,6.2793,6.2793,6.2793,6.2793,6.2793,6.2793,6.2793,6.2793,6.2793,6.2609,6.2389,6.2389,6.2205,6.2059,6.2316,6.2389,6.2462,6.2756,6.2793,6.2793,6.2793,6.2793,6.2929,6.3419,6.352,6.3659,6.4129,6.4207,6.4049,6.3561,6.352,6.368,6.4148,6.4207,6.4226,6.4284,6.4294,6.45,6.4965,6.5035,6.523,6.569,6.5781,6.5808,6.5808,6.5808,6.5827,6.5904,6.5827,6.5827,6.5904,6.5904,6.5904,6.5904,6.6635,6.6462,3.0771,3.2243,3.433,3.7602,3.9501,4.0987,4.2564,4.4465,4.5906,4.5993,4.7346,4.8781,4.9492,4.9898,5.0574,5.2063,5.2334,5.2891,5.4414,5.5344,5.5987,5.6308,5.5581,5.4702,5.3805,5.531,5.6011,5.5184,5.6969,5.8528,5.936,5.9689,6.0258,6.107,6.1084,6.1492,6.2298,6.2298,6.2477,6.2793,6.2793,6.2793,6.2793,6.2793,6.2793,6.2793,6.2793,6.2793,6.2793,6.2793,6.2793,6.2793,6.2793,6.2793,6.2793,6.2793,6.2793,6.2793,6.2793,6.2793,6.2793,6.2793,6.2793,6.2793,6.2793,6.2793,6.2793,6.2793,6.2793,6.2793,6.2793,6.2793,6.2793,6.2793,6.2793,6.2793,6.2793,6.305,6.3317,6.3576,6.3861,6.4119,6.4341,6.4379,6.4407,6.4481,6.4246,6.4129,6.436,6.4379,6.449,6.4765,6.5105,6.5351,6.5549,6.5563,6.567,6.5891,6.5904,6.609,6.6596,6.6596,6.6821,6.7359,6.7359,6.7359,6.7359,6.7359,6.7359,6.7359,6.7705,6.7667,3.3852,3.613,3.8261,4.1089,4.32,4.4905,4.6041,4.6887,4.7631,4.836,4.9255,5.0067,5.0624,5.0895,5.1386,5.2469,5.2841,5.3433,5.4735,5.5987,5.6664,5.6224,5.5412,5.3974,5.1573,5.4481,5.6354,5.5955,5.8108,5.9848,6.0685,6.0715,6.1084,6.1915,6.1942,6.2219,6.2793,6.2793,6.2793,6.2793,6.2793,6.2793,6.2793,6.2793,6.2793,6.2793,6.2793,6.2793,6.2793,6.2793,6.2793,6.2793,6.2793,6.2793,6.2793,6.2793,6.2793,6.2793,6.2793,6.2793,6.2793,6.2793,6.2793,6.2793,6.2793,6.2793,6.2793,6.2793,6.2793,6.2793,6.2793,6.2793,6.2793,6.2793,6.2892,6.3026,6.3026,6.3639,6.4208,6.4326,6.4869,6.5316,6.5486,6.5504,6.5614,6.5956,6.5713,6.5428,6.5162,6.5352,6.5631,6.5971,6.636,6.659,6.659,6.659,6.659,6.659,6.659,6.6859,6.7436,6.7475,6.7744,6.8391,6.8391,6.8391,6.8391,6.8391,6.8391,6.8391,6.866,6.8776,3.6737,3.7302,3.7867,4.2239,4.3978,4.5176,4.7346,4.8394,4.9154,4.988,5.1183,5.2198,5.2232,5.2875,5.3416,5.345,5.4059,5.4803,5.5564,5.6308,5.6258,5.4854,5.5277,5.3887,4.9349,5.3121,5.6701,5.8817,5.9826,6.07,6.1534,6.1576,6.1942,6.2743,6.2755,6.2768,6.2793,6.2793,6.2793,6.2793,6.2793,6.2793,6.2793,6.2793,6.2793,6.2793,6.2793,6.2793,6.2793,6.2793,6.2793,6.2793,6.2793,6.2793,6.2793,6.2793,6.2793,6.2793,6.2793,6.2793,6.2793,6.2793,6.2793,6.2793,6.2793,6.2793,6.2793,6.2793,6.2793,6.2793,6.2793,6.2793,6.2793,6.2793,6.3203,6.3598,6.3598,6.4626,6.5681,6.6205,6.6951,6.7668,6.8188,6.8288,6.8288,6.8294,6.8288,6.798,6.7141,6.7749,6.8288,6.8294,6.8308,6.8314,6.8314,6.8314,6.8314,6.8314,6.8314,6.8353,6.8353,6.8353,6.8353,6.8391,6.8391,6.8391,6.8391,6.8391,6.8391,6.843,6.9283,6.9667,3.605,3.8362,4.1048,4.3586,4.5872,4.7699,4.8462,4.9578,5.066,5.142,5.0777,5.027,5.0744,4.9864,4.9526,5.1014,5.1048,5.2029,5.5259,5.4582,5.4492,5.6532,5.5242,5.4574,5.5526,5.6182,5.6407,5.6138,5.9266,6.1548,6.235,6.2389,6.2528,6.278,6.2793,6.2793,6.2793,6.2793,6.2793,6.2793,6.2793,6.2793,6.2793,6.2793,6.2793,6.2793,6.2793,6.2793,6.2793,6.2793,6.2793,6.2866,6.3429,6.3649,6.3723,6.4261,6.4444,6.4297,6.3196,6.2793,6.2793,6.2793,6.2793,6.2903,6.3503,6.3649,6.3759,6.4297,6.4444,6.4444,6.4444,6.4722,6.4995,6.4995,6.5383,6.5803,6.5803,6.6399,6.7,6.7142,6.7699,6.8178,6.8371,6.8391,6.8584,6.9161,6.8776,6.8276,6.8007,6.8237,6.8391,6.8391,6.8391,6.8391,6.8391,6.8391,6.8391,6.8391,6.8391,6.866,6.9237,6.9244,6.9513,7.0052,7.0052,7.0052,7.0052,7.0052,7.036,7.0937,7.1206,7.1668,3.7572,4.0493,4.3619,4.565,4.78,4.9526,5.0067,5.0913,5.181,5.257,5.1589,5.0439,4.983,4.8763,4.8357,4.9526,4.9965,5.1567,5.557,5.528,5.5383,5.7359,5.6129,5.5723,5.7329,5.7656,5.7249,5.5925,5.8893,6.097,6.1484,6.1508,6.1912,6.2756,6.2793,6.2793,6.2793,6.2793,6.2793,6.2793,6.2793,6.2793,6.2793,6.2793,6.2316,6.1582,6.2756,6.2756,6.2022,6.3196,6.3673,6.3747,6.431,6.453,6.4604,6.5105,6.5288,6.5141,6.4077,6.3673,6.3673,6.3673,6.3673,6.3783,6.4347,6.453,6.464,6.5141,6.5288,6.5353,6.5533,6.5848,6.6154,6.6325,6.6763,6.7134,6.7134,6.7795,6.835,6.835,6.8855,6.9276,6.9276,6.9276,6.9475,7.0052,6.9667,6.9276,6.9276,6.9276,6.9276,6.9276,6.9276,6.9276,6.9276,6.9276,6.9276,6.9276,6.9276,6.9667,7.0552,7.0591,7.0975,7.1822,7.1822,7.1822,7.1822,7.1822,7.2129,7.2668,7.2668,7.2976,4.1136,4.3552,4.5514,4.8342,4.9627,5.059,5.1995,5.23,5.2469,5.3078,5.3112,5.2063,4.907,4.9052,4.9323,4.8917,5.0572,5.3083,5.6259,5.7911,5.8355,5.7133,5.7739,5.7382,5.5181,5.7753,5.9138,5.8139,5.8872,5.9368,5.9368,5.9368,6.0444,6.2719,6.2793,6.2793,6.2793,6.2793,6.2793,6.2793,6.2793,6.2829,6.2866,6.2866,6.1655,5.971,6.2805,6.2842,6.0896,6.4004,6.5288,6.5288,6.5362,6.5362,6.5362,6.5398,6.5398,6.5398,6.5398,6.5362,6.5288,6.5288,6.5288,6.5288,6.5362,6.5388,6.5413,6.5463,6.5489,6.563,6.6133,6.6277,6.6442,6.6944,6.7429,6.7779,6.7779,6.8807,6.9744,6.9744,7.0398,7.0898,7.0898,7.0937,7.0975,7.0975,7.1014,7.1014,7.0898,7.0937,7.0975,7.0975,7.1014,7.1014,7.1014,7.1014,7.1014,7.1014,7.1014,7.1398,7.2213,7.229,7.2668,7.3469,7.3507,7.3507,7.3507,7.3507,7.3507,7.3546,7.3546,7.3584,4.186,4.5041,4.8173,4.9492,5.0777,5.1826,5.2198,5.23,5.1725,4.9747,4.7549,4.5249,4.2814,4.163,4.2219,4.594,4.7027,4.8978,5.3583,5.4571,5.5357,5.668,5.8102,5.9167,5.9758,6.1113,6.1102,5.9055,6.075,6.1875,6.1875,6.1875,6.2169,6.2793,6.2793,6.2793,6.2793,6.2793,6.2793,6.2793,6.2793,6.3135,6.3759,6.3759,6.3759,6.3783,6.4628,6.4628,6.4114,6.4958,6.5288,6.5362,6.5962,6.6182,6.6256,6.688,6.71,6.71,6.71,6.6292,6.5288,6.5288,6.5288,6.5398,6.5999,6.6468,6.6935,6.7529,6.7982,6.8323,6.8435,6.878,6.9102,6.9266,6.9672,7.0074,7.0074,7.0336,7.0591,7.0591,7.0744,7.0898,7.0898,7.1437,7.1867,7.1867,7.2437,7.236,7.1052,7.1475,7.1867,7.1867,7.2437,7.2853,7.2853,7.2853,7.2853,7.2853,7.2853,7.293,7.3168,7.3168,7.3276,7.3507,7.3507,7.3507,7.3507,7.3507,7.3815,7.4392,7.4392,7.4738,4.4688,4.7327,4.9729,5.0811,5.1691,5.1961,5.066,5.0356,4.9409,4.6128,4.4113,4.2138,3.9601,3.9263,4.0654,4.4563,4.631,4.8827,5.3662,5.4655,5.5611,5.763,5.8651,5.9957,6.1937,6.2541,6.2242,6.0884,6.1068,6.1215,6.1215,6.1215,6.1728,6.2756,6.2793,6.2793,6.2793,6.2793,6.2976,6.3392,6.3392,6.3796,6.464,6.464,6.4273,6.3759,0.0,6.5215,6.4297,6.5778,6.6366,6.6402,6.6843,6.7026,6.7076,6.7517,6.77,6.7741,6.7982,6.7443,6.6704,6.6704,6.6704,6.684,6.7528,6.7942,6.8274,6.8723,6.9064,6.9363,6.9598,6.9865,7.0154,7.0416,7.0666,7.0898,7.0898,7.0898,7.1014,7.1398,7.1475,7.1591,7.1975,7.2437,7.2783,7.2783,7.3199,7.3161,7.2168,7.2476,7.2783,7.2783,7.3199,7.3507,7.3507,7.3507,7.3507,7.3507,7.3507,7.3661,7.4007,7.4046,7.4199,7.4591,7.4584,7.4584,7.4584,7.4584,7.4822,7.5284,7.5284,7.5515,4.797,4.9526,5.0574,5.1961,5.23,5.1623,4.907,4.8022,4.6568,4.2895,4.1758,4.0701,3.8325,3.9553,4.175,4.4423,4.7169,5.0308,5.42,5.5914,5.7276,5.8575,5.9013,6.015,6.2572,6.2499,6.2462,6.2793,6.0848,5.9673,5.9673,5.9673,6.0627,6.2719,6.2793,6.2793,6.2793,6.2903,6.3356,6.4103,6.4213,6.4677,6.5472,6.5472,6.4347,6.2561,6.5411,6.5448,6.3673,6.6526,6.77,6.77,6.77,6.77,6.77,6.77,6.7754,6.7852,6.8357,6.8558,6.8602,6.8602,6.8602,6.8694,6.9158,6.9353,6.9413,6.9413,6.9462,6.9617,7.0086,7.0195,7.0322,7.0784,7.0898,7.0937,7.1052,7.1168,7.1475,7.2245,7.2367,7.2591,7.3353,7.3584,7.3661,7.3661,7.3776,7.3815,7.3815,7.3738,7.3661,7.3661,7.3776,7.3815,7.3815,7.3815,7.3815,7.3815,7.3815,7.4123,7.4853,7.4853,7.5245,7.5976,7.6015,7.6015,7.6015,7.6015,7.6053,7.6169,7.6169,7.6245,4.7921,4.951,5.1217,5.2097,5.23,5.2164,5.1657,4.8714,4.5181,4.2049,3.8925,3.6967,3.769,3.8676,4.0842,4.5363,4.7624,4.9013,4.9586,5.3776,5.6649,5.626,5.7985,6.015,6.2572,6.0994,6.0664,6.2646,6.2426,6.2169,6.2169,6.2169,6.2352,6.2793,6.2793,6.2793,6.2793,6.3503,6.3956,6.4103,6.4787,6.5521,6.6292,6.6292,6.6402,6.6673,6.726,0.0,6.6893,6.748,6.77,6.77,6.77,6.77,6.77,6.77,6.7994,6.8368,6.8476,6.8807,6.9158,6.9158,6.9158,6.9179,6.9272,6.9617,6.9945,6.9945,7.0282,7.0637,7.0748,7.0762,7.0784,7.0885,7.0898,7.1091,7.1828,7.2552,7.3084,7.3238,7.3276,7.3315,7.3469,7.4046,7.4507,7.4507,7.513,7.5553,7.5553,7.4938,7.4507,7.4507,7.513,7.5553,7.5553,7.5553,7.5553,7.5553,7.5553,7.563,7.5784,7.5784,7.5861,7.6015,7.6015,7.6015,7.6015,7.6015,7.6361,7.7053,7.7053,7.7445,4.8259,4.9814,5.137,5.2131,5.23,5.1285,4.7428,4.4891,4.1982,3.7009,3.4573,3.3587,3.452,3.5666,3.8495,4.4818,4.7107,4.9225,5.2325,5.508,5.6957,5.7409,5.8499,5.9636,6.0811,5.9893,5.9673,6.0848,6.0921,6.1471,6.2719,6.2793,6.2793,6.2793,6.2793,6.2793,6.2793,6.3649,6.431,6.4714,6.5558,6.6366,6.71,6.71,6.7333,6.77,6.77,6.7003,6.5938,6.7187,6.6966,6.5938,6.7223,6.7889,6.8123,6.8123,6.8464,6.8945,6.9251,6.9521,6.9757,7.0044,6.9918,6.9766,7.0052,7.0306,7.0509,7.0509,7.0688,7.0898,7.0898,7.1245,7.1598,7.1598,7.1937,7.236,7.2783,7.3199,7.3623,7.4046,7.4123,7.4276,7.47,7.513,7.5399,7.5399,7.5745,7.6015,7.6015,7.563,7.5399,7.5399,7.5745,7.6015,7.6015,7.6015,7.6015,7.6015,7.6015,7.6015,7.6015,7.6015,7.6207,7.6669,7.6669,7.6861,7.7284,7.7284,7.7522,7.7907,7.7907,7.8138,4.8714,5.0101,5.1133,5.1894,5.1961,5.0135,4.3639,4.1542,3.9313,3.3502,3.1764,3.1694,3.2921,3.4131,3.7294,4.4532,4.6224,4.8861,5.5166,5.604,5.6811,5.8939,5.9196,5.9416,5.993,5.949,5.9404,5.993,5.9967,6.0811,6.2683,6.2793,6.2793,6.2793,6.2793,6.2903,6.3086,6.3943,6.4751,6.5582,6.6366,6.71,6.77,6.77,6.77,6.77,6.77,6.6342,6.4286,6.6709,6.6269,6.436,6.6746,6.8009,6.8511,6.8511,6.8902,6.954,6.9936,7.0162,7.0377,7.1,7.0776,7.0346,7.0769,7.1014,7.1168,7.1168,7.1321,7.1475,7.1475,7.1975,7.2476,7.2476,7.3129,7.3776,7.3776,7.3892,7.4199,7.4861,7.4976,7.5207,7.5861,7.6015,7.6015,7.6015,7.6015,7.6015,7.6015,7.6015,7.6015,7.6015,7.6015,7.6015,7.6015,7.6015,7.6092,7.6284,7.6284,7.6361,7.6515,7.6553,7.6861,7.7561,7.7561,7.7869,7.8484,7.8484,7.86,7.8792,7.8792,7.8869,4.9068,5.0117,5.0371,5.11,5.0811,4.9424,4.6041,4.2658,3.9355,3.6442,3.3657,3.2895,3.6733,3.7616,3.974,4.5916,4.526,4.6194,5.2616,5.3544,5.4939,5.8756,5.9196,6.0077,6.2242,6.0481,6.0114,6.2316,6.2462,6.2572,6.2793,6.2793,6.2793,6.2793,6.2793,6.316,6.3992,6.4787,6.5595,6.6402,6.7223,6.7627,6.77,6.77,6.77,6.77,6.77,6.6342,0.0,6.6709,6.6269,6.436,6.6746,6.8009,6.8511,6.8511,6.9158,7.0044,7.0086,7.044,7.0972,7.1815,7.1493,7.0857,7.0885,7.1437,7.2098,7.2098,7.2668,7.3276,7.3276,7.3315,7.3392,7.3392,7.4007,7.4584,7.4584,7.5207,7.5784,7.5861,7.5861,7.5899,7.5976,7.6015,7.6015,7.6015,7.6015,7.6015,7.6015,7.6015,7.6015,7.6015,7.6015,7.6015,7.6015,7.6015,7.6322,7.7138,7.7176,7.7522,7.8253,7.8253,7.8292,7.8407,7.8407,7.8446,7.8484,7.8484,7.8907,7.9669,7.9669,8.0092,4.5669,4.8037,5.0184,5.0473,5.0304,4.8689,4.3276,4.0861,3.838,3.3571,3.2004,3.209,3.4019,3.4822,3.6981,4.2579,4.2693,4.4856,5.2815,5.4326,5.6124,6.0162,6.1068,6.1178,6.0664,5.9747,5.96,6.0554,6.0627,6.1288,6.2719,6.2793,6.2793,6.2793,6.2793,6.3196,6.4103,6.4897,6.5705,6.6512,6.7333,6.77,6.77,6.77,6.77,6.7727,6.8034,6.5643,0.0,6.6697,6.6023,6.2444,6.693,6.8989,6.9444,6.9444,6.9918,7.06,7.06,7.1048,7.1745,7.2098,7.2322,7.2469,7.2469,7.2706,7.2976,7.2976,7.3238,7.3507,7.3507,7.3853,7.4353,7.4899,7.5245,7.5476,7.5476,7.5745,7.6015,7.6015,7.6015,7.6015,7.6015,7.6015,7.6015,7.6015,7.6015,7.6015,7.6015,7.6015,7.6015,7.6015,7.6015,7.6207,7.6746,7.6784,7.7138,7.7984,7.8023,7.8176,7.8484,7.8484,7.8754,7.9285,7.9285,7.9554,8.0054,8.0054,8.0246,8.0592,8.0592,8.0785,4.3118,4.621,4.9135,4.9135,4.855,4.6431,4.0577,3.8594,3.6557,3.1362,3.096,3.1648,3.209,3.2828,3.5052,4.0256,4.1287,4.4149,5.1903,5.3896,5.5952,5.9722,6.0896,6.1104,6.0334,6.026,6.026,6.026,6.026,6.0994,6.2719,6.2793,6.2793,6.2793,6.2793,6.3196,6.4103,6.4897,6.5705,6.6512,6.7333,6.7187,6.6292,6.726,6.7269,6.6603,6.7911,6.5859,0.0,6.7143,6.6473,6.2587,6.7416,6.9636,7.0103,7.0103,7.0455,7.0937,7.1206,7.1675,7.229,7.2783,7.336,7.3892,7.4161,7.4046,7.3853,7.3853,7.4046,7.4238,7.4238,7.4661,7.5245,7.5861,7.6015,7.6015,7.6015,7.6015,7.6015,7.6015,7.6015,7.6015,7.6015,7.6015,7.6015,7.6015,7.6015,7.6015,7.6015,7.6015,7.6092,7.6361,7.6361,7.663,7.7253,7.7522,7.8023,7.8823,7.8861,7.9015,7.9254,7.9254,7.9554,8.0162,8.0169,8.0477,8.1093,8.1093,8.1093,8.1093,8.1093,8.1093,4.2408,4.5094,4.6834,4.6834,4.4899,4.2171,3.9124,3.6414,3.3829,3.1325,3.1427,3.2104,3.2511,3.325,3.5415,4.0288,4.1764,4.4011,4.8949,5.1032,5.3225,5.6492,5.7556,5.9281,6.2462,6.2756,6.2756,6.2756,6.2756,6.2756,6.2793,6.2793,6.2793,6.2793,6.2793,6.3196,6.4103,6.4897,6.5705,6.6512,6.7333,6.5999,6.2976,6.6219,6.6248,6.392,6.7118,6.7417,0.0,6.8304,6.7871,6.587,6.8342,6.9636,7.0103,7.0103,7.0455,7.1014,7.1905,7.2175,7.2482,7.413,7.4661,7.4853,7.5707,7.5361,7.47,7.47,7.5322,7.5976,7.5976,7.5976,7.5976,7.6015,7.6015,7.6015,7.6015,7.6015,7.6015,7.6015,7.6015,7.6015,7.6015,7.6015,7.6015,7.6015,7.6015,7.6015,7.6015,7.6015,7.6322,7.7176,7.7292,7.7292,7.7292,7.8023,7.8869,7.9746,7.9777,8.0162,8.1054,8.1054,8.1093,8.1093,8.1093,8.1093,8.1093,8.1093,8.1093,8.1093,8.1093,8.1093,3.6253,3.8587,4.073,4.073,4.0253,3.8962,3.572,3.4146,3.2458,2.9396,2.9819,3.0806,3.0956,3.2522,3.5385,4.0288,4.1323,4.3966,5.1059,5.3445,5.5647,5.8866,6.0444,6.1692,6.2683,6.1325,6.1031,6.2683,6.1288,6.1068,6.2719,6.2793,6.2793,6.2793,6.2793,6.3196,6.4103,6.4897,6.5705,6.6512,6.7333,6.5962,6.2915,6.6569,6.656,6.391,6.7899,6.7947,6.5483,6.8959,6.8579,6.6145,6.9192,7.0494,7.0645,7.0645,7.0762,7.1014,7.1905,7.2591,7.3283,7.4353,7.5091,7.563,7.5938,7.5822,7.5592,7.5592,7.5784,7.6015,7.6015,7.6015,7.6015,7.6015,7.6015,7.6015,7.6015,7.6015,7.6015,7.6015,7.6015,7.6015,7.6015,7.6015,7.6015,7.6015,7.6015,7.6015,7.6015,7.6515,7.6984,7.7292,7.8323,7.9015,7.9015,7.9246,7.9746,8.0631,8.0708,8.0823,8.1093,8.1093,8.1093,8.1093,8.1093,8.1093,8.1093,8.1093,8.1093,8.1093,8.1093,8.1093,3.2206,3.4648,3.6604,3.6602,3.6117,3.5054,3.2807,3.1347,2.9863,2.7788,2.9837,3.1561,3.002,3.2993,3.6332,3.8453,4.1103,4.4553,4.9324,5.2197,5.4766,5.7361,5.9636,6.1471,6.2683,6.1435,6.1178,6.2683,6.1398,6.1215,6.2719,6.2793,6.2793,6.2793,6.2793,6.305,6.3613,6.442,6.5264,6.6072,6.6843,6.581,6.3243,6.6858,6.6966,6.4511,6.8403,6.9003,0.0,6.9879,6.9667,6.7975,7.009,7.0898,7.0898,7.0898,7.1091,7.1514,7.2399,7.3245,7.4084,7.4938,7.5553,7.6015,7.6015,7.6015,7.6015,7.6015,7.6015,7.6015,7.6015,7.6015,7.6015,7.6015,7.6015,7.6015,7.6015,7.6015,7.6015,7.6015,7.6015,7.6015,7.6015,7.6015,7.6015,7.6015,7.6015,7.613,7.6438,7.6938,7.7561,7.8169,7.9169,7.9931,8.0246,8.0277,8.0516,8.1054,8.1093,8.1093,8.1093,8.1093,8.1093,8.1093,8.1093,8.1093,8.1093,8.1093,8.1093,8.1093,8.1093,8.1093,0.0,3.2466,3.3802,3.3774,3.2249,3.0635,3.0275,2.8286,0.0,2.6974,3.1225,3.3823,3.0198,3.4791,3.8314,3.5848,4.136,4.5773,4.514,4.859,5.1746,5.3214,5.6308,5.9465,6.2279,6.2683,6.2793,6.2793,6.2793,6.2793,6.2793,6.2793,6.2793,6.2793,6.2793,6.2793,6.2793,6.3649,6.4383,6.4958,6.6051,6.5423,6.3456,6.6986,6.7402,0.0,6.8728,7.0455,7.0898,7.0898,7.0898,7.0898,7.0898,7.0898,7.0898,7.0898,7.1437,7.2329,7.3199,7.4046,7.4853,7.5707,7.6015,7.6015,7.6015,7.6015,7.6015,7.6015,7.6015,7.6015,7.6015,7.6015,7.6015,7.6015,7.6015,7.6015,7.6015,7.6015,7.6015,7.6015,7.6015,7.6015,7.6015,7.6015,7.6015,7.6015,7.6053,7.6361,7.7215,7.7407,7.8054,7.9623,7.9854,8.0208,8.1016,8.1093,8.1093,8.1093,8.1093,8.1093,8.1093,8.1093,8.1093,8.1093,8.1093,8.1093,8.1093,8.1093,8.1093,8.1093,8.1093,8.1131,2.5415,0.0,2.7297,2.7544,2.7393,2.7189,0.0,2.635,2.6728,3.0424,3.2736,3.4174,3.4504,3.9342,4.2498,4.0068,4.37,4.7195,4.8233,5.2417,5.5317,5.506,5.8951,6.1251,6.015,6.1728,6.2793,6.2793,6.2793,6.2793,6.2793,6.2793,6.2793,6.2793,6.2793,6.2793,6.2793,6.3649,6.3246,6.1594,6.5322,6.461,6.016,6.6749,6.8112,6.552,6.915,7.0777,7.0898,7.0898,7.0898,7.0898,7.0898,7.0898,7.0898,7.0898,7.1437,7.2329,7.3199,7.4046,7.4853,7.5707,7.6015,7.6015,7.6015,7.6015,7.6015,7.6015,7.6015,7.6015,7.6015,7.6015,7.6015,7.6015,7.6015,7.6015,7.6015,7.6015,7.6015,7.6015,7.6015,7.6015,7.6015,7.6015,7.6015,7.6015,7.6553,7.7061,7.7292,7.84,7.9361,7.9738,8.04,8.09,8.1093,8.1093,8.1093,8.1093,8.1093,8.1093,8.1093,8.1093,8.1093,8.1093,8.1093,8.1093,8.1093,8.1093,8.1093,8.1093,8.1093,8.1439,2.3348,2.4406,2.5485,2.7225,2.6801,2.6345,2.764,2.6348,2.6214,3.1054,3.2699,3.3763,3.5415,3.9122,4.1654,4.07,4.3305,4.6654,5.0151,5.3261,5.4976,5.4546,5.6811,5.8462,5.8646,6.1178,6.2793,6.2793,6.2793,6.2793,6.2793,6.2793,6.2793,6.2793,6.2793,6.2793,6.2793,6.3505,6.2578,6.0146,6.4821,6.4991,6.1285,6.7355,6.9289,6.7916,6.8376,6.9475,7.0783,6.9244,6.9513,7.0898,7.0898,7.0898,7.0898,7.0898,7.1706,7.286,7.3353,7.4276,7.5361,7.5861,7.6015,7.6015,7.6015,7.6015,7.6015,7.6015,7.6015,7.6015,7.6015,7.6015,7.6015,7.6015,7.6015,7.6015,7.6015,7.6015,7.6015,7.6015,7.6015,7.6015,7.6015,7.6015,7.6015,7.6015,7.6746,7.7445,7.7792,7.8977,7.9931,8.0362,8.0823,8.1093,8.1093,8.1093,8.1093,8.1093,8.1093,8.1093,8.1093,8.1093,8.1093,8.1093,8.1093,8.1093,8.1093,8.1093,8.1093,8.1093,8.1477,8.1862,2.2841,2.4321,2.6067,2.9363,2.8026,2.6644,2.9557,2.7163,2.592,3.139,3.3146,3.427,3.6134,3.9122,4.1075,4.0385,4.2698,4.6406,5.1463,5.3188,5.3838,5.3581,5.4205,5.56,5.796,6.0958,6.2793,6.2793,6.2793,6.2793,6.2793,6.2793,6.2793,6.2793,6.2892,6.2904,6.2904,6.3363,6.2343,5.9901,6.4668,6.5854,6.397,6.8253,7.0478,7.0744,0.0,0.0,7.0667,6.7821,6.8321,7.0898,7.0898,7.0898,7.0898,7.0898,7.2014,7.3546,7.3776,7.4822,7.6015,7.6015,7.6015,7.6015,7.6015,7.6015,7.6015,7.6015,7.6015,7.6015,7.6015,7.6015,7.6015,7.6015,7.6015,7.6015,7.6015,7.6015,7.6015,7.6015,7.6015,7.6015,7.6015,7.6015,7.6053,7.6169,7.6945,7.7792,7.86,7.9477,8.0285,8.1016,8.1093,8.1093,8.1093,8.1093,8.1093,8.1093,8.1093,8.1093,8.1093,8.1093,8.1093,8.1093,8.1093,8.1093,8.1093,8.1093,8.117,8.1285,8.1977,8.2439,2.3928,2.529,2.6634,2.9496,2.7833,2.6308,2.9464,2.7609,2.7578,3.5862,3.8212,3.968,4.2645,4.8563,5.0592,4.313,4.6287,5.0472,5.27,5.5464,5.6748,5.5401,5.8841,6.0737,5.9159,6.1325,6.2793,6.2793,6.2793,6.2793,6.2793,6.2793,6.2793,6.2793,6.325,6.3487,6.3487,6.3576,6.2568,6.0619,6.5246,6.6257,6.4138,6.8704,7.0805,7.086,0.0,7.0437,7.086,7.0321,7.0437,7.0898,7.0898,7.0898,7.0898,7.0898,7.2014,7.3699,7.513,7.5784,7.6015,7.6015,7.6015,7.6015,7.6015,7.6015,7.6015,7.6015,7.6015,7.6015,7.6015,7.6015,7.6015,7.6015,7.6015,7.6015,7.6015,7.6015,7.6015,7.6015,7.6015,7.6015,7.6015,7.6015,7.6245,7.6984,7.7792,7.8638,7.9477,8.0362,8.0939,8.1093,8.1093,8.1093,8.1093,8.1093,8.1093,8.1093,8.1093,8.1093,8.1093,8.1093,8.1093,8.1093,8.1093,8.1093,8.1093,8.1093,8.1439,8.2131,8.2247,8.3093,2.3646,2.484,2.6747,3.2164,3.0069,2.8569,3.5759,3.1831,2.9702,4.0377,3.8689,3.7221,4.3525,4.6388,4.7572,4.6985,5.238,5.6455,5.5868,5.7079,5.774,5.698,5.8841,5.9758,5.8646,6.1141,6.2793,6.2793,6.2793,6.2941,6.3227,6.2953,6.3086,6.3648,6.3615,6.3844,6.4426,6.4388,6.3023,6.0369,6.5558,6.6476,6.3781,6.8684,7.0898,7.0783,0.0,6.9244,7.0744,6.8936,6.9283,7.0898,7.0898,7.0898,7.1014,7.1975,7.2815,7.3738,7.5438,7.6015,7.6015,7.6015,7.6015,7.6015,7.6015,7.6015,7.6015,7.6015,7.6015,7.6015,7.6015,7.6015,7.6015,7.6015,7.6015,7.6015,7.6015,7.6015,7.6015,7.6015,7.6015,7.6015,7.6015,7.6015,7.6284,7.7176,7.7984,7.883,7.9708,8.0554,8.1093,8.1093,8.1093,8.1093,8.1093,8.1093,8.1093,8.1093,8.1093,8.1093,8.1093,8.1093,8.1093,8.1093,8.1093,8.1093,8.1093,8.1554,8.1939,8.2324,8.3285,8.4132,2.3552,2.4547,2.6682,3.368,3.1421,3.0326,4.1046,3.5502,3.1531,4.3681,3.979,3.6714,4.4883,4.459,4.5067,5.1206,5.6859,6.0162,5.9245,5.9134,5.9134,5.9134,5.9134,5.9134,5.9134,6.1361,6.2793,6.2793,6.2941,6.3156,6.3598,6.3317,6.3538,6.436,6.4099,6.4341,6.5099,6.52,6.3976,6.144,6.6151,6.7045,6.4622,6.8936,7.0898,7.0744,6.8205,6.8513,7.0706,6.8129,6.859,7.0898,7.0898,7.0898,7.1129,7.2853,7.3507,7.3738,7.5438,7.6015,7.6015,7.6015,7.6015,7.6015,7.6015,7.6015,7.6015,7.6015,7.6015,7.6015,7.6015,7.6015,7.6015,7.6015,7.6015,7.6015,7.6015,7.6015,7.6015,7.6015,7.6015,7.6015,7.6015,7.6169,7.6592,7.7445,7.8292,7.9131,7.9977,8.0708,8.1093,8.1093,8.1093,8.1093,8.1093,8.1093,8.1093,8.1093,8.1093,8.1093,8.1093,8.1093,8.1093,8.1093,8.1093,8.1093,8.1093,8.19,8.2401,8.2631,8.417,8.5008,2.4611,2.5312,2.656,3.1592,2.9763,2.9622,4.0936,3.5936,3.2362,4.4507,4.4672,4.4424,5.0372,5.0078,5.0545,5.5563,5.6811,5.8389,6.1949,6.2462,6.2462,6.2462,6.2462,6.2462,6.2462,6.2646,6.2793,6.2793,6.3273,6.3576,6.362,6.4056,6.4303,6.4379,6.4774,6.5043,6.5107,6.5583,6.5712,6.5519,6.7462,6.8276,6.8084,7.0014,7.0898,7.0898,7.0629,7.0667,7.0898,7.0629,7.0667,7.0898,7.0898,7.0898,7.1129,7.2853,7.3507,7.3738,7.5438,7.6015,7.6015,7.6015,7.6015,7.6015,7.6015,7.6015,7.6015,7.6015,7.6015,7.6015,7.6015,7.6015,7.6015,7.6015,7.6015,7.6015,7.6015,7.6015,7.6015,7.6015,7.6015,7.6015,7.6015,7.6669,7.7484,7.8292,7.9131,8.0015,8.09,8.1054,8.1093,8.1093,8.1093,8.1093,8.1093,8.1093,8.1093,8.1093,8.1093,8.1093,8.1093,8.1093,8.1093,8.1093,8.1093,8.1093,8.1093,8.19,8.2716,8.3524,8.4478,8.5277,2.4268,2.5007,2.7064,3.3924,3.1855,3.1048,4.2396,3.9431,3.7595,4.9251,4.7315,4.4461,4.7609,5.1389,5.4656,5.648,5.8902,6.1068,6.2572,6.2793,6.2793,6.2793,6.2793,6.2793,6.2793,6.2793,6.2929,6.3285,6.3487,6.3855,6.4518,6.4444,6.4699,6.5314,6.5199,6.5268,6.5583,6.5801,6.6134,6.6673,6.7859,6.866,6.9244,7.0398,7.0898,7.0898,7.0898,7.0898,7.0898,7.0898,7.0898,7.0898,7.0898,7.0898,7.1129,7.2853,7.3507,7.3738,7.5438,7.6015,7.6015,7.6015,7.6015,7.6015,7.6015,7.6015,7.6015,7.6015,7.6015,7.6015,7.6015,7.6015,7.6015,7.6015,7.6015,7.6015,7.6015,7.6015,7.6015,7.6015,7.6015,7.6015,7.6015,7.6707,7.7561,7.8369,7.9246,8.0123,8.0977,8.1093,8.1093,8.1093,8.1093,8.1093,8.1093,8.1093,8.1093,8.1093,8.1093,8.1093,8.1093,8.1093,8.1093,8.1093,8.1093,8.1362,8.1862,8.2708,8.3563,8.4439,8.5247,8.5824,2.3969,2.4787,2.71,3.4181,3.2632,3.2399,4.4011,4.2111,4.0863,5.1463,5.0875,4.8636,4.9224,5.3445,5.6884,5.7152,5.9501,6.1618,6.2646,6.2793,6.2867,6.3038,6.3062,6.3062,6.3062,6.3062,6.3203,6.3587,6.3755,6.4226,6.5067,6.4954,6.5176,6.5885,6.5549,6.5542,6.5897,6.5904,6.6436,6.7513,6.8129,6.8853,6.9744,7.0514,7.0898,7.0898,7.0898,7.0898,7.0898,7.0898,7.0898,7.0898,7.0898,7.0898,7.1129,7.2853,7.3507,7.3738,7.5438,7.6015,7.6015,7.6015,7.6015,7.6015,7.6015,7.6015,7.6015,7.6015,7.6015,7.6015,7.6015,7.6015,7.6015,7.6015,7.6015,7.6015,7.6015,7.6015,7.6015,7.6015,7.6015,7.6015,7.6015,7.6938,7.7869,7.8407,7.9477,8.0439,8.1016,8.1093,8.1093,8.1093,8.1093,8.1093,8.1093,8.1093,8.1093,8.1093,8.1093,8.1093,8.1093,8.1093,8.1093,8.1093,8.1093,8.1516,8.2285,8.3178,8.4055,8.4931,8.5747,8.6094,2.4043,2.4824,2.6586,3.1415,3.1451,3.3433,4.548,4.3305,4.1295,5.0188,5.5868,5.8682,5.7068,5.6811,5.7116,5.7886,5.8033,5.9171,6.2352,6.2793,6.3002,6.3554,6.3582,6.3631,6.3631,6.3631,6.3593,6.3593,6.4089,6.4608,6.5091,6.5597,6.5904,6.5904,6.5904,6.5904,6.5904,6.5904,6.6744,6.8391,6.8391,6.8853,6.9744,7.0552,7.0898,7.0898,7.0898,7.0898,7.0898,7.0898,7.0898,7.0898,7.0898,7.0898,7.1129,7.2853,7.3507,7.3738,7.5399,7.5976,7.6015,7.6015,7.6015,7.6015,7.6015,7.6015,7.6015,7.6015,7.6015,7.6015,7.6015,7.6015,7.6015,7.6015,7.6015,7.6015,7.6015,7.6015,7.6015,7.6015,7.6015,7.6015,7.6015,7.7407,7.8484,7.8484,7.9977,8.1093,8.1093,8.1093,8.1093,8.1093,8.1093,8.1093,8.1093,8.1093,8.1093,8.1093,8.1093,8.1093,8.1093,8.1093,8.1093,8.1093,8.1093,8.1516,8.2324,8.3178,8.4055,8.4931,8.5747,8.6094,2.7603,2.775,2.8123,3.2375,3.4828,3.7433,4.2168,4.3489,4.581,5.3052,5.6565,5.7519,5.4755,5.7985,6.037,5.8327,5.9905,6.1692,6.2683,6.3109,6.3419,6.3598,6.3944,6.4148,6.4148,6.4148,6.4303,6.4643,6.4799,6.5107,6.5649,6.5808,6.5904,6.5904,6.5904,6.5904,6.5904,6.6442,6.7282,6.8391,6.9007,6.9744,7.0552,7.0783,7.0898,7.0898,7.0898,7.0898,7.0898,7.0898,7.0898,7.0898,7.0898,7.0898,7.1052,7.2168,7.2976,7.3661,7.47,7.5476,7.6015,7.6015,7.6015,7.6015,7.6015,7.6015,7.6015,7.6015,7.6015,7.6015,7.6015,7.6015,7.6015,7.6015,7.6015,7.6015,7.6015,7.6015,7.6015,7.6015,7.6015,7.6015,7.6015,7.7407,7.8484,7.8484,7.9977,8.1093,8.1093,8.1093,8.1093,8.1093,8.1093,8.1093,8.1093,8.1093,8.1093,8.1093,8.1093,8.1093,8.1093,8.1093,8.1093,8.1093,8.167,8.2362,8.3216,8.4093,8.4939,8.5747,8.5978,8.6094,2.9916,3.021,3.1237,3.7507,3.9129,4.012,4.3681,4.5966,4.9307,5.6099,5.851,5.8951,5.7324,6.0187,6.2218,6.0501,6.1865,6.3191,6.3408,6.3713,6.3978,6.4188,6.449,6.467,6.467,6.467,6.4782,6.5083,6.5107,6.5321,6.5885,6.5904,6.5904,6.5904,6.5904,6.5904,6.5904,6.6712,6.7552,6.8391,6.9276,7.0129,7.0898,7.0898,7.0898,7.0898,7.0898,7.0898,7.0898,7.0898,7.0898,7.0898,7.0898,7.0898,7.1014,7.1867,7.2745,7.3623,7.443,7.5284,7.6015,7.6015,7.6015,7.6015,7.6015,7.6015,7.6015,7.6015,7.6015,7.6015,7.6015,7.6015,7.6015,7.6015,7.6015,7.6015,7.6015,7.6015,7.6015,7.6015,7.6015,7.6092,7.6476,7.7638,7.8638,7.8977,8.0208,8.1093,8.1093,8.1093,8.1093,8.1093,8.1093,8.1093,8.1093,8.1093,8.1093,8.1093,8.1093,8.1093,8.1093,8.1093,8.1093,8.1093,8.19,8.2708,8.3601,8.4478,8.5316,8.6094,8.6094,8.6094,3.1647,3.2375,3.4968,4.3994,4.3158,4.1927,4.8903,5.0308,5.2134,5.9098,6.097,6.1667,6.2609,6.2842,6.3038,6.3531,6.3626,6.385,6.4313,6.4426,6.4617,6.5059,6.5138,6.5161,6.5161,6.5161,6.5161,6.5161,6.5161,6.5396,6.5885,6.5904,6.5904,6.5904,6.5904,6.5936,6.6019,6.6827,6.7667,6.8545,6.9398,7.0206,7.0898,7.0898,7.0898,7.0898,7.0898,7.0898,7.0898,7.0898,7.0898,7.0898,7.0898,7.0898,7.1014,7.1783,7.2668,7.3584,7.4353,7.5207,7.6015,7.6015,7.6015,7.6015,7.6015,7.6015,7.6015,7.6015,7.6015,7.6015,7.6015,7.6015,7.6015,7.6015,7.6015,7.6015,7.6015,7.6015,7.6015,7.6015,7.6015,7.6284,7.7138,7.7984,7.883,7.9777,8.0592,8.1093,8.1093,8.1093,8.1093,8.1093,8.1093,8.1093,8.1093,8.1093,8.1093,8.1093,8.1093,8.1093,8.1093,8.1093,8.1093,8.1093,8.1977,8.2824,8.3601,8.4555,8.5401,8.6094,8.6094,8.6094,3.5105,3.5349,3.5298,3.8689,4.0679,4.4488,5.4792,5.5684,5.5658,6.0382,6.0456,6.0334,6.2426,6.3132,6.3464,6.3598,6.3965,6.4255,6.437,6.4713,6.5003,6.5091,6.5461,6.5717,6.5717,6.5717,6.5717,6.5717,6.5717,6.5781,6.5897,6.5904,6.5904,6.5904,6.5904,6.6211,6.6827,6.7705,6.8545,6.9436,7.0244,7.0744,7.0898,7.0898,7.0898,7.0898,7.0898,7.0898,7.0898,7.0898,7.0898,7.0898,7.0898,7.0898,7.0937,7.1091,7.2168,7.3507,7.3699,7.4738,7.6015,7.6015,7.6015,7.6015,7.6015,7.6015,7.6015,7.6015,7.6015,7.6015,7.6015,7.6015,7.6015,7.6015,7.6015,7.6015,7.6015,7.6015,7.6015,7.6015,7.6015,7.6284,7.7138,7.7984,7.9023,8.0592,8.0977,8.1093,8.1093,8.1093,8.1093,8.1093,8.1093,8.1093,8.1093,8.1093,8.1093,8.1093,8.1093,8.1093,8.1093,8.1093,8.1093,8.1093,8.2554,8.3409,8.3601,8.5093,8.594,8.6094,8.6094,8.6094,3.3667,3.5642,3.7978,4.2976,4.7194,5.1565,5.6913,5.8378,5.9458,6.2353,6.1874,6.1385,6.2899,6.3408,6.3766,6.4255,6.4563,6.4799,6.5089,6.5344,6.5468,6.5468,6.5717,6.5904,6.5904,6.5904,6.5904,6.5904,6.5904,6.5904,6.5904,6.5904,6.5904,6.5904,6.5904,6.6288,6.7096,6.7975,6.8853,6.9706,7.0514,7.0898,7.0898,7.0898,7.0898,7.0898,7.0898,7.0898,7.0898,7.0898,7.0898,7.0898,7.0898,7.0898,7.0898,7.0898,7.2014,7.3507,7.3507,7.4584,7.6015,7.6015,7.6015,7.6015,7.6015,7.6015,7.6015,7.6015,7.6015,7.6015,7.6015,7.6015,7.6015,7.6015,7.6015,7.6015,7.6015,7.6015,7.6015,7.6015,7.6015,7.6399,7.7676,7.8907,8.0054,8.0977,8.1093,8.1093,8.1093,8.1093,8.1093,8.1093,8.1093,8.1093,8.1093,8.1093,8.1093,8.1093,8.1093,8.1093,8.1093,8.1093,8.1285,8.167,8.2947,8.3832,8.4209,8.5478,8.6094,8.6094,8.6094,8.6094,3.0913,3.5495,4.1617,4.954,5.428,5.7135,5.7704,5.9499,6.1673,6.3926,6.3691,6.3215,6.3648,6.3819,6.4138,6.4949,6.5169,6.5403,6.5821,6.5904,6.5904,6.5904,6.5904,6.5904,6.5904,6.5904,6.5904,6.5904,6.5904,6.5904,6.5904,6.5904,6.5904,6.5904,6.5904,6.6365,6.7327,6.8045,6.8891,6.9937,7.0591,7.0898,7.0898,7.0898,7.0898,7.0898,7.0898,7.0898,7.0898,7.0898,7.0898,7.0898,7.0898,7.0898,7.0898,7.0898,7.1898,7.3315,7.343,7.4507,7.5784,7.5938,7.6015,7.6015,7.6015,7.6015,7.6015,7.6015,7.6015,7.6015,7.6015,7.6015,7.6015,7.6015,7.6015,7.6015,7.6015,7.6015,7.6015,7.6015,7.6245,7.6861,7.8253,7.9939,8.1093,8.1093,8.1093,8.1093,8.1093,8.1093,8.1093,8.1093,8.1093,8.1093,8.1093,8.1093,8.1093,8.1093,8.1093,8.1093,8.1093,8.1093,8.1554,8.2516,8.3216,8.4016,8.4893,8.5709,8.6094,8.6094,8.6094,8.6094,3.0766,3.7514,4.5107,5.023,5.0798,5.2089,5.9556,5.9299,5.8821,6.3426,6.4275,6.4197,6.4265,6.4626,6.4932,6.5091,6.5475,6.5808,6.5891,6.5904,6.5904,6.5904,6.5904,6.5904,6.5904,6.5904,6.5904,6.5904,6.5904,6.5904,6.5904,6.5904,6.5904,6.5904,6.5904,6.6667,6.8199,6.8353,6.9199,7.0744,7.086,7.0898,7.0898,7.0898,7.0898,7.0898,7.0898,7.0898,7.0898,7.0898,7.0898,7.0898,7.0898,7.0898,7.0898,7.0898,7.1514,7.2476,7.3238,7.4084,7.5007,7.5745,7.6015,7.6015,7.6015,7.6015,7.6015,7.6015,7.6015,7.6015,7.6015,7.6015,7.6015,7.6015,7.6015,7.6015,7.6015,7.6015,7.6015,7.6015,7.7169,7.8253,7.8446,7.9939,8.1093,8.1093,8.1093,8.1093,8.1093,8.1093,8.1093,8.1093,8.1093,8.1093,8.1093,8.1093,8.1093,8.1093,8.1093,8.1093,8.1093,8.1093,8.1823,8.3409,8.3524,8.4016,8.4893,8.5709,8.6094,8.6094,8.6094,8.6094,3.2786,3.7425,4.2491,5.2182,5.129,5.0595,6.0462,6.007,5.9109,6.4184,6.5223,6.5153,6.4863,6.4979,6.5184,6.552,6.5762,6.5904,6.5904,6.5904,6.5904,6.5904,6.5904,6.5904,6.5904,6.5904,6.5904,6.5904,6.5904,6.5904,6.5904,6.5904,6.5904,6.5904,6.5904,6.6705,6.8391,6.8391,6.9237,7.0898,7.0898,7.0898,7.0898,7.0898,7.0898,7.0898,7.0898,7.0898,7.0898,7.0898,7.0898,7.0898,7.0898,7.0898,7.0898,7.0898,7.1437,7.2329,7.3199,7.4046,7.4853,7.5707,7.6015,7.6015,7.6015,7.6015,7.6015,7.6015,7.6015,7.6015,7.6015,7.6015,7.6015,7.6015,7.6015,7.6015,7.6015,7.6015,7.6015,7.6015,7.7361,7.8484,7.8484,7.9939,8.1093,8.1093,8.1093,8.1093,8.1093,8.1093,8.1093,8.1093,8.1093,8.1093,8.1093,8.1093,8.1093,8.1093,8.1093,8.1093,8.1093,8.1093,8.19,8.3563,8.3601,8.4247,8.5555,8.594,8.6094,8.6094,8.6094,8.6094,3.2945,3.5829,3.8925,5.0877,4.9941,4.8574,5.7976,5.8506,5.8396,6.3281,6.5128,6.5781,6.5396,6.5298,6.5432,6.5821,6.5904,6.5904,6.5904,6.5904,6.5904,6.5904,6.5904,6.5904,6.5904,6.5904,6.5904,6.5904,6.5904,6.5904,6.5904,6.5904,6.5904,6.5904,6.5904,6.6705,6.8391,6.8814,6.9667,7.0898,7.0898,7.0898,7.0898,7.0898,7.0898,7.0898,7.0898,7.0898,7.0898,7.0898,7.0898,7.0898,7.0898,7.0898,7.0898,7.0898,7.1321,7.1975,7.286,7.3699,7.4546,7.5399,7.5822,7.6015,7.6015,7.6015,7.6015,7.6015,7.6015,7.6015,7.6015,7.6015,7.6015,7.6015,7.6015,7.6015,7.6015,7.6015,7.6015,7.6015,7.7361,7.8484,7.8484,7.9939,8.1093,8.1093,8.1093,8.1093,8.1093,8.1093,8.1093,8.1093,8.1093,8.1093,8.1093,8.1093,8.1093,8.1093,8.1093,8.1093,8.1093,8.1093,8.19,8.3563,8.3601,8.4409,8.6094,8.6094,8.6094,8.6094,8.6094,8.6094,2.9013,3.2497,3.6233,4.3435,4.3942,4.419,5.0018,5.2433,5.4659,5.8934,6.3051,6.5897,6.5878,6.5872,6.5878,6.5897,6.5904,6.5904,6.5904,6.5904,6.5904,6.5904,6.5904,6.5904,6.5904,6.5904,6.5904,6.5904,6.5904,6.5904,6.5904,6.5904,6.5904,6.5904,6.5904,6.6705,6.8391,6.9975,7.0821,7.0898,7.0898,7.0898,7.0898,7.0898,7.0898,7.0898,7.0898,7.0898,7.0898,7.0898,7.0898,7.0898,7.0898,7.0898,7.0898,7.0898,7.0937,7.1091,7.1982,7.2822,7.3699,7.4507,7.5322,7.6015,7.6015,7.6015,7.6015,7.6015,7.6015,7.6015,7.6015,7.6015,7.6015,7.6015,7.6015,7.6015,7.6015,7.6015,7.6015,7.6015,7.7361,7.8484,7.8484,7.9939,8.1093,8.1093,8.1093,8.1093,8.1093,8.1093,8.1093,8.1093,8.1093,8.1093,8.1093,8.1093,8.1093,8.1093,8.1093,8.1093,8.1093,8.1093,8.19,8.3563,8.3601,8.4409,8.6094,8.6094,8.6094,8.6094,8.6094,8.6094,2.8321,2.9462,3.1415,4.0843,3.9699,3.8669,4.7794,5.0745,5.2477,5.5626,6.0973,6.4551,6.2935,6.4442,6.5904,6.5904,6.5904,6.5904,6.5904,6.5904,6.5904,6.5904,6.5904,6.5904,6.5904,6.5904,6.5904,6.5904,6.3865,6.3595,6.5788,6.3826,6.3634,6.582,6.5904,6.6705,6.8391,7.0052,7.0898,7.0898,7.0898,7.0898,7.0898,7.0898,7.0898,7.0898,7.0898,7.0898,7.0898,7.0898,7.0898,7.0898,7.0898,7.0898,7.0898,7.0898,7.0898,7.1014,7.1905,7.2783,7.3623,7.443,7.5284,7.6015,7.6015,7.6015,7.6015,7.6015,7.6015,7.6015,7.6015,7.6015,7.6015,7.6015,7.6015,7.6015,7.6015,7.6015,7.6015,7.6015,7.7361,7.8484,7.8484,7.9939,8.1093,8.1093,8.1093,8.1093,8.1093,8.1093,8.1093,8.1093,8.1093,8.1093,8.1093,8.1093,8.1093,8.1093,8.1093,8.1093,8.1093,8.1093,8.19,8.3563,8.3601,8.4409,8.6094,8.6094,8.6094,8.6094,8.6094,8.6094,2.6343,2.6521,2.7564,3.6087,3.5541,3.4968,4.2931,4.7822,5.1246,5.3203,5.9473,6.4166,6.2787,6.4365,6.5904,6.5904,6.5904,6.5904,6.5904,6.5904,6.5904,6.5904,6.5904,6.5904,6.5904,6.5904,6.5904,6.5904,6.3788,6.3512,6.5788,6.3749,6.3551,6.582,6.6436,6.7282,6.8391,7.0052,7.0898,7.0898,7.0898,7.0898,7.0898,7.0898,7.0898,7.0898,7.0898,7.0898,7.0898,7.0898,7.0898,7.0898,7.0898,7.0898,7.0898,7.0898,7.0898,7.0975,7.1552,7.2514,7.3584,7.4123,7.5053,7.6015,7.6015,7.6015,7.6015,7.6015,7.6015,7.6015,7.6015,7.6015,7.6015,7.6015,7.6015,7.6015,7.6015,7.6015,7.6015,7.6015,7.7361,7.8484,7.8484,7.9939,8.1093,8.1093,8.1093,8.1093,8.1093,8.1093,8.1093,8.1093,8.1093,8.1093,8.1093,8.1093,8.1093,8.1093,8.1093,8.1093,8.1093,8.1362,8.217,8.3563,8.3901,8.4709,8.6094,8.6094,8.6094,8.6094,8.6094,8.6094,0.0,0.0,0.0,2.8907,3.1346,3.3237,3.5,4.3201,5.0668,5.1543,5.8467,6.4628,6.5551,6.5788,6.5859,6.5904,6.5904,6.5904,6.5904,6.5904,6.5904,6.5904,6.5904,6.5904,6.5904,6.5904,6.5904,6.5904,6.5827,6.5788,6.5897,6.5904,6.5904,6.5904,6.7545,6.8391,6.8391,7.0052,7.0898,7.0898,7.0898,7.0898,7.0898,7.0898,7.0898,7.0898,7.0898,7.0898,7.0898,7.0898,7.0898,7.0898,7.0898,7.0898,7.0898,7.0898,7.0898,7.0898,7.0898,7.2052,7.3507,7.3507,7.463,7.6015,7.6015,7.6015,7.6015,7.6015,7.6015,7.6015,7.6015,7.6015,7.6015,7.6015,7.6015,7.6015,7.6015,7.6015,7.6015,7.6015,7.733,7.8484,7.8484,7.99,8.1054,8.1093,8.1093,8.1093,8.1093,8.1093,8.1093,8.1093,8.1093,8.1093,8.1093,8.1093,8.1093,8.1093,8.1093,8.1093,8.1093,8.1862,8.2716,8.3563,8.4478,8.5277,8.6094,8.6094,8.6094,8.6094,8.6094,8.6094,2.2452,0.0,0.0,0.0,0.0,0.0,3.3083,3.8665,4.409,4.6783,5.3126,5.8781,6.0896,6.3281,6.5166,6.5788,6.5904,6.5904,6.5904,6.5904,6.5904,6.5904,6.5904,6.5904,6.5904,6.5904,6.5904,0.0,6.3589,6.3288,6.5782,6.5904,6.5904,6.5904,6.7545,6.8391,6.8391,7.0052,7.0898,7.0898,7.0898,7.0898,7.0898,7.0898,7.0898,7.0898,7.0898,7.0898,7.0898,7.0898,7.0898,7.0898,7.0898,7.0898,7.0898,7.0898,7.0898,7.0898,7.0898,7.2052,7.3507,7.3507,7.463,7.6015,7.6015,7.6015,7.6015,7.6015,7.6015,7.6015,7.6015,7.6015,7.6015,7.6015,7.6015,7.6015,7.6015,7.6015,7.6015,7.6015,7.6861,7.783,7.8407,7.94,8.0362,8.1016,8.1093,8.1093,8.1093,8.1093,8.1093,8.1093,8.1093,8.1093,8.1093,8.1093,8.1093,8.1093,8.1093,8.1093,8.1093,8.1862,8.2716,8.3563,8.4478,8.5277,8.6094,8.6094,8.6094,8.6094,8.6094,8.6094,2.2941,2.3355,2.3855,2.6043,0.0,0.0,3.1891,3.8007,4.3936,4.6629,5.3131,5.8517,5.8934,6.0896,6.2627,6.3166,6.3551,6.4288,6.5711,6.5904,6.5904,6.5904,6.5904,6.5904,6.5904,6.5904,6.5904,6.5904,6.4057,6.3788,6.5788,6.5904,6.5904,6.5904,6.7167,6.8045,6.8391,6.9744,7.0552,7.0898,7.0898,7.0898,7.0898,7.0898,7.0898,7.0898,7.0898,7.0898,7.0898,7.0898,7.0898,7.0898,7.0898,7.0898,7.0898,7.0898,7.0898,7.0898,7.0898,7.1783,7.3014,7.3392,7.4392,7.5515,7.5899,7.6015,7.6015,7.6015,7.6015,7.6015,7.6015,7.6015,7.6015,7.6015,7.6015,7.6015,7.6015,7.6015,7.6015,7.6015,7.6707,7.7561,7.8369,7.9208,8.0085,8.0977,8.1093,8.1093,8.1093,8.1093,8.1093,8.1093,8.1093,8.1093,8.1093,8.1093,8.1093,8.1093,8.1093,8.1093,8.1093,8.1862,8.2716,8.3563,8.4478,8.5277,8.6094,8.6094,8.6094,8.6094,8.6094,8.6094,2.3871,2.4091,2.4473,2.6043,2.7739,0.0,3.1044,3.8658,4.5928,4.7971,5.4516,5.9325,5.7627,5.7896,5.8396,5.8511,5.9319,6.1204,6.4826,6.5667,6.5743,6.5359,6.5673,6.5904,6.5904,6.5904,6.5904,6.5904,6.5904,6.5904,6.5904,6.5904,6.5904,6.5904,6.6673,6.7513,6.8391,6.9244,7.009,7.0898,7.0898,7.0898,7.0898,7.0898,7.0898,7.0898,7.0898,7.0898,7.0898,7.0898,7.0898,7.0898,7.0898,7.0898,7.0898,7.0898,7.0898,7.0898,7.0898,7.1475,7.2329,7.3206,7.4046,7.4853,7.5745,7.6015,7.6015,7.6015,7.6015,7.6015,7.6015,7.6015,7.6015,7.6015,7.6015,7.6015,7.6015,7.6015,7.6015,7.6015,7.663,7.7445,7.833,7.9131,7.9977,8.0939,8.1093,8.1093,8.1093,8.1093,8.1093,8.1093,8.1093,8.1093,8.1093,8.1093,8.1093,8.1093,8.1093,8.1093,8.1093,8.1862,8.2716,8.3563,8.4555,8.5401,8.6094,8.6094,8.6094,8.6094,8.6094,8.6094,2.4045,2.4091,2.4319,2.531,2.6851,0.0,2.9393,3.2737,3.6892,4.132,4.4124,4.6855,5.0471,5.1241,5.1587,5.2284,5.3703,5.6357,6.1127,6.4172,6.4865,6.2133,6.4211,6.5904,6.5904,6.5904,6.5904,6.5904,6.5904,6.5904,6.5904,6.5904,6.5904,6.5904,6.6673,6.7513,6.8391,6.9244,7.009,7.0898,7.0898,7.0898,7.0898,7.0898,7.0898,7.0898,7.0898,7.0898,7.0898,7.0898,7.0898,7.0898,7.0898,7.0898,7.0898,7.0898,7.0898,7.0898,7.0898,7.1475,7.2329,7.3206,7.4046,7.4853,7.5745,7.6015,7.6015,7.6015,7.6015,7.6015,7.6015,7.6015,7.6015,7.6015,7.6015,7.6015,7.6015,7.6015,7.6015,7.6015,7.613,7.6746,7.8253,7.8638,7.9285,8.0862,8.1093,8.1093,8.1093,8.1093,8.1093,8.1093,8.1093,8.1093,8.1093,8.1093,8.1093,8.1093,8.1093,8.1093,8.1093,8.1862,8.2716,8.3563,8.5093,8.594,8.6094,8.6094,8.6094,8.6094,8.6094,8.6094,2.4815,2.4697,2.4889,2.5733,2.6618,0.0,0.0,3.2045,3.5776,3.9204,4.2277,4.4735,4.6009,4.6586,4.7014,4.7437,4.8591,5.0284,5.2861,5.9056,6.3364,6.3326,6.4859,6.5904,6.5904,6.5904,6.5904,6.5904,6.5904,6.5904,6.5904,6.5904,6.5904,6.5904,6.6288,6.7128,6.8391,6.8814,6.9667,7.0898,7.0898,7.0898,7.0898,7.0898,7.0898,7.0898,7.0898,7.0898,7.0898,7.0898,7.0898,7.0898,7.0898,7.0898,7.0898,7.0898,7.0898,7.0898,7.0898,7.1206,7.1783,7.3084,7.3776,7.4353,7.563,7.6015,7.6015,7.6015,7.6015,7.6015,7.6015,7.6015,7.6015,7.6015,7.6015,7.6015,7.6015,7.6015,7.6015,7.6015,7.6015,7.6515,7.8215,7.8484,7.91,8.0823,8.1093,8.1093,8.1093,8.1093,8.1093,8.1093,8.1093,8.1093,8.1093,8.1093,8.1093,8.1093,8.1093,8.1093,8.1093,8.1477,8.2285,8.3563,8.5247,8.6094,8.6094,8.6094,8.6094,8.6094,8.6094,8.6094,2.6269,2.5923,2.5923,2.6464,2.6736,2.7198,0.0,0.0,0.0,3.7703,4.147,4.3889,4.197,4.2162,4.2431,4.1931,4.3166,4.4205,4.4359,5.2169,5.9017,6.2089,6.3326,6.3942,6.3942,6.4519,6.5173,6.5865,6.5904,6.5904,6.5904,6.5904,6.5904,6.5904,6.5904,6.6628,6.8122,6.8314,6.9161,7.0667,7.0821,7.0898,7.0898,7.0898,7.0898,7.0898,7.0898,7.0898,7.0898,7.0898,7.0898,7.0898,7.0898,7.0898,7.0898,7.0898,7.0898,7.0898,7.0898,7.0898,7.1206,7.293,7.3699,7.4238,7.5592,7.6015,7.6015,7.6015,7.6015,7.6015,7.6015,7.6015,7.6015,7.6015,7.6015,7.6015,7.6015,7.6015,7.6015,7.6015,7.6015,7.6515,7.8215,7.8484,7.91,8.0823,8.1093,8.1093,8.1093,8.1093,8.1093,8.1093,8.1093,8.1093,8.1093,8.1093,8.1093,8.1093,8.1093,8.1093,8.1093,8.1246,8.2054,8.3563,8.5093,8.594,8.6094,8.6094,8.6094,8.6094,8.6094,8.6094,2.8893,2.8162,2.7431,2.6774,2.7198,2.7816,2.8008,0.0,3.1577,3.3276,0.0,3.578,3.6273,0.0,0.0,3.3503,3.6353,3.9123,3.9896,4.4244,4.8014,4.9894,5.4126,5.6863,5.6863,5.9594,6.2633,6.5673,6.5904,6.5904,6.5904,6.5904,6.5904,6.5904,6.5904,6.632,6.725,6.8013,6.8891,6.986,7.0552,7.0898,7.0898,7.0898,7.0898,7.0898,7.0898,7.0898,7.0898,7.0898,7.0898,7.0898,7.0898,7.0898,7.0898,7.0898,7.0898,7.0898,7.0898,7.0898,7.1206,7.293,7.4507,7.5745,7.5938,7.6015,7.6015,7.6015,7.6015,7.6015,7.6015,7.6015,7.6015,7.6015,7.6015,7.6015,7.6015,7.6015,7.6015,7.6015,7.6015,7.6515,7.8215,7.8484,7.91,8.0823,8.1093,8.1093,8.1093,8.1093,8.1093,8.1093,8.1093,8.1093,8.1093,8.1093,8.1093,8.1093,8.1093,8.1093,8.1093,8.1785,8.2631,8.3563,8.4555,8.5401,8.6094,8.6094,8.6094,8.6094,8.6094,8.6094,3.3083,3.3276,3.3045,0.0,0.0,0.0,3.366,0.0,3.1503,0.0,0.0,0.0,0.0,0.0,0.0,0.0,3.5388,3.6696,3.7042,3.9469,4.3282,4.8937,5.2356,5.5395,5.8363,5.8171,5.9248,6.2672,6.2941,6.2941,6.2941,6.4826,6.5904,6.5904,6.5904,6.6288,6.7096,6.7975,6.8853,6.9706,7.0514,7.0898,7.0898,7.0898,7.0898,7.0898,7.0898,7.0898,7.0898,7.0898,7.0898,7.0898,7.0898,7.0898,7.0898,7.0898,7.0898,7.0898,7.0898,7.0898,7.1206,7.293,7.463,7.6015,7.6015,7.6015,7.6015,7.6015,7.6015,7.6015,7.6015,7.6015,7.6015,7.6015,7.6015,7.6015,7.6015,7.6015,7.6015,7.6015,7.6399,7.713,7.8292,7.8484,7.91,8.0823,8.1093,8.1093,8.1093,8.1093,8.1093,8.1093,8.1093,8.1093,8.1093,8.1093,8.1093,8.1093,8.1093,8.1093,8.1093,8.2362,8.3216,8.3601,8.4901,8.5747,8.6094,8.6094,8.6094,8.6094,8.6094,8.6094,3.9158,0.0,0.0,0.0,0.0,0.0,0.0,0.0,0.0,0.0,3.3279,0.0,0.0,0.0,0.0,0.0,0.0,3.5269,3.4577,3.6119,3.9777,4.6436,4.9933,5.3164,5.6665,5.6209,5.6632,5.8896,6.0165,6.0787,6.0787,6.4057,6.5904,6.5904,6.5904,6.6173,6.6789,6.7859,6.8737,6.9353,7.0398,7.0898,7.0898,7.0898,7.0898,7.0898,7.0898,7.0898,7.0898,7.0898,7.0898,7.0898,7.0898,7.0898,7.0898,7.0898,7.0898,7.0898,7.0898,7.1206,7.1822,7.3084,7.463,7.6015,7.6015,7.6015,7.6015,7.6015,7.6015,7.6015,7.6015,7.6015,7.6015,7.6015,7.6015,7.6015,7.6015,7.6015,7.6015,7.6015,7.6707,7.7561,7.8369,7.8715,7.9361,8.0862,8.1093,8.1093,8.1093,8.1093,8.1093,8.1093,8.1093,8.1093,8.1093,8.1093,8.1093,8.1093,8.1093,8.1093,8.1093,8.2285,8.3139,8.3601,8.4786,8.5632,8.6094,8.6094,8.6094,8.6094,8.6094,8.6094,0.0,0.0,0.0,3.9238,0.0,0.0,0.0,0.0,3.216,0.0,0.0,0.0,0.0,0.0,0.0,0.0,0.0,0.0,0.0,3.4003,3.6273,3.8161,4.4239,4.8005,4.7428,5.2395,5.5439,5.4741,5.8473,6.0787,6.0787,6.4057,6.5904,6.5904,6.5904,6.5904,6.5936,6.759,6.8391,6.8468,7.0129,7.0898,7.0898,7.0898,7.0898,7.0898,7.0898,7.0898,7.0898,7.0898,7.0898,7.0898,7.0898,7.0898,7.0898,7.0898,7.0898,7.0898,7.0898,7.2014,7.343,7.3469,7.463,7.6015,7.6015,7.6015,7.6015,7.6015,7.6015,7.6015,7.6015,7.6015,7.6015,7.6015,7.6015,7.6015,7.6015,7.6015,7.6015,7.6015,7.6707,7.7561,7.8369,7.9208,8.0046,8.0977,8.1093,8.1093,8.1093,8.1093,8.1093,8.1093,8.1093,8.1093,8.1093,8.1093,8.1093,8.1093,8.1093,8.1093,8.1093,8.1131,8.1939,8.3563,8.364,8.4478,8.6094,8.6094,8.6094,8.6094,8.6094,8.6094,0.0,0.0,5.2592,5.0284,0.0,0.0,0.0,0.0,0.0,0.0,0.0,0.0,0.0,0.0,0.0,0.0,0.0,0.0,0.0,3.4962,3.5692,3.6273,3.935,4.3085,4.7274,4.6966,4.8048,5.1707,5.2784,5.3515,5.4093,5.9479,6.2518,6.2518,6.4711,6.5904,6.5904,6.7552,6.8391,6.843,7.009,7.0898,7.0898,7.0898,7.0898,7.0898,7.0898,7.0898,7.0898,7.0898,7.0898,7.0898,7.0898,7.0898,7.0898,7.0898,7.0898,7.0898,7.0898,7.2052,7.3507,7.3507,7.463,7.6015,7.6015,7.6015,7.6015,7.6015,7.6015,7.6015,7.6015,7.6015,7.6015,7.6015,7.6015,7.6015,7.6015,7.6015,7.6015,7.6015,7.713,7.8176,7.8446,7.9708,8.0746,8.1054,8.1093,8.1093,8.1093,8.1093,8.1093,8.1093,8.1093,8.1093,8.1093,8.1093,8.1093,8.1093,8.1093,8.1093,8.1093,8.1593,8.217,8.2708,8.3862,8.4747,8.5316,8.5863,8.6094,8.6094,8.6094,8.6094,5.8967,5.9473,0.0,5.667,5.4131,0.0,4.951,0.0,4.0812,0.0,0.0,0.0,0.0,0.0,0.0,0.0,0.0,0.0,0.0,3.55,3.55,3.55,3.8042,4.0931,4.3773,4.4043,4.5004,4.7355,4.8976,5.0091,5.0668,5.7132,6.0787,6.0787,6.4128,6.5904,6.5904,6.7244,6.8084,6.843,6.9821,7.0629,7.0898,7.0898,7.0898,7.0898,7.0898,7.0898,7.0898,7.0898,7.0898,7.0898,7.0898,7.0898,7.0898,7.0898,7.0898,7.0898,7.0898,7.2052,7.3507,7.3507,7.463,7.6015,7.6015,7.6015,7.6015,7.6015,7.6015,7.6015,7.6015,7.6015,7.6015,7.6015,7.6015,7.6015,7.6015,7.6015,7.6015,7.6015,7.7361,7.8484,7.8484,7.9939,8.1093,8.1093,8.1093,8.1093,8.1093,8.1093,8.1093,8.1093,8.1093,8.1093,8.1093,8.1093,8.1093,8.1093,8.1093,8.1093,8.1093,8.1593,8.2131,8.2747,8.3555,8.4439,8.5316,8.5555,8.5824,8.6094,8.6094,8.6094]}]]